<?xml version='1.0' encoding='UTF-8'?>
<gpx version="1.1" creator="https://www.komoot.de" xmlns="http://www.topografix.com/GPX/1/1" xmlns:xsi="http://www.w3.org/2001/XMLSchema-instance" xsi:schemaLocation="http://www.topografix.com/GPX/1/1 http://www.topografix.com/GPX/1/1/gpx.xsd">
  <metadata>
    <name>GABA versione bike tappone 1 modificato</name>
    <author>
      <link href="https://www.komoot.de">
        <text>komoot</text>
        <type>text/html</type>
      </link>
    </author>
  </metadata>
  <trk>
    <name>GABA versione bike tappone 1 modificato</name>
    <trkseg>
      <trkpt lat="42.849544" lon="13.537623">
        <ele>202.620357</ele>
        <time>2021-05-26T14:45:11.980Z</time>
      </trkpt>
      <trkpt lat="42.849734" lon="13.536453">
        <ele>202.620357</ele>
        <time>2021-05-26T14:45:37.058Z</time>
      </trkpt>
      <trkpt lat="42.849900" lon="13.534908">
        <ele>204.072686</ele>
        <time>2021-05-26T14:46:09.016Z</time>
      </trkpt>
      <trkpt lat="42.849906" lon="13.532616">
        <ele>205.256273</ele>
        <time>2021-05-26T14:46:45.588Z</time>
      </trkpt>
      <trkpt lat="42.849850" lon="13.531981">
        <ele>205.401715</ele>
        <time>2021-05-26T14:46:54.545Z</time>
      </trkpt>
      <trkpt lat="42.849516" lon="13.530736">
        <ele>205.602962</ele>
        <time>2021-05-26T14:47:13.498Z</time>
      </trkpt>
      <trkpt lat="42.849185" lon="13.530318">
        <ele>205.673102</ele>
        <time>2021-05-26T14:47:22.529Z</time>
      </trkpt>
      <trkpt lat="42.847746" lon="13.529573">
        <ele>205.876588</ele>
        <time>2021-05-26T14:47:53.873Z</time>
      </trkpt>
      <trkpt lat="42.846796" lon="13.528830">
        <ele>206.059901</ele>
        <time>2021-05-26T14:48:14.584Z</time>
      </trkpt>
      <trkpt lat="42.845839" lon="13.528022">
        <ele>206.681508</ele>
        <time>2021-05-26T14:48:38.469Z</time>
      </trkpt>
      <trkpt lat="42.845319" lon="13.527072">
        <ele>207.592460</ele>
        <time>2021-05-26T14:48:59.516Z</time>
      </trkpt>
      <trkpt lat="42.843431" lon="13.525621">
        <ele>211.107591</ele>
        <time>2021-05-26T14:50:04.103Z</time>
      </trkpt>
      <trkpt lat="42.843025" lon="13.525221">
        <ele>211.681422</ele>
        <time>2021-05-26T14:50:17.088Z</time>
      </trkpt>
      <trkpt lat="42.842876" lon="13.525042">
        <ele>211.908916</ele>
        <time>2021-05-26T14:50:21.895Z</time>
      </trkpt>
      <trkpt lat="42.842682" lon="13.524831">
        <ele>212.193206</ele>
        <time>2021-05-26T14:50:26.605Z</time>
      </trkpt>
      <trkpt lat="42.842119" lon="13.524618">
        <ele>212.073033</ele>
        <time>2021-05-26T14:50:36.750Z</time>
      </trkpt>
      <trkpt lat="42.841929" lon="13.524453">
        <ele>211.921104</ele>
        <time>2021-05-26T14:50:41.150Z</time>
      </trkpt>
      <trkpt lat="42.841870" lon="13.524402">
        <ele>211.873989</ele>
        <time>2021-05-26T14:50:42.057Z</time>
      </trkpt>
      <trkpt lat="42.841551" lon="13.523626">
        <ele>211.434009</ele>
        <time>2021-05-26T14:50:53.344Z</time>
      </trkpt>
      <trkpt lat="42.841354" lon="13.523286">
        <ele>211.219694</ele>
        <time>2021-05-26T14:50:58.541Z</time>
      </trkpt>
      <trkpt lat="42.841159" lon="13.523132">
        <ele>211.474749</ele>
        <time>2021-05-26T14:51:02.302Z</time>
      </trkpt>
      <trkpt lat="42.840800" lon="13.523025">
        <ele>212.417546</ele>
        <time>2021-05-26T14:51:10.268Z</time>
      </trkpt>
      <trkpt lat="42.839900" lon="13.523013">
        <ele>214.726716</ele>
        <time>2021-05-26T14:51:41.265Z</time>
      </trkpt>
      <trkpt lat="42.839856" lon="13.523010">
        <ele>214.839744</ele>
        <time>2021-05-26T14:51:43.137Z</time>
      </trkpt>
      <trkpt lat="42.839290" lon="13.522978">
        <ele>216.815850</ele>
        <time>2021-05-26T14:52:07.674Z</time>
      </trkpt>
      <trkpt lat="42.839102" lon="13.522905">
        <ele>217.815682</ele>
        <time>2021-05-26T14:52:16.790Z</time>
      </trkpt>
      <trkpt lat="42.838572" lon="13.522205">
        <ele>221.589559</ele>
        <time>2021-05-26T14:52:52.775Z</time>
      </trkpt>
      <trkpt lat="42.838517" lon="13.522131">
        <ele>221.984750</ele>
        <time>2021-05-26T14:52:56.735Z</time>
      </trkpt>
      <trkpt lat="42.838150" lon="13.521638">
        <ele>224.619700</ele>
        <time>2021-05-26T14:53:19.248Z</time>
      </trkpt>
      <trkpt lat="42.838089" lon="13.521359">
        <ele>225.564827</ele>
        <time>2021-05-26T14:53:27.570Z</time>
      </trkpt>
      <trkpt lat="42.837987" lon="13.520900">
        <ele>227.008957</ele>
        <time>2021-05-26T14:53:40.786Z</time>
      </trkpt>
      <trkpt lat="42.837902" lon="13.520696">
        <ele>227.715445</ele>
        <time>2021-05-26T14:53:47.015Z</time>
      </trkpt>
      <trkpt lat="42.837302" lon="13.520423">
        <ele>230.312706</ele>
        <time>2021-05-26T14:54:12.448Z</time>
      </trkpt>
      <trkpt lat="42.836783" lon="13.519793">
        <ele>232.935195</ele>
        <time>2021-05-26T14:54:40.712Z</time>
      </trkpt>
      <trkpt lat="42.836545" lon="13.519648">
        <ele>233.701963</ele>
        <time>2021-05-26T14:54:50.707Z</time>
      </trkpt>
      <trkpt lat="42.836135" lon="13.519636">
        <ele>234.908260</ele>
        <time>2021-05-26T14:55:04.870Z</time>
      </trkpt>
      <trkpt lat="42.836108" lon="13.519636">
        <ele>234.987681</ele>
        <time>2021-05-26T14:55:05.888Z</time>
      </trkpt>
      <trkpt lat="42.835896" lon="13.519622">
        <ele>235.612013</ele>
        <time>2021-05-26T14:55:13.077Z</time>
      </trkpt>
      <trkpt lat="42.835451" lon="13.519448">
        <ele>236.973731</ele>
        <time>2021-05-26T14:55:27.646Z</time>
      </trkpt>
      <trkpt lat="42.835218" lon="13.519285">
        <ele>237.618352</ele>
        <time>2021-05-26T14:55:35.656Z</time>
      </trkpt>
      <trkpt lat="42.834941" lon="13.518935">
        <ele>237.340789</ele>
        <time>2021-05-26T14:55:46.392Z</time>
      </trkpt>
      <trkpt lat="42.834604" lon="13.518449">
        <ele>236.980269</ele>
        <time>2021-05-26T14:55:56.977Z</time>
      </trkpt>
      <trkpt lat="42.834116" lon="13.517991">
        <ele>236.544840</ele>
        <time>2021-05-26T14:56:06.445Z</time>
      </trkpt>
      <trkpt lat="42.833482" lon="13.517663">
        <ele>234.645709</ele>
        <time>2021-05-26T14:56:15.891Z</time>
      </trkpt>
      <trkpt lat="42.833285" lon="13.517561">
        <ele>233.701964</ele>
        <time>2021-05-26T14:56:18.678Z</time>
      </trkpt>
      <trkpt lat="42.832999" lon="13.517376">
        <ele>232.284275</ele>
        <time>2021-05-26T14:56:22.900Z</time>
      </trkpt>
      <trkpt lat="42.831958" lon="13.516462">
        <ele>227.019933</ele>
        <time>2021-05-26T14:56:39.455Z</time>
      </trkpt>
      <trkpt lat="42.831307" lon="13.515846">
        <ele>224.123663</ele>
        <time>2021-05-26T14:56:51.139Z</time>
      </trkpt>
      <trkpt lat="42.831277" lon="13.515805">
        <ele>223.968414</ele>
        <time>2021-05-26T14:56:51.842Z</time>
      </trkpt>
      <trkpt lat="42.831152" lon="13.515635">
        <ele>223.323122</ele>
        <time>2021-05-26T14:56:54.505Z</time>
      </trkpt>
      <trkpt lat="42.830783" lon="13.514638">
        <ele>219.125948</ele>
        <time>2021-05-26T14:57:05.753Z</time>
      </trkpt>
      <trkpt lat="42.830739" lon="13.514489">
        <ele>218.314933</ele>
        <time>2021-05-26T14:57:07.339Z</time>
      </trkpt>
      <trkpt lat="42.830535" lon="13.513794">
        <ele>214.535173</ele>
        <time>2021-05-26T14:57:14.574Z</time>
      </trkpt>
      <trkpt lat="42.830426" lon="13.513499">
        <ele>212.867316</ele>
        <time>2021-05-26T14:57:17.487Z</time>
      </trkpt>
      <trkpt lat="42.830387" lon="13.513328">
        <ele>211.963129</ele>
        <time>2021-05-26T14:57:19.087Z</time>
      </trkpt>
      <trkpt lat="42.830347" lon="13.513158">
        <ele>211.061681</ele>
        <time>2021-05-26T14:57:20.629Z</time>
      </trkpt>
      <trkpt lat="42.830337" lon="13.513088">
        <ele>210.701599</ele>
        <time>2021-05-26T14:57:21.262Z</time>
      </trkpt>
      <trkpt lat="42.830274" lon="13.512655">
        <ele>208.578769</ele>
        <time>2021-05-26T14:57:25.155Z</time>
      </trkpt>
      <trkpt lat="42.830245" lon="13.512459">
        <ele>207.697319</ele>
        <time>2021-05-26T14:57:26.953Z</time>
      </trkpt>
      <trkpt lat="42.830207" lon="13.512176">
        <ele>206.429010</ele>
        <time>2021-05-26T14:57:29.443Z</time>
      </trkpt>
      <trkpt lat="42.830165" lon="13.511861">
        <ele>205.017607</ele>
        <time>2021-05-26T14:57:32.405Z</time>
      </trkpt>
      <trkpt lat="42.830100" lon="13.511248">
        <ele>202.287169</ele>
        <time>2021-05-26T14:57:38.121Z</time>
      </trkpt>
      <trkpt lat="42.830079" lon="13.511106">
        <ele>201.648578</ele>
        <time>2021-05-26T14:57:39.595Z</time>
      </trkpt>
      <trkpt lat="42.830044" lon="13.511016">
        <ele>201.199492</ele>
        <time>2021-05-26T14:57:40.707Z</time>
      </trkpt>
      <trkpt lat="42.830080" lon="13.510991">
        <ele>200.956644</ele>
        <time>2021-05-26T14:57:41.268Z</time>
      </trkpt>
      <trkpt lat="42.830139" lon="13.510975">
        <ele>200.595043</ele>
        <time>2021-05-26T14:57:42.096Z</time>
      </trkpt>
      <trkpt lat="42.830214" lon="13.510971">
        <ele>200.143865</ele>
        <time>2021-05-26T14:57:43.093Z</time>
      </trkpt>
      <trkpt lat="42.830398" lon="13.511038">
        <ele>198.999063</ele>
        <time>2021-05-26T14:57:46.236Z</time>
      </trkpt>
      <trkpt lat="42.830618" lon="13.511136">
        <ele>198.825976</ele>
        <time>2021-05-26T14:57:49.835Z</time>
      </trkpt>
      <trkpt lat="42.831667" lon="13.511814">
        <ele>201.412439</ele>
        <time>2021-05-26T14:58:28.548Z</time>
      </trkpt>
      <trkpt lat="42.831859" lon="13.511912">
        <ele>201.869207</ele>
        <time>2021-05-26T14:58:36.531Z</time>
      </trkpt>
      <trkpt lat="42.832512" lon="13.512245">
        <ele>204.252930</ele>
        <time>2021-05-26T14:59:03.289Z</time>
      </trkpt>
      <trkpt lat="42.832571" lon="13.512259">
        <ele>204.506989</ele>
        <time>2021-05-26T14:59:06.807Z</time>
      </trkpt>
      <trkpt lat="42.832596" lon="13.512265">
        <ele>204.614677</ele>
        <time>2021-05-26T14:59:07.533Z</time>
      </trkpt>
      <trkpt lat="42.832748" lon="13.512259">
        <ele>205.259781</ele>
        <time>2021-05-26T14:59:13.131Z</time>
      </trkpt>
      <trkpt lat="42.832886" lon="13.512305">
        <ele>205.862460</ele>
        <time>2021-05-26T14:59:18.993Z</time>
      </trkpt>
      <trkpt lat="42.832985" lon="13.512377">
        <ele>206.338450</ele>
        <time>2021-05-26T14:59:23.423Z</time>
      </trkpt>
      <trkpt lat="42.833083" lon="13.512457">
        <ele>206.823002</ele>
        <time>2021-05-26T14:59:27.879Z</time>
      </trkpt>
      <trkpt lat="42.833254" lon="13.512648">
        <ele>207.760737</ele>
        <time>2021-05-26T14:59:36.961Z</time>
      </trkpt>
      <trkpt lat="42.833452" lon="13.512923">
        <ele>208.959700</ele>
        <time>2021-05-26T14:59:47.881Z</time>
      </trkpt>
      <trkpt lat="42.833553" lon="13.513059">
        <ele>209.561867</ele>
        <time>2021-05-26T14:59:53.452Z</time>
      </trkpt>
      <trkpt lat="42.833781" lon="13.513109">
        <ele>210.619146</ele>
        <time>2021-05-26T15:00:05.056Z</time>
      </trkpt>
      <trkpt lat="42.834310" lon="13.512729">
        <ele>213.639163</ele>
        <time>2021-05-26T15:00:29.991Z</time>
      </trkpt>
      <trkpt lat="42.834384" lon="13.512742">
        <ele>214.016023</ele>
        <time>2021-05-26T15:00:32.529Z</time>
      </trkpt>
      <trkpt lat="42.834636" lon="13.513197">
        <ele>216.127990</ele>
        <time>2021-05-26T15:00:49.723Z</time>
      </trkpt>
      <trkpt lat="42.834751" lon="13.513257">
        <ele>216.749914</ele>
        <time>2021-05-26T15:00:54.284Z</time>
      </trkpt>
      <trkpt lat="42.834813" lon="13.513173">
        <ele>217.191358</ele>
        <time>2021-05-26T15:01:00.248Z</time>
      </trkpt>
      <trkpt lat="42.834818" lon="13.513038">
        <ele>217.692030</ele>
        <time>2021-05-26T15:01:04.933Z</time>
      </trkpt>
      <trkpt lat="42.834564" lon="13.512405">
        <ele>220.960954</ele>
        <time>2021-05-26T15:01:30.678Z</time>
      </trkpt>
      <trkpt lat="42.834397" lon="13.512313">
        <ele>222.344290</ele>
        <time>2021-05-26T15:01:40.533Z</time>
      </trkpt>
      <trkpt lat="42.833917" lon="13.512300">
        <ele>226.031606</ele>
        <time>2021-05-26T15:02:06.487Z</time>
      </trkpt>
      <trkpt lat="42.833752" lon="13.512259">
        <ele>227.319738</ele>
        <time>2021-05-26T15:02:17.445Z</time>
      </trkpt>
      <trkpt lat="42.833694" lon="13.512191">
        <ele>227.907208</ele>
        <time>2021-05-26T15:02:21.559Z</time>
      </trkpt>
      <trkpt lat="42.833631" lon="13.511893">
        <ele>229.653978</ele>
        <time>2021-05-26T15:02:34.226Z</time>
      </trkpt>
      <trkpt lat="42.833601" lon="13.511124">
        <ele>234.239752</ele>
        <time>2021-05-26T15:03:08.310Z</time>
      </trkpt>
      <trkpt lat="42.833458" lon="13.510568">
        <ele>238.419164</ele>
        <time>2021-05-26T15:03:42.946Z</time>
      </trkpt>
      <trkpt lat="42.833453" lon="13.510406">
        <ele>239.569300</ele>
        <time>2021-05-26T15:03:52.601Z</time>
      </trkpt>
      <trkpt lat="42.833786" lon="13.509923">
        <ele>244.271736</ele>
        <time>2021-05-26T15:04:27.179Z</time>
      </trkpt>
      <trkpt lat="42.833907" lon="13.509413">
        <ele>248.073930</ele>
        <time>2021-05-26T15:04:52.261Z</time>
      </trkpt>
      <trkpt lat="42.833906" lon="13.509224">
        <ele>249.414594</ele>
        <time>2021-05-26T15:05:02.023Z</time>
      </trkpt>
      <trkpt lat="42.833906" lon="13.509016">
        <ele>250.648744</ele>
        <time>2021-05-26T15:05:11.171Z</time>
      </trkpt>
      <trkpt lat="42.833896" lon="13.508538">
        <ele>252.256338</ele>
        <time>2021-05-26T15:05:30.676Z</time>
      </trkpt>
      <trkpt lat="42.833820" lon="13.508393">
        <ele>252.855510</ele>
        <time>2021-05-26T15:05:36.657Z</time>
      </trkpt>
      <trkpt lat="42.833708" lon="13.508385">
        <ele>253.369656</ele>
        <time>2021-05-26T15:05:42.777Z</time>
      </trkpt>
      <trkpt lat="42.833567" lon="13.508471">
        <ele>254.077756</ele>
        <time>2021-05-26T15:05:49.468Z</time>
      </trkpt>
      <trkpt lat="42.833310" lon="13.508854">
        <ele>255.823017</ele>
        <time>2021-05-26T15:06:04.808Z</time>
      </trkpt>
      <trkpt lat="42.832606" lon="13.509393">
        <ele>259.365118</ele>
        <time>2021-05-26T15:06:27.141Z</time>
      </trkpt>
      <trkpt lat="42.832238" lon="13.509831">
        <ele>261.183793</ele>
        <time>2021-05-26T15:06:39.593Z</time>
      </trkpt>
      <trkpt lat="42.832102" lon="13.509768">
        <ele>261.718576</ele>
        <time>2021-05-26T15:06:44.156Z</time>
      </trkpt>
      <trkpt lat="42.832088" lon="13.509665">
        <ele>262.004602</ele>
        <time>2021-05-26T15:06:46.792Z</time>
      </trkpt>
      <trkpt lat="42.832167" lon="13.509462">
        <ele>262.632092</ele>
        <time>2021-05-26T15:06:53.117Z</time>
      </trkpt>
      <trkpt lat="42.832327" lon="13.509262">
        <ele>263.440235</ele>
        <time>2021-05-26T15:07:01.972Z</time>
      </trkpt>
      <trkpt lat="42.832694" lon="13.508919">
        <ele>265.096810</ele>
        <time>2021-05-26T15:07:23.191Z</time>
      </trkpt>
      <trkpt lat="42.832695" lon="13.508546">
        <ele>267.278431</ele>
        <time>2021-05-26T15:07:37.793Z</time>
      </trkpt>
      <trkpt lat="42.832623" lon="13.508120">
        <ele>270.344451</ele>
        <time>2021-05-26T15:07:56.798Z</time>
      </trkpt>
      <trkpt lat="42.832646" lon="13.507973">
        <ele>271.398622</ele>
        <time>2021-05-26T15:08:03.924Z</time>
      </trkpt>
      <trkpt lat="42.833187" lon="13.507146">
        <ele>279.170984</ele>
        <time>2021-05-26T15:09:01.401Z</time>
      </trkpt>
      <trkpt lat="42.833190" lon="13.506848">
        <ele>281.261149</ele>
        <time>2021-05-26T15:09:18.034Z</time>
      </trkpt>
      <trkpt lat="42.833105" lon="13.506617">
        <ele>283.167904</ele>
        <time>2021-05-26T15:09:33.293Z</time>
      </trkpt>
      <trkpt lat="42.833043" lon="13.506447">
        <ele>284.751000</ele>
        <time>2021-05-26T15:09:44.606Z</time>
      </trkpt>
      <trkpt lat="42.833054" lon="13.506316">
        <ele>285.850429</ele>
        <time>2021-05-26T15:09:52.233Z</time>
      </trkpt>
      <trkpt lat="42.833162" lon="13.506324">
        <ele>287.080208</ele>
        <time>2021-05-26T15:10:00.867Z</time>
      </trkpt>
      <trkpt lat="42.833413" lon="13.506870">
        <ele>292.453360</ele>
        <time>2021-05-26T15:10:38.502Z</time>
      </trkpt>
      <trkpt lat="42.833452" lon="13.507010">
        <ele>293.702074</ele>
        <time>2021-05-26T15:10:46.864Z</time>
      </trkpt>
      <trkpt lat="42.833432" lon="13.507337">
        <ele>296.438085</ele>
        <time>2021-05-26T15:11:05.839Z</time>
      </trkpt>
      <trkpt lat="42.833632" lon="13.507331">
        <ele>298.712651</ele>
        <time>2021-05-26T15:11:20.600Z</time>
      </trkpt>
      <trkpt lat="42.833755" lon="13.507179">
        <ele>300.600005</ele>
        <time>2021-05-26T15:11:33.594Z</time>
      </trkpt>
      <trkpt lat="42.834072" lon="13.506788">
        <ele>304.585804</ele>
        <time>2021-05-26T15:12:04.253Z</time>
      </trkpt>
      <trkpt lat="42.834173" lon="13.506219">
        <ele>307.713988</ele>
        <time>2021-05-26T15:12:32.230Z</time>
      </trkpt>
      <trkpt lat="42.834383" lon="13.505986">
        <ele>309.686662</ele>
        <time>2021-05-26T15:12:48.461Z</time>
      </trkpt>
      <trkpt lat="42.834777" lon="13.505997">
        <ele>312.558148</ele>
        <time>2021-05-26T15:13:08.653Z</time>
      </trkpt>
      <trkpt lat="42.835145" lon="13.506493">
        <ele>316.249176</ele>
        <time>2021-05-26T15:13:29.995Z</time>
      </trkpt>
      <trkpt lat="42.835210" lon="13.506777">
        <ele>317.198932</ele>
        <time>2021-05-26T15:13:38.145Z</time>
      </trkpt>
      <trkpt lat="42.835189" lon="13.507003">
        <ele>317.926170</ele>
        <time>2021-05-26T15:13:44.092Z</time>
      </trkpt>
      <trkpt lat="42.834932" lon="13.507712">
        <ele>320.450962</ele>
        <time>2021-05-26T15:14:04.066Z</time>
      </trkpt>
      <trkpt lat="42.834936" lon="13.507990">
        <ele>321.338607</ele>
        <time>2021-05-26T15:14:11.627Z</time>
      </trkpt>
      <trkpt lat="42.834999" lon="13.508135">
        <ele>321.876646</ele>
        <time>2021-05-26T15:14:16.319Z</time>
      </trkpt>
      <trkpt lat="42.835338" lon="13.508454">
        <ele>323.669676</ele>
        <time>2021-05-26T15:14:33.824Z</time>
      </trkpt>
      <trkpt lat="42.835447" lon="13.508814">
        <ele>325.857588</ele>
        <time>2021-05-26T15:14:48.181Z</time>
      </trkpt>
      <trkpt lat="42.835652" lon="13.508855">
        <ele>327.655223</ele>
        <time>2021-05-26T15:15:03.328Z</time>
      </trkpt>
      <trkpt lat="42.835869" lon="13.508725">
        <ele>329.711611</ele>
        <time>2021-05-26T15:15:18.594Z</time>
      </trkpt>
      <trkpt lat="42.836094" lon="13.508745">
        <ele>331.667885</ele>
        <time>2021-05-26T15:15:29.226Z</time>
      </trkpt>
      <trkpt lat="42.836264" lon="13.508861">
        <ele>333.317167</ele>
        <time>2021-05-26T15:15:45.799Z</time>
      </trkpt>
      <trkpt lat="42.836468" lon="13.508839">
        <ele>335.092625</ele>
        <time>2021-05-26T15:15:55.382Z</time>
      </trkpt>
      <trkpt lat="42.836697" lon="13.508508">
        <ele>337.987838</ele>
        <time>2021-05-26T15:16:17.490Z</time>
      </trkpt>
      <trkpt lat="42.836791" lon="13.508304">
        <ele>339.520688</ele>
        <time>2021-05-26T15:16:35.113Z</time>
      </trkpt>
      <trkpt lat="42.836862" lon="13.508321">
        <ele>340.145752</ele>
        <time>2021-05-26T15:16:40.691Z</time>
      </trkpt>
      <trkpt lat="42.837154" lon="13.508059">
        <ele>343.176462</ele>
        <time>2021-05-26T15:17:05.621Z</time>
      </trkpt>
      <trkpt lat="42.837232" lon="13.508024">
        <ele>343.888446</ele>
        <time>2021-05-26T15:17:09.837Z</time>
      </trkpt>
      <trkpt lat="42.837232" lon="13.508024">
        <ele>343.888446</ele>
        <time>2021-05-26T15:17:10.078Z</time>
      </trkpt>
      <trkpt lat="42.837232" lon="13.508024">
        <ele>343.888446</ele>
        <time>2021-05-26T15:17:10.108Z</time>
      </trkpt>
      <trkpt lat="42.837232" lon="13.508024">
        <ele>343.888446</ele>
        <time>2021-05-26T15:17:10.112Z</time>
      </trkpt>
      <trkpt lat="42.837238" lon="13.508050">
        <ele>344.061750</ele>
        <time>2021-05-26T15:17:10.970Z</time>
      </trkpt>
      <trkpt lat="42.837352" lon="13.508015">
        <ele>345.074948</ele>
        <time>2021-05-26T15:17:15.999Z</time>
      </trkpt>
      <trkpt lat="42.837447" lon="13.507981">
        <ele>345.926557</ele>
        <time>2021-05-26T15:17:20.240Z</time>
      </trkpt>
      <trkpt lat="42.837516" lon="13.508061">
        <ele>346.711832</ele>
        <time>2021-05-26T15:17:24.127Z</time>
      </trkpt>
      <trkpt lat="42.837400" lon="13.508241">
        <ele>348.235449</ele>
        <time>2021-05-26T15:17:31.661Z</time>
      </trkpt>
      <trkpt lat="42.837312" lon="13.508386">
        <ele>349.432171</ele>
        <time>2021-05-26T15:17:37.617Z</time>
      </trkpt>
      <trkpt lat="42.837323" lon="13.508514">
        <ele>350.251578</ele>
        <time>2021-05-26T15:17:41.671Z</time>
      </trkpt>
      <trkpt lat="42.837279" lon="13.508625">
        <ele>351.053845</ele>
        <time>2021-05-26T15:17:45.655Z</time>
      </trkpt>
      <trkpt lat="42.837251" lon="13.508760">
        <ele>351.945863</ele>
        <time>2021-05-26T15:17:50.109Z</time>
      </trkpt>
      <trkpt lat="42.837208" lon="13.508870">
        <ele>352.738428</ele>
        <time>2021-05-26T15:17:54.041Z</time>
      </trkpt>
      <trkpt lat="42.837247" lon="13.508696">
        <ele>353.895266</ele>
        <time>2021-05-26T15:17:59.761Z</time>
      </trkpt>
      <trkpt lat="42.837259" lon="13.508572">
        <ele>354.690507</ele>
        <time>2021-05-26T15:18:03.705Z</time>
      </trkpt>
      <trkpt lat="42.837306" lon="13.508451">
        <ele>355.463188</ele>
        <time>2021-05-26T15:18:08.023Z</time>
      </trkpt>
      <trkpt lat="42.837447" lon="13.508189">
        <ele>357.021848</ele>
        <time>2021-05-26T15:18:18.233Z</time>
      </trkpt>
      <trkpt lat="42.837481" lon="13.508074">
        <ele>357.616535</ele>
        <time>2021-05-26T15:18:22.147Z</time>
      </trkpt>
      <trkpt lat="42.837510" lon="13.507947">
        <ele>358.254481</ele>
        <time>2021-05-26T15:18:26.334Z</time>
      </trkpt>
      <trkpt lat="42.837410" lon="13.507930">
        <ele>358.913591</ele>
        <time>2021-05-26T15:18:30.644Z</time>
      </trkpt>
      <trkpt lat="42.837324" lon="13.507982">
        <ele>359.528882</ele>
        <time>2021-05-26T15:18:34.676Z</time>
      </trkpt>
      <trkpt lat="42.837238" lon="13.508049">
        <ele>360.176680</ele>
        <time>2021-05-26T15:18:38.926Z</time>
      </trkpt>
      <trkpt lat="42.837148" lon="13.508095">
        <ele>360.805308</ele>
        <time>2021-05-26T15:18:43.038Z</time>
      </trkpt>
      <trkpt lat="42.837053" lon="13.508156">
        <ele>361.492084</ele>
        <time>2021-05-26T15:18:47.534Z</time>
      </trkpt>
      <trkpt lat="42.836968" lon="13.508197">
        <ele>362.081777</ele>
        <time>2021-05-26T15:18:51.399Z</time>
      </trkpt>
      <trkpt lat="42.836882" lon="13.508263">
        <ele>362.727210</ele>
        <time>2021-05-26T15:18:55.629Z</time>
      </trkpt>
      <trkpt lat="42.836880" lon="13.508132">
        <ele>363.355633</ele>
        <time>2021-05-26T15:18:59.753Z</time>
      </trkpt>
      <trkpt lat="42.836933" lon="13.508006">
        <ele>364.052303</ele>
        <time>2021-05-26T15:19:04.324Z</time>
      </trkpt>
      <trkpt lat="42.836958" lon="13.507884">
        <ele>364.659842</ele>
        <time>2021-05-26T15:19:08.316Z</time>
      </trkpt>
      <trkpt lat="42.836997" lon="13.507755">
        <ele>365.329056</ele>
        <time>2021-05-26T15:19:12.709Z</time>
      </trkpt>
      <trkpt lat="42.837018" lon="13.507626">
        <ele>365.962812</ele>
        <time>2021-05-26T15:19:16.869Z</time>
      </trkpt>
      <trkpt lat="42.837073" lon="13.507652">
        <ele>366.343539</ele>
        <time>2021-05-26T15:19:19.371Z</time>
      </trkpt>
      <trkpt lat="42.837220" lon="13.507061">
        <ele>369.046765</ele>
        <time>2021-05-26T15:19:43.275Z</time>
      </trkpt>
      <trkpt lat="42.837266" lon="13.506539">
        <ele>371.265045</ele>
        <time>2021-05-26T15:20:01.415Z</time>
      </trkpt>
      <trkpt lat="42.837677" lon="13.505602">
        <ele>375.871750</ele>
        <time>2021-05-26T15:20:36.688Z</time>
      </trkpt>
      <trkpt lat="42.838086" lon="13.505189">
        <ele>379.510557</ele>
        <time>2021-05-26T15:21:01.333Z</time>
      </trkpt>
      <trkpt lat="42.838265" lon="13.505090">
        <ele>381.140066</ele>
        <time>2021-05-26T15:21:12.133Z</time>
      </trkpt>
      <trkpt lat="42.838494" lon="13.505089">
        <ele>383.071929</ele>
        <time>2021-05-26T15:21:24.771Z</time>
      </trkpt>
      <trkpt lat="42.838616" lon="13.505099">
        <ele>384.102983</ele>
        <time>2021-05-26T15:21:32.434Z</time>
      </trkpt>
      <trkpt lat="42.838768" lon="13.504897">
        <ele>385.893407</ele>
        <time>2021-05-26T15:21:45.629Z</time>
      </trkpt>
      <trkpt lat="42.838959" lon="13.504691">
        <ele>387.947685</ele>
        <time>2021-05-26T15:22:00.681Z</time>
      </trkpt>
      <trkpt lat="42.839227" lon="13.504558">
        <ele>390.353584</ele>
        <time>2021-05-26T15:22:21.276Z</time>
      </trkpt>
      <trkpt lat="42.839449" lon="13.504370">
        <ele>392.595211</ele>
        <time>2021-05-26T15:22:38.439Z</time>
      </trkpt>
      <trkpt lat="42.839500" lon="13.504334">
        <ele>393.244659</ele>
        <time>2021-05-26T15:22:44.137Z</time>
      </trkpt>
      <trkpt lat="42.839592" lon="13.504269">
        <ele>394.416435</ele>
        <time>2021-05-26T15:22:51.042Z</time>
      </trkpt>
      <trkpt lat="42.839828" lon="13.504295">
        <ele>397.094091</ele>
        <time>2021-05-26T15:23:10.003Z</time>
      </trkpt>
      <trkpt lat="42.840161" lon="13.504252">
        <ele>400.876885</ele>
        <time>2021-05-26T15:23:37.448Z</time>
      </trkpt>
      <trkpt lat="42.840368" lon="13.504217">
        <ele>403.235805</ele>
        <time>2021-05-26T15:23:52.743Z</time>
      </trkpt>
      <trkpt lat="42.840451" lon="13.504214">
        <ele>404.174795</ele>
        <time>2021-05-26T15:24:00.181Z</time>
      </trkpt>
      <trkpt lat="42.840608" lon="13.504209">
        <ele>405.950817</ele>
        <time>2021-05-26T15:24:14.375Z</time>
      </trkpt>
      <trkpt lat="42.841095" lon="13.504131">
        <ele>411.496228</ele>
        <time>2021-05-26T15:24:50.309Z</time>
      </trkpt>
      <trkpt lat="42.841261" lon="13.504112">
        <ele>413.201958</ele>
        <time>2021-05-26T15:25:03.646Z</time>
      </trkpt>
      <trkpt lat="42.841947" lon="13.504033">
        <ele>418.636009</ele>
        <time>2021-05-26T15:25:47.289Z</time>
      </trkpt>
      <trkpt lat="42.842271" lon="13.503973">
        <ele>421.216895</ele>
        <time>2021-05-26T15:26:05.697Z</time>
      </trkpt>
      <trkpt lat="42.842693" lon="13.503744">
        <ele>424.801841</ele>
        <time>2021-05-26T15:26:29.846Z</time>
      </trkpt>
      <trkpt lat="42.843039" lon="13.503751">
        <ele>427.390963</ele>
        <time>2021-05-26T15:26:46.775Z</time>
      </trkpt>
      <trkpt lat="42.843117" lon="13.503673">
        <ele>427.955444</ele>
        <time>2021-05-26T15:26:51.487Z</time>
      </trkpt>
      <trkpt lat="42.843304" lon="13.503423">
        <ele>429.483703</ele>
        <time>2021-05-26T15:27:03.139Z</time>
      </trkpt>
      <trkpt lat="42.843461" lon="13.503259">
        <ele>430.637864</ele>
        <time>2021-05-26T15:27:12.193Z</time>
      </trkpt>
      <trkpt lat="42.843662" lon="13.503040">
        <ele>432.139315</ele>
        <time>2021-05-26T15:27:22.917Z</time>
      </trkpt>
      <trkpt lat="42.843806" lon="13.503014">
        <ele>432.987063</ele>
        <time>2021-05-26T15:27:29.408Z</time>
      </trkpt>
      <trkpt lat="42.844409" lon="13.503180">
        <ele>436.577277</ele>
        <time>2021-05-26T15:28:01.304Z</time>
      </trkpt>
      <trkpt lat="42.844711" lon="13.503055">
        <ele>438.386117</ele>
        <time>2021-05-26T15:28:17.010Z</time>
      </trkpt>
      <trkpt lat="42.845005" lon="13.503111">
        <ele>440.057304</ele>
        <time>2021-05-26T15:28:33.749Z</time>
      </trkpt>
      <trkpt lat="42.845210" lon="13.503192">
        <ele>441.258840</ele>
        <time>2021-05-26T15:28:42.718Z</time>
      </trkpt>
      <trkpt lat="42.845248" lon="13.503208">
        <ele>441.482730</ele>
        <time>2021-05-26T15:28:47.217Z</time>
      </trkpt>
      <trkpt lat="42.845528" lon="13.503266">
        <ele>443.077114</ele>
        <time>2021-05-26T15:28:58.672Z</time>
      </trkpt>
      <trkpt lat="42.845732" lon="13.503205">
        <ele>444.252843</ele>
        <time>2021-05-26T15:29:09.689Z</time>
      </trkpt>
      <trkpt lat="42.845934" lon="13.503018">
        <ele>445.627244</ele>
        <time>2021-05-26T15:29:22.078Z</time>
      </trkpt>
      <trkpt lat="42.846037" lon="13.502843">
        <ele>446.553522</ele>
        <time>2021-05-26T15:29:27.868Z</time>
      </trkpt>
      <trkpt lat="42.846135" lon="13.502516">
        <ele>447.600352</ele>
        <time>2021-05-26T15:29:40.328Z</time>
      </trkpt>
      <trkpt lat="42.846261" lon="13.502408">
        <ele>447.579323</ele>
        <time>2021-05-26T15:29:46.916Z</time>
      </trkpt>
      <trkpt lat="42.846455" lon="13.502369">
        <ele>447.551613</ele>
        <time>2021-05-26T15:29:58.389Z</time>
      </trkpt>
      <trkpt lat="42.846953" lon="13.502404">
        <ele>447.481148</ele>
        <time>2021-05-26T15:30:15.826Z</time>
      </trkpt>
      <trkpt lat="42.847031" lon="13.502273">
        <ele>447.463665</ele>
        <time>2021-05-26T15:30:19.784Z</time>
      </trkpt>
      <trkpt lat="42.847050" lon="13.501680">
        <ele>447.402170</ele>
        <time>2021-05-26T15:30:31.929Z</time>
      </trkpt>
      <trkpt lat="42.847229" lon="13.501433">
        <ele>447.366189</ele>
        <time>2021-05-26T15:30:38.269Z</time>
      </trkpt>
      <trkpt lat="42.847998" lon="13.501518">
        <ele>442.513103</ele>
        <time>2021-05-26T15:30:56.223Z</time>
      </trkpt>
      <trkpt lat="42.848427" lon="13.501309">
        <ele>439.366958</ele>
        <time>2021-05-26T15:31:06.389Z</time>
      </trkpt>
      <trkpt lat="42.848608" lon="13.501164">
        <ele>437.917246</ele>
        <time>2021-05-26T15:31:10.994Z</time>
      </trkpt>
      <trkpt lat="42.849282" lon="13.500033">
        <ele>431.583386</ele>
        <time>2021-05-26T15:31:34.875Z</time>
      </trkpt>
      <trkpt lat="42.849418" lon="13.499720">
        <ele>430.179413</ele>
        <time>2021-05-26T15:31:41.160Z</time>
      </trkpt>
      <trkpt lat="42.849426" lon="13.499533">
        <ele>429.456599</ele>
        <time>2021-05-26T15:31:44.482Z</time>
      </trkpt>
      <trkpt lat="42.849361" lon="13.499332">
        <ele>428.608889</ele>
        <time>2021-05-26T15:31:48.404Z</time>
      </trkpt>
      <trkpt lat="42.849425" lon="13.499276">
        <ele>428.208685</ele>
        <time>2021-05-26T15:31:50.243Z</time>
      </trkpt>
      <trkpt lat="42.850396" lon="13.499661">
        <ele>425.461787</ele>
        <time>2021-05-26T15:32:17.464Z</time>
      </trkpt>
      <trkpt lat="42.850539" lon="13.499888">
        <ele>425.459267</ele>
        <time>2021-05-26T15:32:24.323Z</time>
      </trkpt>
      <trkpt lat="42.850638" lon="13.500209">
        <ele>425.456336</ele>
        <time>2021-05-26T15:32:32.904Z</time>
      </trkpt>
      <trkpt lat="42.850715" lon="13.501021">
        <ele>425.449443</ele>
        <time>2021-05-26T15:32:56.354Z</time>
      </trkpt>
      <trkpt lat="42.850766" lon="13.501221">
        <ele>425.447660</ele>
        <time>2021-05-26T15:33:02.233Z</time>
      </trkpt>
      <trkpt lat="42.850906" lon="13.501490">
        <ele>426.019544</ele>
        <time>2021-05-26T15:33:11.671Z</time>
      </trkpt>
      <trkpt lat="42.850976" lon="13.501487">
        <ele>426.264434</ele>
        <time>2021-05-26T15:33:14.138Z</time>
      </trkpt>
      <trkpt lat="42.851150" lon="13.501213">
        <ele>427.193711</ele>
        <time>2021-05-26T15:33:25.251Z</time>
      </trkpt>
      <trkpt lat="42.851434" lon="13.501061">
        <ele>428.260486</ele>
        <time>2021-05-26T15:33:38.541Z</time>
      </trkpt>
      <trkpt lat="42.852010" lon="13.501018">
        <ele>430.277604</ele>
        <time>2021-05-26T15:34:05.450Z</time>
      </trkpt>
      <trkpt lat="42.852256" lon="13.500716">
        <ele>431.434871</ele>
        <time>2021-05-26T15:34:23.420Z</time>
      </trkpt>
      <trkpt lat="42.853128" lon="13.500544">
        <ele>439.947859</ele>
        <time>2021-05-26T15:35:30.059Z</time>
      </trkpt>
      <trkpt lat="42.853539" lon="13.500526">
        <ele>444.195775</ele>
        <time>2021-05-26T15:36:06.141Z</time>
      </trkpt>
      <trkpt lat="42.853853" lon="13.500556">
        <ele>447.447417</ele>
        <time>2021-05-26T15:36:34.297Z</time>
      </trkpt>
      <trkpt lat="42.853952" lon="13.500639">
        <ele>448.647829</ele>
        <time>2021-05-26T15:36:46.764Z</time>
      </trkpt>
      <trkpt lat="42.854610" lon="13.501130">
        <ele>457.698305</ele>
        <time>2021-05-26T15:37:52.599Z</time>
      </trkpt>
      <trkpt lat="42.854860" lon="13.501666">
        <ele>463.540189</ele>
        <time>2021-05-26T15:38:35.114Z</time>
      </trkpt>
      <trkpt lat="42.854985" lon="13.501695">
        <ele>465.130676</ele>
        <time>2021-05-26T15:38:45.836Z</time>
      </trkpt>
      <trkpt lat="42.855096" lon="13.501861">
        <ele>467.196771</ele>
        <time>2021-05-26T15:39:01.725Z</time>
      </trkpt>
      <trkpt lat="42.856056" lon="13.502778">
        <ele>476.781670</ele>
        <time>2021-05-26T15:40:21.128Z</time>
      </trkpt>
      <trkpt lat="42.856585" lon="13.503356">
        <ele>480.461093</ele>
        <time>2021-05-26T15:40:51.405Z</time>
      </trkpt>
      <trkpt lat="42.856951" lon="13.504513">
        <ele>480.175679</ele>
        <time>2021-05-26T15:41:09.093Z</time>
      </trkpt>
      <trkpt lat="42.857111" lon="13.504725">
        <ele>479.121343</ele>
        <time>2021-05-26T15:41:12.573Z</time>
      </trkpt>
      <trkpt lat="42.857260" lon="13.504901">
        <ele>478.189694</ele>
        <time>2021-05-26T15:41:15.227Z</time>
      </trkpt>
      <trkpt lat="42.857948" lon="13.505204">
        <ele>474.772311</ele>
        <time>2021-05-26T15:41:24.899Z</time>
      </trkpt>
      <trkpt lat="42.858107" lon="13.505337">
        <ele>473.723430</ele>
        <time>2021-05-26T15:41:27.420Z</time>
      </trkpt>
      <trkpt lat="42.858107" lon="13.505337">
        <ele>473.723430</ele>
        <time>2021-05-26T15:41:27.500Z</time>
      </trkpt>
      <trkpt lat="42.858107" lon="13.505337">
        <ele>473.723430</ele>
        <time>2021-05-26T15:41:27.513Z</time>
      </trkpt>
      <trkpt lat="42.858758" lon="13.506038">
        <ele>467.179403</ele>
        <time>2021-05-26T15:42:03.149Z</time>
      </trkpt>
      <trkpt lat="42.859408" lon="13.506738">
        <ele>460.645178</ele>
        <time>2021-05-26T15:42:38.646Z</time>
      </trkpt>
      <trkpt lat="42.859445" lon="13.506798">
        <ele>460.191679</ele>
        <time>2021-05-26T15:42:39.450Z</time>
      </trkpt>
      <trkpt lat="42.859494" lon="13.506894">
        <ele>459.793723</ele>
        <time>2021-05-26T15:42:40.519Z</time>
      </trkpt>
      <trkpt lat="42.859653" lon="13.507133">
        <ele>459.126672</ele>
        <time>2021-05-26T15:42:44.028Z</time>
      </trkpt>
      <trkpt lat="42.859974" lon="13.507193">
        <ele>458.213166</ele>
        <time>2021-05-26T15:42:48.602Z</time>
      </trkpt>
      <trkpt lat="42.860249" lon="13.507367">
        <ele>457.358476</ele>
        <time>2021-05-26T15:42:52.969Z</time>
      </trkpt>
      <trkpt lat="42.860387" lon="13.507597">
        <ele>456.744196</ele>
        <time>2021-05-26T15:42:56.471Z</time>
      </trkpt>
      <trkpt lat="42.860433" lon="13.507672">
        <ele>456.542089</ele>
        <time>2021-05-26T15:42:57.440Z</time>
      </trkpt>
      <trkpt lat="42.860550" lon="13.508100">
        <ele>455.598029</ele>
        <time>2021-05-26T15:43:03.562Z</time>
      </trkpt>
      <trkpt lat="42.860744" lon="13.508526">
        <ele>455.370312</ele>
        <time>2021-05-26T15:43:15.675Z</time>
      </trkpt>
      <trkpt lat="42.861025" lon="13.509389">
        <ele>458.415466</ele>
        <time>2021-05-26T15:43:39.374Z</time>
      </trkpt>
      <trkpt lat="42.861499" lon="13.509632">
        <ele>460.643110</ele>
        <time>2021-05-26T15:43:59.191Z</time>
      </trkpt>
      <trkpt lat="42.862060" lon="13.510138">
        <ele>464.710114</ele>
        <time>2021-05-26T15:44:39.319Z</time>
      </trkpt>
      <trkpt lat="42.862152" lon="13.510377">
        <ele>466.769547</ele>
        <time>2021-05-26T15:44:52.482Z</time>
      </trkpt>
      <trkpt lat="42.862329" lon="13.511246">
        <ele>473.650209</ele>
        <time>2021-05-26T15:45:39.490Z</time>
      </trkpt>
      <trkpt lat="42.862345" lon="13.511469">
        <ele>475.359571</ele>
        <time>2021-05-26T15:45:50.722Z</time>
      </trkpt>
      <trkpt lat="42.862489" lon="13.511466">
        <ele>476.858473</ele>
        <time>2021-05-26T15:46:03.684Z</time>
      </trkpt>
      <trkpt lat="42.863365" lon="13.511374">
        <ele>486.887052</ele>
        <time>2021-05-26T15:47:15.374Z</time>
      </trkpt>
      <trkpt lat="42.863513" lon="13.511513">
        <ele>489.125233</ele>
        <time>2021-05-26T15:47:32.117Z</time>
      </trkpt>
      <trkpt lat="42.863759" lon="13.512092">
        <ele>495.235633</ele>
        <time>2021-05-26T15:48:13.988Z</time>
      </trkpt>
      <trkpt lat="42.863851" lon="13.512131">
        <ele>496.435686</ele>
        <time>2021-05-26T15:48:21.601Z</time>
      </trkpt>
      <trkpt lat="42.863898" lon="13.512010">
        <ele>497.685999</ele>
        <time>2021-05-26T15:48:29.643Z</time>
      </trkpt>
      <trkpt lat="42.863895" lon="13.511678">
        <ele>500.717500</ele>
        <time>2021-05-26T15:48:50.774Z</time>
      </trkpt>
      <trkpt lat="42.863969" lon="13.511305">
        <ele>504.114781</ele>
        <time>2021-05-26T15:49:13.957Z</time>
      </trkpt>
      <trkpt lat="42.864264" lon="13.510388">
        <ele>509.637455</ele>
        <time>2021-05-26T15:50:07.149Z</time>
      </trkpt>
      <trkpt lat="42.864230" lon="13.509868">
        <ele>512.516510</ele>
        <time>2021-05-26T15:50:28.730Z</time>
      </trkpt>
      <trkpt lat="42.864275" lon="13.509778">
        <ele>513.117320</ele>
        <time>2021-05-26T15:50:36.283Z</time>
      </trkpt>
      <trkpt lat="42.864564" lon="13.509709">
        <ele>515.324760</ele>
        <time>2021-05-26T15:50:46.602Z</time>
      </trkpt>
      <trkpt lat="42.864796" lon="13.509653">
        <ele>517.097404</ele>
        <time>2021-05-26T15:50:56.958Z</time>
      </trkpt>
      <trkpt lat="42.865121" lon="13.509565">
        <ele>516.985194</ele>
        <time>2021-05-26T15:51:07.699Z</time>
      </trkpt>
      <trkpt lat="42.865222" lon="13.509538">
        <ele>516.817956</ele>
        <time>2021-05-26T15:51:09.324Z</time>
      </trkpt>
      <trkpt lat="42.866199" lon="13.509251">
        <ele>515.194021</ele>
        <time>2021-05-26T15:51:25.804Z</time>
      </trkpt>
      <trkpt lat="42.866316" lon="13.509149">
        <ele>514.968407</ele>
        <time>2021-05-26T15:51:27.776Z</time>
      </trkpt>
      <trkpt lat="42.866403" lon="13.509035">
        <ele>514.772399</ele>
        <time>2021-05-26T15:51:29.511Z</time>
      </trkpt>
      <trkpt lat="42.866674" lon="13.508682">
        <ele>513.447823</ele>
        <time>2021-05-26T15:51:34.716Z</time>
      </trkpt>
      <trkpt lat="42.867063" lon="13.508003">
        <ele>510.390067</ele>
        <time>2021-05-26T15:51:43.677Z</time>
      </trkpt>
      <trkpt lat="42.867180" lon="13.507910">
        <ele>509.734580</ele>
        <time>2021-05-26T15:51:45.681Z</time>
      </trkpt>
      <trkpt lat="42.867550" lon="13.507953">
        <ele>507.936980</ele>
        <time>2021-05-26T15:51:50.921Z</time>
      </trkpt>
      <trkpt lat="42.867692" lon="13.507926">
        <ele>507.242936</ele>
        <time>2021-05-26T15:51:52.881Z</time>
      </trkpt>
      <trkpt lat="42.867680" lon="13.507843">
        <ele>506.942779</ele>
        <time>2021-05-26T15:51:53.753Z</time>
      </trkpt>
      <trkpt lat="42.867762" lon="13.507646">
        <ele>506.138972</ele>
        <time>2021-05-26T15:51:56.285Z</time>
      </trkpt>
      <trkpt lat="42.868127" lon="13.507263">
        <ele>503.481707</ele>
        <time>2021-05-26T15:52:02.885Z</time>
      </trkpt>
      <trkpt lat="42.868302" lon="13.507005">
        <ele>501.954589</ele>
        <time>2021-05-26T15:52:06.733Z</time>
      </trkpt>
      <trkpt lat="42.868989" lon="13.506624">
        <ele>497.559084</ele>
        <time>2021-05-26T15:52:16.741Z</time>
      </trkpt>
      <trkpt lat="42.869141" lon="13.506372">
        <ele>496.141311</ele>
        <time>2021-05-26T15:52:19.931Z</time>
      </trkpt>
      <trkpt lat="42.869562" lon="13.506046">
        <ele>492.759374</ele>
        <time>2021-05-26T15:52:26.667Z</time>
      </trkpt>
      <trkpt lat="42.869578" lon="13.505957">
        <ele>492.253022</ele>
        <time>2021-05-26T15:52:27.652Z</time>
      </trkpt>
      <trkpt lat="42.869568" lon="13.505936">
        <ele>492.114645</ele>
        <time>2021-05-26T15:52:27.864Z</time>
      </trkpt>
      <trkpt lat="42.869554" lon="13.505921">
        <ele>491.980442</ele>
        <time>2021-05-26T15:52:28.083Z</time>
      </trkpt>
      <trkpt lat="42.868769" lon="13.505867">
        <ele>486.054627</ele>
        <time>2021-05-26T15:52:38.557Z</time>
      </trkpt>
      <trkpt lat="42.868727" lon="13.505827">
        <ele>485.668470</ele>
        <time>2021-05-26T15:52:39.255Z</time>
      </trkpt>
      <trkpt lat="42.868752" lon="13.505711">
        <ele>485.000362</ele>
        <time>2021-05-26T15:52:40.492Z</time>
      </trkpt>
      <trkpt lat="42.869193" lon="13.505574">
        <ele>481.588753</ele>
        <time>2021-05-26T15:52:46.419Z</time>
      </trkpt>
      <trkpt lat="42.869846" lon="13.505212">
        <ele>474.871654</ele>
        <time>2021-05-26T15:52:55.510Z</time>
      </trkpt>
      <trkpt lat="42.870577" lon="13.504993">
        <ele>467.739299</ele>
        <time>2021-05-26T15:53:04.998Z</time>
      </trkpt>
      <trkpt lat="42.870652" lon="13.504899">
        <ele>466.768782</ele>
        <time>2021-05-26T15:53:06.255Z</time>
      </trkpt>
      <trkpt lat="42.870655" lon="13.504697">
        <ele>465.357637</ele>
        <time>2021-05-26T15:53:08.148Z</time>
      </trkpt>
      <trkpt lat="42.870472" lon="13.503553">
        <ele>457.173166</ele>
        <time>2021-05-26T15:53:19.126Z</time>
      </trkpt>
      <trkpt lat="42.870450" lon="13.503417">
        <ele>456.199594</ele>
        <time>2021-05-26T15:53:20.412Z</time>
      </trkpt>
      <trkpt lat="42.870322" lon="13.502777">
        <ele>451.562164</ele>
        <time>2021-05-26T15:53:26.694Z</time>
      </trkpt>
      <trkpt lat="42.870392" lon="13.502350">
        <ele>448.503513</ele>
        <time>2021-05-26T15:53:30.759Z</time>
      </trkpt>
      <trkpt lat="42.870497" lon="13.502223">
        <ele>447.185822</ele>
        <time>2021-05-26T15:53:32.650Z</time>
      </trkpt>
      <trkpt lat="42.870648" lon="13.502184">
        <ele>445.943696</ele>
        <time>2021-05-26T15:53:34.566Z</time>
      </trkpt>
      <trkpt lat="42.871254" lon="13.502443">
        <ele>440.811062</ele>
        <time>2021-05-26T15:53:43.116Z</time>
      </trkpt>
      <trkpt lat="42.871308" lon="13.502466">
        <ele>440.353838</ele>
        <time>2021-05-26T15:53:43.860Z</time>
      </trkpt>
      <trkpt lat="42.871426" lon="13.502437">
        <ele>439.384760</ele>
        <time>2021-05-26T15:53:45.544Z</time>
      </trkpt>
      <trkpt lat="42.871505" lon="13.502313">
        <ele>438.411512</ele>
        <time>2021-05-26T15:53:47.115Z</time>
      </trkpt>
      <trkpt lat="42.871505" lon="13.502284">
        <ele>438.239731</ele>
        <time>2021-05-26T15:53:47.369Z</time>
      </trkpt>
      <trkpt lat="42.871496" lon="13.501176">
        <ele>431.971446</ele>
        <time>2021-05-26T15:53:58.091Z</time>
      </trkpt>
      <trkpt lat="42.871387" lon="13.500851">
        <ele>430.429623</ele>
        <time>2021-05-26T15:54:01.461Z</time>
      </trkpt>
      <trkpt lat="42.871445" lon="13.500689">
        <ele>429.651851</ele>
        <time>2021-05-26T15:54:03.279Z</time>
      </trkpt>
      <trkpt lat="42.871519" lon="13.500631">
        <ele>429.149532</ele>
        <time>2021-05-26T15:54:04.518Z</time>
      </trkpt>
      <trkpt lat="42.871599" lon="13.500650">
        <ele>428.671563</ele>
        <time>2021-05-26T15:54:05.642Z</time>
      </trkpt>
      <trkpt lat="42.871658" lon="13.500679">
        <ele>428.302437</ele>
        <time>2021-05-26T15:54:06.373Z</time>
      </trkpt>
      <trkpt lat="42.871696" lon="13.500776">
        <ele>427.827968</ele>
        <time>2021-05-26T15:54:07.696Z</time>
      </trkpt>
      <trkpt lat="42.871707" lon="13.500852">
        <ele>427.493786</ele>
        <time>2021-05-26T15:54:08.522Z</time>
      </trkpt>
      <trkpt lat="42.871742" lon="13.500984">
        <ele>426.888242</ele>
        <time>2021-05-26T15:54:10.142Z</time>
      </trkpt>
      <trkpt lat="42.871768" lon="13.500806">
        <ele>426.105282</ele>
        <time>2021-05-26T15:54:11.848Z</time>
      </trkpt>
      <trkpt lat="42.871813" lon="13.500635">
        <ele>425.321508</ele>
        <time>2021-05-26T15:54:13.967Z</time>
      </trkpt>
      <trkpt lat="42.871882" lon="13.500496">
        <ele>424.597289</ele>
        <time>2021-05-26T15:54:15.879Z</time>
      </trkpt>
      <trkpt lat="42.872125" lon="13.499441">
        <ele>423.100946</ele>
        <time>2021-05-26T15:54:27.810Z</time>
      </trkpt>
      <trkpt lat="42.872087" lon="13.498694">
        <ele>424.372840</ele>
        <time>2021-05-26T15:54:39.817Z</time>
      </trkpt>
      <trkpt lat="42.871908" lon="13.498267">
        <ele>425.208406</ele>
        <time>2021-05-26T15:54:55.459Z</time>
      </trkpt>
      <trkpt lat="42.871763" lon="13.497545">
        <ele>426.778324</ele>
        <time>2021-05-26T15:55:28.570Z</time>
      </trkpt>
      <trkpt lat="42.871666" lon="13.497308">
        <ele>428.255743</ele>
        <time>2021-05-26T15:55:42.066Z</time>
      </trkpt>
      <trkpt lat="42.871478" lon="13.497119">
        <ele>429.989927</ele>
        <time>2021-05-26T15:55:54.919Z</time>
      </trkpt>
      <trkpt lat="42.871433" lon="13.496994">
        <ele>430.747906</ele>
        <time>2021-05-26T15:56:01.231Z</time>
      </trkpt>
      <trkpt lat="42.871449" lon="13.496964">
        <ele>430.949844</ele>
        <time>2021-05-26T15:56:04.992Z</time>
      </trkpt>
      <trkpt lat="42.871465" lon="13.496933">
        <ele>431.156207</ele>
        <time>2021-05-26T15:56:08.320Z</time>
      </trkpt>
      <trkpt lat="42.871528" lon="13.496929">
        <ele>431.624575</ele>
        <time>2021-05-26T15:56:11.283Z</time>
      </trkpt>
      <trkpt lat="42.871883" lon="13.497330">
        <ele>435.047101</ele>
        <time>2021-05-26T15:56:37.104Z</time>
      </trkpt>
      <trkpt lat="42.871973" lon="13.497309">
        <ele>435.725176</ele>
        <time>2021-05-26T15:56:41.910Z</time>
      </trkpt>
      <trkpt lat="42.872095" lon="13.497355">
        <ele>436.665148</ele>
        <time>2021-05-26T15:56:53.504Z</time>
      </trkpt>
      <trkpt lat="42.872240" lon="13.497526">
        <ele>438.088426</ele>
        <time>2021-05-26T15:57:00.070Z</time>
      </trkpt>
      <trkpt lat="42.872634" lon="13.497781">
        <ele>439.737990</ele>
        <time>2021-05-26T15:57:21.882Z</time>
      </trkpt>
      <trkpt lat="42.872796" lon="13.497691">
        <ele>439.766724</ele>
        <time>2021-05-26T15:57:31.930Z</time>
      </trkpt>
      <trkpt lat="42.872922" lon="13.497285">
        <ele>439.819805</ele>
        <time>2021-05-26T15:57:41.583Z</time>
      </trkpt>
      <trkpt lat="42.873100" lon="13.497089">
        <ele>439.857380</ele>
        <time>2021-05-26T15:57:46.487Z</time>
      </trkpt>
      <trkpt lat="42.873581" lon="13.496863">
        <ele>439.940950</ele>
        <time>2021-05-26T15:57:54.616Z</time>
      </trkpt>
      <trkpt lat="42.873946" lon="13.496607">
        <ele>439.787049</ele>
        <time>2021-05-26T15:58:00.277Z</time>
      </trkpt>
      <trkpt lat="42.874577" lon="13.495864">
        <ele>437.130074</ele>
        <time>2021-05-26T15:58:12.387Z</time>
      </trkpt>
      <trkpt lat="42.874937" lon="13.495559">
        <ele>435.779217</ele>
        <time>2021-05-26T15:58:18.792Z</time>
      </trkpt>
      <trkpt lat="42.875038" lon="13.495395">
        <ele>435.278751</ele>
        <time>2021-05-26T15:58:21.011Z</time>
      </trkpt>
      <trkpt lat="42.875190" lon="13.494909">
        <ele>434.428808</ele>
        <time>2021-05-26T15:58:28.307Z</time>
      </trkpt>
      <trkpt lat="42.875277" lon="13.494468">
        <ele>435.232267</ele>
        <time>2021-05-26T15:58:36.154Z</time>
      </trkpt>
      <trkpt lat="42.875385" lon="13.494207">
        <ele>435.759577</ele>
        <time>2021-05-26T15:58:45.115Z</time>
      </trkpt>
      <trkpt lat="42.875461" lon="13.494114">
        <ele>436.004641</ele>
        <time>2021-05-26T15:58:46.904Z</time>
      </trkpt>
      <trkpt lat="42.875640" lon="13.494054">
        <ele>436.447128</ele>
        <time>2021-05-26T15:58:53.163Z</time>
      </trkpt>
      <trkpt lat="42.875871" lon="13.494093">
        <ele>437.005902</ele>
        <time>2021-05-26T15:59:01.703Z</time>
      </trkpt>
      <trkpt lat="42.875985" lon="13.494112">
        <ele>437.281608</ele>
        <time>2021-05-26T15:59:06.338Z</time>
      </trkpt>
      <trkpt lat="42.875923" lon="13.494056">
        <ele>437.460098</ele>
        <time>2021-05-26T15:59:12.210Z</time>
      </trkpt>
      <trkpt lat="42.875470" lon="13.493924">
        <ele>438.572102</ele>
        <time>2021-05-26T15:59:30.830Z</time>
      </trkpt>
      <trkpt lat="42.875246" lon="13.494066">
        <ele>438.749321</ele>
        <time>2021-05-26T15:59:40.276Z</time>
      </trkpt>
      <trkpt lat="42.875208" lon="13.494007">
        <ele>438.789062</ele>
        <time>2021-05-26T15:59:42.160Z</time>
      </trkpt>
      <trkpt lat="42.875231" lon="13.493940">
        <ele>438.826495</ele>
        <time>2021-05-26T15:59:43.599Z</time>
      </trkpt>
      <trkpt lat="42.875419" lon="13.493703">
        <ele>439.003199</ele>
        <time>2021-05-26T15:59:52.784Z</time>
      </trkpt>
      <trkpt lat="42.875368" lon="13.493658">
        <ele>439.045128</ele>
        <time>2021-05-26T15:59:54.270Z</time>
      </trkpt>
      <trkpt lat="42.875299" lon="13.493708">
        <ele>439.099065</ele>
        <time>2021-05-26T15:59:56.019Z</time>
      </trkpt>
      <trkpt lat="42.875206" lon="13.493776">
        <ele>439.171908</ele>
        <time>2021-05-26T15:59:58.417Z</time>
      </trkpt>
      <trkpt lat="42.875086" lon="13.493971">
        <ele>439.300738</ele>
        <time>2021-05-26T16:00:05.219Z</time>
      </trkpt>
      <trkpt lat="42.875206" lon="13.493776">
        <ele>439.429568</ele>
        <time>2021-05-26T16:00:07.987Z</time>
      </trkpt>
      <trkpt lat="42.875299" lon="13.493708">
        <ele>439.502411</ele>
        <time>2021-05-26T16:00:09.606Z</time>
      </trkpt>
      <trkpt lat="42.875368" lon="13.493658">
        <ele>439.556348</ele>
        <time>2021-05-26T16:00:10.800Z</time>
      </trkpt>
      <trkpt lat="42.875419" lon="13.493703">
        <ele>439.598278</ele>
        <time>2021-05-26T16:00:12.353Z</time>
      </trkpt>
      <trkpt lat="42.875231" lon="13.493940">
        <ele>439.774982</ele>
        <time>2021-05-26T16:00:16.348Z</time>
      </trkpt>
      <trkpt lat="42.875208" lon="13.494007">
        <ele>439.812415</ele>
        <time>2021-05-26T16:00:17.338Z</time>
      </trkpt>
      <trkpt lat="42.875246" lon="13.494066">
        <ele>439.832059</ele>
        <time>2021-05-26T16:00:18.945Z</time>
      </trkpt>
      <trkpt lat="42.875470" lon="13.493924">
        <ele>439.883951</ele>
        <time>2021-05-26T16:00:22.944Z</time>
      </trkpt>
      <trkpt lat="42.875923" lon="13.494056">
        <ele>439.981271</ele>
        <time>2021-05-26T16:00:31.736Z</time>
      </trkpt>
      <trkpt lat="42.875985" lon="13.494112">
        <ele>439.996892</ele>
        <time>2021-05-26T16:00:32.797Z</time>
      </trkpt>
      <trkpt lat="42.876204" lon="13.494206">
        <ele>440.045125</ele>
        <time>2021-05-26T16:00:38.451Z</time>
      </trkpt>
      <trkpt lat="42.876602" lon="13.494333">
        <ele>440.130999</ele>
        <time>2021-05-26T16:00:52.160Z</time>
      </trkpt>
      <trkpt lat="42.876763" lon="13.494317">
        <ele>440.164914</ele>
        <time>2021-05-26T16:00:55.570Z</time>
      </trkpt>
      <trkpt lat="42.876969" lon="13.494156">
        <ele>440.287992</ele>
        <time>2021-05-26T16:01:03.586Z</time>
      </trkpt>
      <trkpt lat="42.877071" lon="13.493921">
        <ele>440.555830</ele>
        <time>2021-05-26T16:01:07.514Z</time>
      </trkpt>
      <trkpt lat="42.877022" lon="13.493573">
        <ele>440.903333</ele>
        <time>2021-05-26T16:01:15.577Z</time>
      </trkpt>
      <trkpt lat="42.877094" lon="13.493434">
        <ele>441.070255</ele>
        <time>2021-05-26T16:01:18.034Z</time>
      </trkpt>
      <trkpt lat="42.877242" lon="13.493329">
        <ele>441.293472</ele>
        <time>2021-05-26T16:01:26.896Z</time>
      </trkpt>
      <trkpt lat="42.877375" lon="13.493235">
        <ele>441.493903</ele>
        <time>2021-05-26T16:01:31.704Z</time>
      </trkpt>
      <trkpt lat="42.877990" lon="13.492736">
        <ele>442.451366</ele>
        <time>2021-05-26T16:01:51.433Z</time>
      </trkpt>
      <trkpt lat="42.878099" lon="13.492542">
        <ele>442.334615</ele>
        <time>2021-05-26T16:01:55.352Z</time>
      </trkpt>
      <trkpt lat="42.878076" lon="13.492386">
        <ele>441.820769</ele>
        <time>2021-05-26T16:01:57.250Z</time>
      </trkpt>
      <trkpt lat="42.877637" lon="13.491762">
        <ele>439.027462</ele>
        <time>2021-05-26T16:02:06.707Z</time>
      </trkpt>
      <trkpt lat="42.877610" lon="13.491587">
        <ele>438.449963</ele>
        <time>2021-05-26T16:02:08.516Z</time>
      </trkpt>
      <trkpt lat="42.877718" lon="13.491453">
        <ele>437.806742</ele>
        <time>2021-05-26T16:02:10.512Z</time>
      </trkpt>
      <trkpt lat="42.878092" lon="13.491525">
        <ele>436.142352</ele>
        <time>2021-05-26T16:02:15.659Z</time>
      </trkpt>
      <trkpt lat="42.878268" lon="13.491417">
        <ele>435.291985</ele>
        <time>2021-05-26T16:02:18.267Z</time>
      </trkpt>
      <trkpt lat="42.878505" lon="13.490978">
        <ele>433.202866</ele>
        <time>2021-05-26T16:02:23.731Z</time>
      </trkpt>
      <trkpt lat="42.878783" lon="13.490402">
        <ele>430.340296</ele>
        <time>2021-05-26T16:02:30.668Z</time>
      </trkpt>
      <trkpt lat="42.878806" lon="13.490433">
        <ele>430.157201</ele>
        <time>2021-05-26T16:02:31.051Z</time>
      </trkpt>
      <trkpt lat="42.879137" lon="13.491179">
        <ele>426.537676</ele>
        <time>2021-05-26T16:02:39.287Z</time>
      </trkpt>
      <trkpt lat="42.879257" lon="13.491298">
        <ele>425.697519</ele>
        <time>2021-05-26T16:02:41.207Z</time>
      </trkpt>
      <trkpt lat="42.879542" lon="13.491363">
        <ele>424.440921</ele>
        <time>2021-05-26T16:02:45.175Z</time>
      </trkpt>
      <trkpt lat="42.880062" lon="13.491075">
        <ele>424.044978</ele>
        <time>2021-05-26T16:02:53.713Z</time>
      </trkpt>
      <trkpt lat="42.880227" lon="13.490985">
        <ele>423.919610</ele>
        <time>2021-05-26T16:02:56.845Z</time>
      </trkpt>
      <trkpt lat="42.880398" lon="13.490906">
        <ele>423.792237</ele>
        <time>2021-05-26T16:03:00.454Z</time>
      </trkpt>
      <trkpt lat="42.880470" lon="13.490878">
        <ele>423.739416</ele>
        <time>2021-05-26T16:03:01.622Z</time>
      </trkpt>
      <trkpt lat="42.880470" lon="13.490878">
        <ele>423.739416</ele>
        <time>2021-05-26T16:03:01.960Z</time>
      </trkpt>
      <trkpt lat="42.880454" lon="13.490606">
        <ele>423.598339</ele>
        <time>2021-05-26T16:03:06.283Z</time>
      </trkpt>
      <trkpt lat="42.880323" lon="13.490121">
        <ele>423.331102</ele>
        <time>2021-05-26T16:03:15.321Z</time>
      </trkpt>
      <trkpt lat="42.879676" lon="13.488985">
        <ele>424.118182</ele>
        <time>2021-05-26T16:03:45.841Z</time>
      </trkpt>
      <trkpt lat="42.879664" lon="13.489072">
        <ele>424.182115</ele>
        <time>2021-05-26T16:03:48.472Z</time>
      </trkpt>
      <trkpt lat="42.879429" lon="13.489290">
        <ele>424.462156</ele>
        <time>2021-05-26T16:03:59.658Z</time>
      </trkpt>
      <trkpt lat="42.879084" lon="13.489401">
        <ele>424.811483</ele>
        <time>2021-05-26T16:04:11.620Z</time>
      </trkpt>
      <trkpt lat="42.879001" lon="13.489296">
        <ele>424.923022</ele>
        <time>2021-05-26T16:04:14.968Z</time>
      </trkpt>
      <trkpt lat="42.878124" lon="13.489334">
        <ele>423.460421</ele>
        <time>2021-05-26T16:04:39.908Z</time>
      </trkpt>
      <trkpt lat="42.878001" lon="13.489527">
        <ele>423.100388</ele>
        <time>2021-05-26T16:04:45.170Z</time>
      </trkpt>
      <trkpt lat="42.877972" lon="13.489559">
        <ele>423.028751</ele>
        <time>2021-05-26T16:04:45.977Z</time>
      </trkpt>
      <trkpt lat="42.878021" lon="13.489316">
        <ele>422.673989</ele>
        <time>2021-05-26T16:04:48.940Z</time>
      </trkpt>
      <trkpt lat="42.878024" lon="13.489302">
        <ele>422.653458</ele>
        <time>2021-05-26T16:04:49.274Z</time>
      </trkpt>
      <trkpt lat="42.878380" lon="13.489124">
        <ele>421.925180</ele>
        <time>2021-05-26T16:04:54.891Z</time>
      </trkpt>
      <trkpt lat="42.878763" lon="13.489053">
        <ele>420.944965</ele>
        <time>2021-05-26T16:05:00.571Z</time>
      </trkpt>
      <trkpt lat="42.878917" lon="13.488882">
        <ele>420.312362</ele>
        <time>2021-05-26T16:05:03.323Z</time>
      </trkpt>
      <trkpt lat="42.878988" lon="13.488560">
        <ele>419.527232</ele>
        <time>2021-05-26T16:05:07.018Z</time>
      </trkpt>
      <trkpt lat="42.878848" lon="13.487432">
        <ele>416.855974</ele>
        <time>2021-05-26T16:05:19.106Z</time>
      </trkpt>
      <trkpt lat="42.877357" lon="13.485152">
        <ele>408.921503</ele>
        <time>2021-05-26T16:05:50.524Z</time>
      </trkpt>
      <trkpt lat="42.877059" lon="13.484874">
        <ele>407.978221</ele>
        <time>2021-05-26T16:05:55.696Z</time>
      </trkpt>
      <trkpt lat="42.876701" lon="13.484730">
        <ele>407.002933</ele>
        <time>2021-05-26T16:06:01.140Z</time>
      </trkpt>
      <trkpt lat="42.876296" lon="13.484744">
        <ele>405.944284</ele>
        <time>2021-05-26T16:06:07.188Z</time>
      </trkpt>
      <trkpt lat="42.875875" lon="13.484853">
        <ele>404.824538</ele>
        <time>2021-05-26T16:06:13.789Z</time>
      </trkpt>
      <trkpt lat="42.875491" lon="13.485261">
        <ele>403.975658</ele>
        <time>2021-05-26T16:06:21.900Z</time>
      </trkpt>
      <trkpt lat="42.875281" lon="13.485298">
        <ele>403.664904</ele>
        <time>2021-05-26T16:06:25.255Z</time>
      </trkpt>
      <trkpt lat="42.874390" lon="13.484717">
        <ele>402.215642</ele>
        <time>2021-05-26T16:06:41.170Z</time>
      </trkpt>
      <trkpt lat="42.874182" lon="13.484585">
        <ele>401.878983</ele>
        <time>2021-05-26T16:06:45.114Z</time>
      </trkpt>
      <trkpt lat="42.873646" lon="13.484306">
        <ele>401.108950</ele>
        <time>2021-05-26T16:06:54.433Z</time>
      </trkpt>
      <trkpt lat="42.873218" lon="13.484068">
        <ele>400.488666</ele>
        <time>2021-05-26T16:07:02.357Z</time>
      </trkpt>
      <trkpt lat="42.872115" lon="13.483468">
        <ele>398.733643</ele>
        <time>2021-05-26T16:07:21.262Z</time>
      </trkpt>
      <trkpt lat="42.871973" lon="13.483341">
        <ele>398.441113</ele>
        <time>2021-05-26T16:07:23.915Z</time>
      </trkpt>
      <trkpt lat="42.871827" lon="13.483219">
        <ele>398.146140</ele>
        <time>2021-05-26T16:07:26.618Z</time>
      </trkpt>
      <trkpt lat="42.871473" lon="13.482874">
        <ele>397.396619</ele>
        <time>2021-05-26T16:07:33.478Z</time>
      </trkpt>
      <trkpt lat="42.871217" lon="13.482681">
        <ele>396.892696</ele>
        <time>2021-05-26T16:07:38.088Z</time>
      </trkpt>
      <trkpt lat="42.870884" lon="13.482569">
        <ele>396.287940</ele>
        <time>2021-05-26T16:07:43.536Z</time>
      </trkpt>
      <trkpt lat="42.870569" lon="13.482561">
        <ele>395.625908</ele>
        <time>2021-05-26T16:07:48.597Z</time>
      </trkpt>
      <trkpt lat="42.870211" lon="13.482538">
        <ele>394.872800</ele>
        <time>2021-05-26T16:07:54.147Z</time>
      </trkpt>
      <trkpt lat="42.869744" lon="13.482437">
        <ele>393.879231</ele>
        <time>2021-05-26T16:08:01.368Z</time>
      </trkpt>
      <trkpt lat="42.869257" lon="13.482232">
        <ele>392.808292</ele>
        <time>2021-05-26T16:08:09.041Z</time>
      </trkpt>
      <trkpt lat="42.869127" lon="13.482164">
        <ele>392.470872</ele>
        <time>2021-05-26T16:08:11.182Z</time>
      </trkpt>
      <trkpt lat="42.868839" lon="13.482590">
        <ele>391.002587</ele>
        <time>2021-05-26T16:08:17.950Z</time>
      </trkpt>
      <trkpt lat="42.868715" lon="13.482774">
        <ele>390.369321</ele>
        <time>2021-05-26T16:08:20.783Z</time>
      </trkpt>
      <trkpt lat="42.868034" lon="13.482720">
        <ele>388.011338</ele>
        <time>2021-05-26T16:08:30.983Z</time>
      </trkpt>
      <trkpt lat="42.867576" lon="13.482921">
        <ele>386.347290</ele>
        <time>2021-05-26T16:08:37.966Z</time>
      </trkpt>
      <trkpt lat="42.867043" lon="13.483357">
        <ele>384.090071</ele>
        <time>2021-05-26T16:08:46.913Z</time>
      </trkpt>
      <trkpt lat="42.866566" lon="13.483633">
        <ele>382.208173</ele>
        <time>2021-05-26T16:08:54.564Z</time>
      </trkpt>
      <trkpt lat="42.865640" lon="13.483856">
        <ele>379.690762</ele>
        <time>2021-05-26T16:09:09.216Z</time>
      </trkpt>
      <trkpt lat="42.865195" lon="13.483800">
        <ele>379.466154</ele>
        <time>2021-05-26T16:09:17.124Z</time>
      </trkpt>
      <trkpt lat="42.864947" lon="13.483913">
        <ele>379.334741</ele>
        <time>2021-05-26T16:09:22.485Z</time>
      </trkpt>
      <trkpt lat="42.864677" lon="13.484066">
        <ele>379.187799</ele>
        <time>2021-05-26T16:09:29.137Z</time>
      </trkpt>
      <trkpt lat="42.864582" lon="13.484087">
        <ele>379.139429</ele>
        <time>2021-05-26T16:09:31.221Z</time>
      </trkpt>
      <trkpt lat="42.864488" lon="13.484161">
        <ele>379.084883</ele>
        <time>2021-05-26T16:09:35.412Z</time>
      </trkpt>
      <trkpt lat="42.864249" lon="13.484330">
        <ele>378.949586</ele>
        <time>2021-05-26T16:09:44.793Z</time>
      </trkpt>
      <trkpt lat="42.863996" lon="13.484318">
        <ele>378.955398</ele>
        <time>2021-05-26T16:09:54.178Z</time>
      </trkpt>
      <trkpt lat="42.863901" lon="13.484371">
        <ele>378.967000</ele>
        <time>2021-05-26T16:09:57.789Z</time>
      </trkpt>
      <trkpt lat="42.863728" lon="13.484432">
        <ele>378.987198</ele>
        <time>2021-05-26T16:10:04.467Z</time>
      </trkpt>
      <trkpt lat="42.863616" lon="13.484473">
        <ele>379.000306</ele>
        <time>2021-05-26T16:10:08.722Z</time>
      </trkpt>
      <trkpt lat="42.863303" lon="13.484402">
        <ele>379.036172</ele>
        <time>2021-05-26T16:10:19.872Z</time>
      </trkpt>
      <trkpt lat="42.863137" lon="13.484174">
        <ele>379.062799</ele>
        <time>2021-05-26T16:10:28.375Z</time>
      </trkpt>
      <trkpt lat="42.862785" lon="13.484284">
        <ele>379.103619</ele>
        <time>2021-05-26T16:10:39.711Z</time>
      </trkpt>
      <trkpt lat="42.862672" lon="13.484255">
        <ele>379.116616</ele>
        <time>2021-05-26T16:10:43.212Z</time>
      </trkpt>
      <trkpt lat="42.862153" lon="13.483833">
        <ele>376.993629</ele>
        <time>2021-05-26T16:11:00.180Z</time>
      </trkpt>
      <trkpt lat="42.861338" lon="13.483354">
        <ele>372.752258</ele>
        <time>2021-05-26T16:11:21.714Z</time>
      </trkpt>
      <trkpt lat="42.860980" lon="13.483050">
        <ele>370.736819</ele>
        <time>2021-05-26T16:11:31.308Z</time>
      </trkpt>
      <trkpt lat="42.860749" lon="13.482767">
        <ele>367.209017</ele>
        <time>2021-05-26T16:11:38.102Z</time>
      </trkpt>
      <trkpt lat="42.860471" lon="13.482915">
        <ele>363.513710</ele>
        <time>2021-05-26T16:11:44.469Z</time>
      </trkpt>
      <trkpt lat="42.860391" lon="13.483117">
        <ele>361.429672</ele>
        <time>2021-05-26T16:11:48.048Z</time>
      </trkpt>
      <trkpt lat="42.860388" lon="13.483218">
        <ele>360.512152</ele>
        <time>2021-05-26T16:11:49.580Z</time>
      </trkpt>
      <trkpt lat="42.860380" lon="13.483535">
        <ele>357.633068</ele>
        <time>2021-05-26T16:11:54.459Z</time>
      </trkpt>
      <trkpt lat="42.860266" lon="13.483552">
        <ele>356.212997</ele>
        <time>2021-05-26T16:11:56.806Z</time>
      </trkpt>
      <trkpt lat="42.858816" lon="13.482767">
        <ele>332.383411</ele>
        <time>2021-05-26T16:12:28.096Z</time>
      </trkpt>
      <trkpt lat="42.858756" lon="13.482777">
        <ele>331.337861</ele>
        <time>2021-05-26T16:12:29.275Z</time>
      </trkpt>
      <trkpt lat="42.858691" lon="13.482930">
        <ele>329.095650</ele>
        <time>2021-05-26T16:12:31.827Z</time>
      </trkpt>
      <trkpt lat="42.858608" lon="13.482951">
        <ele>327.635498</ele>
        <time>2021-05-26T16:12:33.483Z</time>
      </trkpt>
      <trkpt lat="42.858131" lon="13.482926">
        <ele>319.378640</ele>
        <time>2021-05-26T16:12:42.881Z</time>
      </trkpt>
      <trkpt lat="42.857607" lon="13.482763">
        <ele>310.435264</ele>
        <time>2021-05-26T16:12:53.465Z</time>
      </trkpt>
      <trkpt lat="42.856918" lon="13.482402">
        <ele>298.306011</ele>
        <time>2021-05-26T16:13:08.040Z</time>
      </trkpt>
      <trkpt lat="42.856295" lon="13.482604">
        <ele>287.782594</ele>
        <time>2021-05-26T16:13:21.038Z</time>
      </trkpt>
      <trkpt lat="42.855910" lon="13.482845">
        <ele>285.068276</ele>
        <time>2021-05-26T16:13:30.041Z</time>
      </trkpt>
      <trkpt lat="42.855841" lon="13.482776">
        <ele>284.543793</ele>
        <time>2021-05-26T16:13:31.759Z</time>
      </trkpt>
      <trkpt lat="42.855969" lon="13.482512">
        <ele>283.121354</ele>
        <time>2021-05-26T16:13:34.935Z</time>
      </trkpt>
      <trkpt lat="42.856097" lon="13.481996">
        <ele>280.673281</ele>
        <time>2021-05-26T16:13:40.500Z</time>
      </trkpt>
      <trkpt lat="42.856320" lon="13.481687">
        <ele>278.724629</ele>
        <time>2021-05-26T16:13:45.383Z</time>
      </trkpt>
      <trkpt lat="42.856347" lon="13.481213">
        <ele>276.588062</ele>
        <time>2021-05-26T16:13:51.449Z</time>
      </trkpt>
      <trkpt lat="42.856312" lon="13.480625">
        <ele>277.470400</ele>
        <time>2021-05-26T16:14:02.282Z</time>
      </trkpt>
      <trkpt lat="42.856354" lon="13.480390">
        <ele>277.842788</ele>
        <time>2021-05-26T16:14:09.261Z</time>
      </trkpt>
      <trkpt lat="42.856360" lon="13.480296">
        <ele>277.988051</ele>
        <time>2021-05-26T16:14:12.040Z</time>
      </trkpt>
      <trkpt lat="42.856353" lon="13.480248">
        <ele>278.063397</ele>
        <time>2021-05-26T16:14:13.085Z</time>
      </trkpt>
      <trkpt lat="42.856289" lon="13.480145">
        <ele>278.271269</ele>
        <time>2021-05-26T16:14:15.911Z</time>
      </trkpt>
      <trkpt lat="42.856243" lon="13.480066">
        <ele>278.426591</ele>
        <time>2021-05-26T16:14:19.261Z</time>
      </trkpt>
      <trkpt lat="42.855999" lon="13.480028">
        <ele>278.942354</ele>
        <time>2021-05-26T16:14:27.681Z</time>
      </trkpt>
      <trkpt lat="42.855607" lon="13.480339">
        <ele>279.894719</ele>
        <time>2021-05-26T16:14:43.825Z</time>
      </trkpt>
      <trkpt lat="42.855495" lon="13.480349">
        <ele>280.130438</ele>
        <time>2021-05-26T16:14:48.274Z</time>
      </trkpt>
      <trkpt lat="42.855759" lon="13.479989">
        <ele>280.879017</ele>
        <time>2021-05-26T16:15:01.000Z</time>
      </trkpt>
      <trkpt lat="42.856756" lon="13.478955">
        <ele>283.345530</ele>
        <time>2021-05-26T16:15:36.799Z</time>
      </trkpt>
      <trkpt lat="42.857201" lon="13.478586">
        <ele>284.249166</ele>
        <time>2021-05-26T16:15:49.389Z</time>
      </trkpt>
      <trkpt lat="42.857395" lon="13.478425">
        <ele>284.583384</ele>
        <time>2021-05-26T16:15:55.017Z</time>
      </trkpt>
      <trkpt lat="42.858675" lon="13.477363">
        <ele>286.821969</ele>
        <time>2021-05-26T16:16:35.594Z</time>
      </trkpt>
      <trkpt lat="42.858845" lon="13.477222">
        <ele>287.153716</ele>
        <time>2021-05-26T16:16:41.023Z</time>
      </trkpt>
      <trkpt lat="42.858916" lon="13.477168">
        <ele>287.289262</ele>
        <time>2021-05-26T16:16:43.320Z</time>
      </trkpt>
      <trkpt lat="42.859584" lon="13.476664">
        <ele>288.562126</ele>
        <time>2021-05-26T16:17:03.975Z</time>
      </trkpt>
      <trkpt lat="42.859788" lon="13.476509">
        <ele>288.951487</ele>
        <time>2021-05-26T16:17:10.141Z</time>
      </trkpt>
      <trkpt lat="42.859866" lon="13.476468">
        <ele>289.090870</ele>
        <time>2021-05-26T16:17:12.421Z</time>
      </trkpt>
      <trkpt lat="42.859899" lon="13.476580">
        <ele>289.238410</ele>
        <time>2021-05-26T16:17:16.047Z</time>
      </trkpt>
      <trkpt lat="42.861158" lon="13.475869">
        <ele>291.809421</ele>
        <time>2021-05-26T16:18:03.006Z</time>
      </trkpt>
      <trkpt lat="42.861129" lon="13.475735">
        <ele>292.006031</ele>
        <time>2021-05-26T16:18:07.212Z</time>
      </trkpt>
      <trkpt lat="42.861196" lon="13.475697">
        <ele>292.145326</ele>
        <time>2021-05-26T16:18:09.227Z</time>
      </trkpt>
      <trkpt lat="42.861821" lon="13.475342">
        <ele>293.503330</ele>
        <time>2021-05-26T16:18:28.628Z</time>
      </trkpt>
      <trkpt lat="42.862009" lon="13.475239">
        <ele>293.941871</ele>
        <time>2021-05-26T16:18:33.773Z</time>
      </trkpt>
      <trkpt lat="42.862534" lon="13.474929">
        <ele>295.180184</ele>
        <time>2021-05-26T16:18:51.826Z</time>
      </trkpt>
      <trkpt lat="42.863447" lon="13.474389">
        <ele>297.555568</ele>
        <time>2021-05-26T16:19:21.472Z</time>
      </trkpt>
      <trkpt lat="42.863813" lon="13.474171">
        <ele>298.842421</ele>
        <time>2021-05-26T16:19:34.444Z</time>
      </trkpt>
      <trkpt lat="42.864066" lon="13.473977">
        <ele>299.777600</ele>
        <time>2021-05-26T16:19:43.937Z</time>
      </trkpt>
      <trkpt lat="42.864501" lon="13.472698">
        <ele>303.252077</ele>
        <time>2021-05-26T16:20:23.910Z</time>
      </trkpt>
      <trkpt lat="42.864633" lon="13.472020">
        <ele>305.464040</ele>
        <time>2021-05-26T16:20:45.274Z</time>
      </trkpt>
      <trkpt lat="42.864639" lon="13.471411">
        <ele>307.384475</ele>
        <time>2021-05-26T16:21:03.414Z</time>
      </trkpt>
      <trkpt lat="42.864648" lon="13.471266">
        <ele>307.843317</ele>
        <time>2021-05-26T16:21:08.255Z</time>
      </trkpt>
      <trkpt lat="42.864664" lon="13.470982">
        <ele>308.741450</ele>
        <time>2021-05-26T16:21:16.605Z</time>
      </trkpt>
      <trkpt lat="42.864746" lon="13.470724">
        <ele>309.628149</ele>
        <time>2021-05-26T16:21:25.071Z</time>
      </trkpt>
      <trkpt lat="42.866256" lon="13.467797">
        <ele>322.405501</ele>
        <time>2021-05-26T16:23:10.294Z</time>
      </trkpt>
      <trkpt lat="42.866470" lon="13.467525">
        <ele>324.429257</ele>
        <time>2021-05-26T16:23:24.531Z</time>
      </trkpt>
      <trkpt lat="42.866467" lon="13.467285">
        <ele>325.646608</ele>
        <time>2021-05-26T16:23:37.950Z</time>
      </trkpt>
      <trkpt lat="42.866359" lon="13.467223">
        <ele>326.457367</ele>
        <time>2021-05-26T16:23:45.379Z</time>
      </trkpt>
      <trkpt lat="42.866235" lon="13.466844">
        <ele>328.562303</ele>
        <time>2021-05-26T16:24:08.519Z</time>
      </trkpt>
      <trkpt lat="42.866141" lon="13.466365">
        <ele>331.676078</ele>
        <time>2021-05-26T16:24:37.999Z</time>
      </trkpt>
      <trkpt lat="42.866149" lon="13.466198">
        <ele>333.285259</ele>
        <time>2021-05-26T16:24:47.748Z</time>
      </trkpt>
      <trkpt lat="42.866229" lon="13.466172">
        <ele>334.364122</ele>
        <time>2021-05-26T16:24:55.554Z</time>
      </trkpt>
      <trkpt lat="42.866410" lon="13.466298">
        <ele>337.029828</ele>
        <time>2021-05-26T16:25:13.956Z</time>
      </trkpt>
      <trkpt lat="42.866520" lon="13.466282">
        <ele>338.481065</ele>
        <time>2021-05-26T16:25:24.254Z</time>
      </trkpt>
      <trkpt lat="42.866723" lon="13.465926">
        <ele>342.818021</ele>
        <time>2021-05-26T16:25:57.969Z</time>
      </trkpt>
      <trkpt lat="42.866970" lon="13.464843">
        <ele>353.723780</ele>
        <time>2021-05-26T16:27:25.983Z</time>
      </trkpt>
      <trkpt lat="42.866986" lon="13.464325">
        <ele>357.764159</ele>
        <time>2021-05-26T16:28:07.039Z</time>
      </trkpt>
      <trkpt lat="42.867063" lon="13.463806">
        <ele>361.833187</ele>
        <time>2021-05-26T16:28:45.851Z</time>
      </trkpt>
      <trkpt lat="42.867239" lon="13.463298">
        <ele>366.150944</ele>
        <time>2021-05-26T16:29:21.615Z</time>
      </trkpt>
      <trkpt lat="42.867364" lon="13.462531">
        <ele>372.188706</ele>
        <time>2021-05-26T16:30:02.376Z</time>
      </trkpt>
      <trkpt lat="42.867453" lon="13.462346">
        <ele>372.906768</ele>
        <time>2021-05-26T16:30:11.212Z</time>
      </trkpt>
      <trkpt lat="42.867360" lon="13.462246">
        <ele>372.960856</ele>
        <time>2021-05-26T16:30:17.446Z</time>
      </trkpt>
      <trkpt lat="42.867238" lon="13.462388">
        <ele>373.034108</ele>
        <time>2021-05-26T16:30:24.697Z</time>
      </trkpt>
      <trkpt lat="42.867030" lon="13.463189">
        <ele>373.318615</ele>
        <time>2021-05-26T16:30:43.483Z</time>
      </trkpt>
      <trkpt lat="42.866829" lon="13.463456">
        <ele>373.446758</ele>
        <time>2021-05-26T16:30:50.842Z</time>
      </trkpt>
      <trkpt lat="42.866633" lon="13.463915">
        <ele>373.624610</ele>
        <time>2021-05-26T16:31:01.151Z</time>
      </trkpt>
      <trkpt lat="42.866464" lon="13.464764">
        <ele>376.611645</ele>
        <time>2021-05-26T16:31:21.154Z</time>
      </trkpt>
      <trkpt lat="42.866349" lon="13.464926">
        <ele>377.550307</ele>
        <time>2021-05-26T16:31:28.954Z</time>
      </trkpt>
      <trkpt lat="42.866218" lon="13.464850">
        <ele>378.358665</ele>
        <time>2021-05-26T16:31:36.174Z</time>
      </trkpt>
      <trkpt lat="42.866209" lon="13.464701">
        <ele>378.980921</ele>
        <time>2021-05-26T16:31:42.346Z</time>
      </trkpt>
      <trkpt lat="42.866353" lon="13.464331">
        <ele>380.724536</ele>
        <time>2021-05-26T16:32:02.743Z</time>
      </trkpt>
      <trkpt lat="42.866606" lon="13.463279">
        <ele>387.394052</ele>
        <time>2021-05-26T16:33:16.216Z</time>
      </trkpt>
      <trkpt lat="42.866757" lon="13.463026">
        <ele>390.702250</ele>
        <time>2021-05-26T16:33:42.701Z</time>
      </trkpt>
      <trkpt lat="42.866756" lon="13.462587">
        <ele>395.153461</ele>
        <time>2021-05-26T16:34:20.101Z</time>
      </trkpt>
      <trkpt lat="42.866863" lon="13.462245">
        <ele>398.923843</ele>
        <time>2021-05-26T16:34:51.932Z</time>
      </trkpt>
      <trkpt lat="42.867429" lon="13.461104">
        <ele>410.864941</ele>
        <time>2021-05-26T16:36:30.137Z</time>
      </trkpt>
      <trkpt lat="42.867473" lon="13.460752">
        <ele>412.700210</ele>
        <time>2021-05-26T16:36:50.599Z</time>
      </trkpt>
      <trkpt lat="42.867460" lon="13.460532">
        <ele>413.834594</ele>
        <time>2021-05-26T16:37:02.342Z</time>
      </trkpt>
      <trkpt lat="42.867381" lon="13.460529">
        <ele>414.388791</ele>
        <time>2021-05-26T16:37:07.653Z</time>
      </trkpt>
      <trkpt lat="42.867269" lon="13.461078">
        <ele>417.317714</ele>
        <time>2021-05-26T16:37:33.174Z</time>
      </trkpt>
      <trkpt lat="42.867171" lon="13.461293">
        <ele>418.618999</ele>
        <time>2021-05-26T16:37:43.581Z</time>
      </trkpt>
      <trkpt lat="42.866511" lon="13.462152">
        <ele>423.445738</ele>
        <time>2021-05-26T16:38:22.262Z</time>
      </trkpt>
      <trkpt lat="42.866424" lon="13.462470">
        <ele>424.434488</ele>
        <time>2021-05-26T16:38:32.549Z</time>
      </trkpt>
      <trkpt lat="42.866340" lon="13.462577">
        <ele>424.891217</ele>
        <time>2021-05-26T16:38:37.322Z</time>
      </trkpt>
      <trkpt lat="42.866286" lon="13.462487">
        <ele>425.230025</ele>
        <time>2021-05-26T16:38:41.690Z</time>
      </trkpt>
      <trkpt lat="42.866322" lon="13.462303">
        <ele>425.784779</ele>
        <time>2021-05-26T16:38:48.805Z</time>
      </trkpt>
      <trkpt lat="42.866873" lon="13.461414">
        <ele>430.240033</ele>
        <time>2021-05-26T16:39:39.624Z</time>
      </trkpt>
      <trkpt lat="42.866989" lon="13.461062">
        <ele>433.247050</ele>
        <time>2021-05-26T16:39:59.578Z</time>
      </trkpt>
      <trkpt lat="42.866976" lon="13.460842">
        <ele>434.966704</ele>
        <time>2021-05-26T16:40:11.436Z</time>
      </trkpt>
      <trkpt lat="42.866699" lon="13.460173">
        <ele>440.953345</ele>
        <time>2021-05-26T16:40:57.235Z</time>
      </trkpt>
      <trkpt lat="42.866341" lon="13.459690">
        <ele>446.305443</ele>
        <time>2021-05-26T16:41:46.910Z</time>
      </trkpt>
      <trkpt lat="42.866346" lon="13.459117">
        <ele>453.425501</ele>
        <time>2021-05-26T16:42:34.925Z</time>
      </trkpt>
      <trkpt lat="42.866286" lon="13.458947">
        <ele>456.151104</ele>
        <time>2021-05-26T16:42:51.562Z</time>
      </trkpt>
      <trkpt lat="42.865934" lon="13.458703">
        <ele>463.932627</ele>
        <time>2021-05-26T16:43:41.176Z</time>
      </trkpt>
      <trkpt lat="42.865832" lon="13.458262">
        <ele>470.612753</ele>
        <time>2021-05-26T16:44:26.624Z</time>
      </trkpt>
      <trkpt lat="42.865963" lon="13.457205">
        <ele>486.298942</ele>
        <time>2021-05-26T16:46:21.626Z</time>
      </trkpt>
      <trkpt lat="42.866163" lon="13.456863">
        <ele>493.043276</ele>
        <time>2021-05-26T16:47:08.634Z</time>
      </trkpt>
      <trkpt lat="42.866265" lon="13.456234">
        <ele>502.973734</ele>
        <time>2021-05-26T16:48:17.577Z</time>
      </trkpt>
      <trkpt lat="42.866357" lon="13.456084">
        <ele>505.988739</ele>
        <time>2021-05-26T16:48:37.088Z</time>
      </trkpt>
      <trkpt lat="42.865957" lon="13.455728">
        <ele>516.032984</ele>
        <time>2021-05-26T16:49:40.878Z</time>
      </trkpt>
      <trkpt lat="42.864832" lon="13.454729">
        <ele>538.617776</ele>
        <time>2021-05-26T16:52:15.852Z</time>
      </trkpt>
      <trkpt lat="42.864507" lon="13.454922">
        <ele>544.268064</ele>
        <time>2021-05-26T16:52:51.911Z</time>
      </trkpt>
      <trkpt lat="42.863953" lon="13.455123">
        <ele>552.870388</ele>
        <time>2021-05-26T16:53:50.945Z</time>
      </trkpt>
      <trkpt lat="42.863400" lon="13.455116">
        <ele>560.441597</ele>
        <time>2021-05-26T16:54:49.667Z</time>
      </trkpt>
      <trkpt lat="42.862953" lon="13.454890">
        <ele>566.967994</ele>
        <time>2021-05-26T16:55:38.856Z</time>
      </trkpt>
      <trkpt lat="42.862684" lon="13.454252">
        <ele>574.309991</ele>
        <time>2021-05-26T16:56:31.958Z</time>
      </trkpt>
      <trkpt lat="42.862290" lon="13.453948">
        <ele>578.222668</ele>
        <time>2021-05-26T16:57:10.980Z</time>
      </trkpt>
      <trkpt lat="42.862307" lon="13.452141">
        <ele>589.672720</ele>
        <time>2021-05-26T16:58:45.296Z</time>
      </trkpt>
      <trkpt lat="42.862204" lon="13.452113">
        <ele>590.242502</ele>
        <time>2021-05-26T16:58:49.745Z</time>
      </trkpt>
      <trkpt lat="42.862161" lon="13.451987">
        <ele>590.750243</ele>
        <time>2021-05-26T16:58:56.806Z</time>
      </trkpt>
      <trkpt lat="42.861871" lon="13.451514">
        <ele>593.002969</ele>
        <time>2021-05-26T16:59:22.310Z</time>
      </trkpt>
      <trkpt lat="42.860858" lon="13.450531">
        <ele>599.071056</ele>
        <time>2021-05-26T17:00:29.773Z</time>
      </trkpt>
      <trkpt lat="42.860481" lon="13.450288">
        <ele>600.563158</ele>
        <time>2021-05-26T17:00:52.219Z</time>
      </trkpt>
      <trkpt lat="42.860293" lon="13.450237">
        <ele>601.249091</ele>
        <time>2021-05-26T17:01:02.162Z</time>
      </trkpt>
      <trkpt lat="42.860286" lon="13.449692">
        <ele>602.678904</ele>
        <time>2021-05-26T17:01:22.418Z</time>
      </trkpt>
      <trkpt lat="42.860244" lon="13.449495">
        <ele>603.217070</ele>
        <time>2021-05-26T17:01:29.832Z</time>
      </trkpt>
      <trkpt lat="42.860001" lon="13.449216">
        <ele>604.353631</ele>
        <time>2021-05-26T17:01:44.750Z</time>
      </trkpt>
      <trkpt lat="42.859264" lon="13.449068">
        <ele>606.336512</ele>
        <time>2021-05-26T17:02:16.944Z</time>
      </trkpt>
      <trkpt lat="42.858519" lon="13.449057">
        <ele>608.011255</ele>
        <time>2021-05-26T17:02:46.726Z</time>
      </trkpt>
      <trkpt lat="42.857418" lon="13.448868">
        <ele>610.716897</ele>
        <time>2021-05-26T17:03:36.779Z</time>
      </trkpt>
      <trkpt lat="42.857053" lon="13.448888">
        <ele>611.673573</ele>
        <time>2021-05-26T17:03:55.082Z</time>
      </trkpt>
      <trkpt lat="42.856327" lon="13.448668">
        <ele>613.621254</ele>
        <time>2021-05-26T17:04:29.364Z</time>
      </trkpt>
      <trkpt lat="42.856238" lon="13.448553">
        <ele>613.933704</ele>
        <time>2021-05-26T17:04:33.306Z</time>
      </trkpt>
      <trkpt lat="42.856243" lon="13.448462">
        <ele>613.850311</ele>
        <time>2021-05-26T17:04:36.951Z</time>
      </trkpt>
      <trkpt lat="42.856252" lon="13.448282">
        <ele>613.685437</ele>
        <time>2021-05-26T17:04:43.220Z</time>
      </trkpt>
      <trkpt lat="42.856846" lon="13.447425">
        <ele>612.607633</ele>
        <time>2021-05-26T17:05:09.300Z</time>
      </trkpt>
      <trkpt lat="42.856893" lon="13.447200">
        <ele>612.393835</ele>
        <time>2021-05-26T17:05:13.932Z</time>
      </trkpt>
      <trkpt lat="42.856854" lon="13.446916">
        <ele>612.129792</ele>
        <time>2021-05-26T17:05:19.230Z</time>
      </trkpt>
      <trkpt lat="42.856878" lon="13.446530">
        <ele>611.775785</ele>
        <time>2021-05-26T17:05:26.739Z</time>
      </trkpt>
      <trkpt lat="42.856696" lon="13.446110">
        <ele>610.705467</ele>
        <time>2021-05-26T17:05:35.368Z</time>
      </trkpt>
      <trkpt lat="42.856236" lon="13.445717">
        <ele>608.869142</ele>
        <time>2021-05-26T17:05:48.689Z</time>
      </trkpt>
      <trkpt lat="42.856184" lon="13.445672">
        <ele>608.660799</ele>
        <time>2021-05-26T17:05:50.214Z</time>
      </trkpt>
      <trkpt lat="42.855340" lon="13.445227">
        <ele>605.605205</ele>
        <time>2021-05-26T17:06:13.765Z</time>
      </trkpt>
      <trkpt lat="42.855256" lon="13.445074">
        <ele>605.416673</ele>
        <time>2021-05-26T17:06:17.403Z</time>
      </trkpt>
      <trkpt lat="42.855241" lon="13.444795">
        <ele>605.140758</ele>
        <time>2021-05-26T17:06:23.570Z</time>
      </trkpt>
      <trkpt lat="42.854899" lon="13.444577">
        <ele>604.632866</ele>
        <time>2021-05-26T17:06:35.670Z</time>
      </trkpt>
      <trkpt lat="42.854479" lon="13.444590">
        <ele>604.067644</ele>
        <time>2021-05-26T17:06:49.041Z</time>
      </trkpt>
      <trkpt lat="42.853744" lon="13.444385">
        <ele>602.908616</ele>
        <time>2021-05-26T17:07:09.989Z</time>
      </trkpt>
      <trkpt lat="42.853374" lon="13.444508">
        <ele>601.809732</ele>
        <time>2021-05-26T17:07:19.771Z</time>
      </trkpt>
      <trkpt lat="42.853127" lon="13.444511">
        <ele>601.096985</ele>
        <time>2021-05-26T17:07:25.979Z</time>
      </trkpt>
      <trkpt lat="42.852619" lon="13.444260">
        <ele>599.537949</ele>
        <time>2021-05-26T17:07:39.420Z</time>
      </trkpt>
      <trkpt lat="42.852195" lon="13.444170">
        <ele>598.299770</ele>
        <time>2021-05-26T17:07:50.434Z</time>
      </trkpt>
      <trkpt lat="42.851488" lon="13.444328">
        <ele>599.147155</ele>
        <time>2021-05-26T17:08:11.470Z</time>
      </trkpt>
      <trkpt lat="42.851099" lon="13.444256">
        <ele>599.883330</ele>
        <time>2021-05-26T17:08:27.947Z</time>
      </trkpt>
      <trkpt lat="42.851033" lon="13.444156">
        <ele>600.068318</ele>
        <time>2021-05-26T17:08:31.312Z</time>
      </trkpt>
      <trkpt lat="42.851124" lon="13.443992">
        <ele>600.351088</ele>
        <time>2021-05-26T17:08:38.400Z</time>
      </trkpt>
      <trkpt lat="42.851281" lon="13.443725">
        <ele>600.821651</ele>
        <time>2021-05-26T17:08:48.595Z</time>
      </trkpt>
      <trkpt lat="42.851443" lon="13.443409">
        <ele>601.351777</ele>
        <time>2021-05-26T17:09:00.718Z</time>
      </trkpt>
      <trkpt lat="42.851530" lon="13.443251">
        <ele>602.266968</ele>
        <time>2021-05-26T17:09:08.804Z</time>
      </trkpt>
      <trkpt lat="42.851702" lon="13.443045">
        <ele>603.795022</ele>
        <time>2021-05-26T17:09:18.902Z</time>
      </trkpt>
      <trkpt lat="42.851857" lon="13.442988">
        <ele>604.866725</ele>
        <time>2021-05-26T17:09:28.260Z</time>
      </trkpt>
      <trkpt lat="42.852008" lon="13.442971">
        <ele>605.878208</ele>
        <time>2021-05-26T17:09:36.198Z</time>
      </trkpt>
      <trkpt lat="42.852094" lon="13.442969">
        <ele>606.452416</ele>
        <time>2021-05-26T17:09:40.183Z</time>
      </trkpt>
      <trkpt lat="42.852240" lon="13.442788">
        <ele>607.769499</ele>
        <time>2021-05-26T17:09:51.991Z</time>
      </trkpt>
      <trkpt lat="42.852370" lon="13.442432">
        <ele>609.715992</ele>
        <time>2021-05-26T17:10:08.846Z</time>
      </trkpt>
      <trkpt lat="42.852601" lon="13.442078">
        <ele>612.035425</ele>
        <time>2021-05-26T17:10:29.172Z</time>
      </trkpt>
      <trkpt lat="42.852962" lon="13.441881">
        <ele>614.583365</ele>
        <time>2021-05-26T17:10:51.420Z</time>
      </trkpt>
      <trkpt lat="42.853447" lon="13.441483">
        <ele>618.217753</ele>
        <time>2021-05-26T17:11:21.191Z</time>
      </trkpt>
      <trkpt lat="42.853504" lon="13.441396">
        <ele>618.767009</ele>
        <time>2021-05-26T17:11:26.889Z</time>
      </trkpt>
      <trkpt lat="42.853919" lon="13.441149">
        <ele>621.674409</ele>
        <time>2021-05-26T17:11:50.751Z</time>
      </trkpt>
      <trkpt lat="42.855158" lon="13.440608">
        <ele>625.994274</ele>
        <time>2021-05-26T17:12:51.687Z</time>
      </trkpt>
      <trkpt lat="42.855449" lon="13.440534">
        <ele>626.391399</ele>
        <time>2021-05-26T17:12:59.303Z</time>
      </trkpt>
      <trkpt lat="42.855742" lon="13.440573">
        <ele>626.786349</ele>
        <time>2021-05-26T17:13:04.633Z</time>
      </trkpt>
      <trkpt lat="42.855827" lon="13.440410">
        <ele>626.983076</ele>
        <time>2021-05-26T17:13:07.066Z</time>
      </trkpt>
      <trkpt lat="42.855872" lon="13.439940">
        <ele>626.709310</ele>
        <time>2021-05-26T17:13:12.434Z</time>
      </trkpt>
      <trkpt lat="42.855975" lon="13.439737">
        <ele>625.277155</ele>
        <time>2021-05-26T17:13:14.905Z</time>
      </trkpt>
      <trkpt lat="42.856225" lon="13.439443">
        <ele>622.665179</ele>
        <time>2021-05-26T17:13:19.418Z</time>
      </trkpt>
      <trkpt lat="42.856505" lon="13.439223">
        <ele>620.108205</ele>
        <time>2021-05-26T17:13:23.733Z</time>
      </trkpt>
      <trkpt lat="42.857091" lon="13.439012">
        <ele>615.312202</ele>
        <time>2021-05-26T17:13:31.616Z</time>
      </trkpt>
      <trkpt lat="42.857148" lon="13.438968">
        <ele>614.793937</ele>
        <time>2021-05-26T17:13:32.390Z</time>
      </trkpt>
      <trkpt lat="42.857962" lon="13.438332">
        <ele>602.772948</ele>
        <time>2021-05-26T17:13:43.997Z</time>
      </trkpt>
      <trkpt lat="42.858225" lon="13.437938">
        <ele>597.204951</ele>
        <time>2021-05-26T17:13:48.689Z</time>
      </trkpt>
      <trkpt lat="42.858556" lon="13.437706">
        <ele>591.900487</ele>
        <time>2021-05-26T17:13:53.153Z</time>
      </trkpt>
      <trkpt lat="42.858972" lon="13.437443">
        <ele>585.130603</ele>
        <time>2021-05-26T17:13:58.707Z</time>
      </trkpt>
      <trkpt lat="42.859436" lon="13.437358">
        <ele>577.714675</ele>
        <time>2021-05-26T17:14:04.329Z</time>
      </trkpt>
      <trkpt lat="42.859482" lon="13.437351">
        <ele>576.981496</ele>
        <time>2021-05-26T17:14:04.877Z</time>
      </trkpt>
      <trkpt lat="42.859553" lon="13.437335">
        <ele>575.841585</ele>
        <time>2021-05-26T17:14:05.715Z</time>
      </trkpt>
      <trkpt lat="42.859898" lon="13.437331">
        <ele>570.376441</ele>
        <time>2021-05-26T17:14:09.841Z</time>
      </trkpt>
      <trkpt lat="42.860457" lon="13.437222">
        <ele>561.431652</ele>
        <time>2021-05-26T17:14:16.717Z</time>
      </trkpt>
      <trkpt lat="42.861054" lon="13.437433">
        <ele>552.959740</ele>
        <time>2021-05-26T17:14:24.088Z</time>
      </trkpt>
      <trkpt lat="42.862144" lon="13.437430">
        <ele>538.754445</ele>
        <time>2021-05-26T17:14:37.584Z</time>
      </trkpt>
      <trkpt lat="42.862390" lon="13.437203">
        <ele>535.007177</ele>
        <time>2021-05-26T17:14:41.289Z</time>
      </trkpt>
      <trkpt lat="42.862531" lon="13.437154">
        <ele>533.467678</ele>
        <time>2021-05-26T17:14:43.091Z</time>
      </trkpt>
      <trkpt lat="42.863209" lon="13.437430">
        <ele>525.981521</ele>
        <time>2021-05-26T17:14:51.931Z</time>
      </trkpt>
      <trkpt lat="42.863452" lon="13.437311">
        <ele>523.249827</ele>
        <time>2021-05-26T17:14:55.193Z</time>
      </trkpt>
      <trkpt lat="42.863515" lon="13.437411">
        <ele>522.227198</ele>
        <time>2021-05-26T17:14:56.408Z</time>
      </trkpt>
      <trkpt lat="42.863459" lon="13.437518">
        <ele>521.207557</ele>
        <time>2021-05-26T17:14:57.637Z</time>
      </trkpt>
      <trkpt lat="42.863336" lon="13.437580">
        <ele>519.820163</ele>
        <time>2021-05-26T17:14:59.316Z</time>
      </trkpt>
      <trkpt lat="42.862587" lon="13.437741">
        <ele>512.841501</ele>
        <time>2021-05-26T17:15:09.114Z</time>
      </trkpt>
      <trkpt lat="42.862282" lon="13.437981">
        <ele>509.941742</ele>
        <time>2021-05-26T17:15:13.700Z</time>
      </trkpt>
      <trkpt lat="42.862100" lon="13.438308">
        <ele>507.463159</ele>
        <time>2021-05-26T17:15:17.623Z</time>
      </trkpt>
      <trkpt lat="42.862001" lon="13.438888">
        <ele>503.868188</ele>
        <time>2021-05-26T17:15:23.358Z</time>
      </trkpt>
      <trkpt lat="42.861852" lon="13.439134">
        <ele>501.941754</ele>
        <time>2021-05-26T17:15:26.471Z</time>
      </trkpt>
      <trkpt lat="42.860647" lon="13.439639">
        <ele>493.030919</ele>
        <time>2021-05-26T17:15:43.614Z</time>
      </trkpt>
      <trkpt lat="42.859658" lon="13.440508">
        <ele>483.292043</ele>
        <time>2021-05-26T17:15:59.175Z</time>
      </trkpt>
      <trkpt lat="42.859687" lon="13.440617">
        <ele>482.490091</ele>
        <time>2021-05-26T17:16:00.272Z</time>
      </trkpt>
      <trkpt lat="42.860757" lon="13.440482">
        <ele>472.351780</ele>
        <time>2021-05-26T17:16:13.901Z</time>
      </trkpt>
      <trkpt lat="42.861529" lon="13.440320">
        <ele>463.110530</ele>
        <time>2021-05-26T17:16:23.585Z</time>
      </trkpt>
      <trkpt lat="42.861844" lon="13.440173">
        <ele>459.138961</ele>
        <time>2021-05-26T17:16:27.699Z</time>
      </trkpt>
      <trkpt lat="42.862320" lon="13.440134">
        <ele>453.450275</ele>
        <time>2021-05-26T17:16:33.586Z</time>
      </trkpt>
      <trkpt lat="42.862359" lon="13.440223">
        <ele>452.543572</ele>
        <time>2021-05-26T17:16:34.526Z</time>
      </trkpt>
      <trkpt lat="42.862185" lon="13.440454">
        <ele>449.614544</ele>
        <time>2021-05-26T17:16:37.535Z</time>
      </trkpt>
      <trkpt lat="42.862156" lon="13.440596">
        <ele>448.281563</ele>
        <time>2021-05-26T17:16:38.875Z</time>
      </trkpt>
      <trkpt lat="42.862203" lon="13.440733">
        <ele>446.913729</ele>
        <time>2021-05-26T17:16:40.256Z</time>
      </trkpt>
      <trkpt lat="42.862343" lon="13.440769">
        <ele>445.156169</ele>
        <time>2021-05-26T17:16:42.017Z</time>
      </trkpt>
      <trkpt lat="42.862683" lon="13.440505">
        <ele>440.329893</ele>
        <time>2021-05-26T17:16:46.856Z</time>
      </trkpt>
      <trkpt lat="42.863078" lon="13.440379">
        <ele>435.325439</ele>
        <time>2021-05-26T17:16:51.868Z</time>
      </trkpt>
      <trkpt lat="42.863522" lon="13.440049">
        <ele>429.087819</ele>
        <time>2021-05-26T17:16:58.121Z</time>
      </trkpt>
      <trkpt lat="42.863878" lon="13.440054">
        <ele>424.423748</ele>
        <time>2021-05-26T17:17:02.514Z</time>
      </trkpt>
      <trkpt lat="42.864187" lon="13.439978">
        <ele>420.267047</ele>
        <time>2021-05-26T17:17:06.369Z</time>
      </trkpt>
      <trkpt lat="42.864477" lon="13.440034">
        <ele>416.389559</ele>
        <time>2021-05-26T17:17:09.957Z</time>
      </trkpt>
      <trkpt lat="42.865009" lon="13.439994">
        <ele>409.335885</ele>
        <time>2021-05-26T17:17:16.459Z</time>
      </trkpt>
      <trkpt lat="42.865868" lon="13.439641">
        <ele>397.098633</ele>
        <time>2021-05-26T17:17:27.384Z</time>
      </trkpt>
      <trkpt lat="42.866291" lon="13.439279">
        <ele>390.154597</ele>
        <time>2021-05-26T17:17:33.493Z</time>
      </trkpt>
      <trkpt lat="42.866513" lon="13.439185">
        <ele>386.922030</ele>
        <time>2021-05-26T17:17:36.277Z</time>
      </trkpt>
      <trkpt lat="42.866821" lon="13.438506">
        <ele>379.019225</ele>
        <time>2021-05-26T17:17:43.400Z</time>
      </trkpt>
      <trkpt lat="42.866894" lon="13.438436">
        <ele>378.141564</ele>
        <time>2021-05-26T17:17:44.475Z</time>
      </trkpt>
      <trkpt lat="42.866993" lon="13.438424">
        <ele>377.163925</ele>
        <time>2021-05-26T17:17:45.739Z</time>
      </trkpt>
      <trkpt lat="42.867110" lon="13.438493">
        <ele>375.910157</ele>
        <time>2021-05-26T17:17:47.375Z</time>
      </trkpt>
      <trkpt lat="42.867325" lon="13.438866">
        <ele>372.489074</ele>
        <time>2021-05-26T17:17:51.717Z</time>
      </trkpt>
      <trkpt lat="42.867388" lon="13.438933">
        <ele>371.703365</ele>
        <time>2021-05-26T17:17:52.665Z</time>
      </trkpt>
      <trkpt lat="42.867451" lon="13.438984">
        <ele>370.982805</ele>
        <time>2021-05-26T17:17:53.580Z</time>
      </trkpt>
      <trkpt lat="42.867657" lon="13.439082">
        <ele>368.836866</ele>
        <time>2021-05-26T17:17:56.499Z</time>
      </trkpt>
      <trkpt lat="42.867699" lon="13.439071">
        <ele>368.416195</ele>
        <time>2021-05-26T17:17:56.995Z</time>
      </trkpt>
      <trkpt lat="42.867848" lon="13.439031">
        <ele>366.922470</ele>
        <time>2021-05-26T17:17:58.961Z</time>
      </trkpt>
      <trkpt lat="42.867979" lon="13.438982">
        <ele>365.586357</ele>
        <time>2021-05-26T17:18:00.963Z</time>
      </trkpt>
      <trkpt lat="42.868022" lon="13.438986">
        <ele>365.162410</ele>
        <time>2021-05-26T17:18:01.506Z</time>
      </trkpt>
      <trkpt lat="42.868094" lon="13.439263">
        <ele>363.043564</ele>
        <time>2021-05-26T17:18:04.356Z</time>
      </trkpt>
      <trkpt lat="42.868127" lon="13.439291">
        <ele>362.661315</ele>
        <time>2021-05-26T17:18:05.047Z</time>
      </trkpt>
      <trkpt lat="42.868113" lon="13.438865">
        <ele>361.714523</ele>
        <time>2021-05-26T17:18:09.110Z</time>
      </trkpt>
      <trkpt lat="42.868078" lon="13.438481">
        <ele>361.492788</ele>
        <time>2021-05-26T17:18:12.949Z</time>
      </trkpt>
      <trkpt lat="42.867973" lon="13.438128">
        <ele>361.274487</ele>
        <time>2021-05-26T17:18:17.890Z</time>
      </trkpt>
      <trkpt lat="42.867889" lon="13.437940">
        <ele>361.148319</ele>
        <time>2021-05-26T17:18:21.267Z</time>
      </trkpt>
      <trkpt lat="42.866792" lon="13.436585">
        <ele>361.990763</ele>
        <time>2021-05-26T17:19:07.353Z</time>
      </trkpt>
      <trkpt lat="42.866045" lon="13.435303">
        <ele>364.764212</ele>
        <time>2021-05-26T17:19:45.611Z</time>
      </trkpt>
      <trkpt lat="42.864994" lon="13.432756">
        <ele>369.536945</ele>
        <time>2021-05-26T17:20:39.437Z</time>
      </trkpt>
      <trkpt lat="42.864853" lon="13.432126">
        <ele>372.269601</ele>
        <time>2021-05-26T17:20:58.220Z</time>
      </trkpt>
      <trkpt lat="42.864736" lon="13.431219">
        <ele>376.090089</ele>
        <time>2021-05-26T17:21:36.050Z</time>
      </trkpt>
      <trkpt lat="42.864691" lon="13.431071">
        <ele>376.754795</ele>
        <time>2021-05-26T17:21:41.724Z</time>
      </trkpt>
      <trkpt lat="42.864834" lon="13.430982">
        <ele>377.774152</ele>
        <time>2021-05-26T17:21:55.729Z</time>
      </trkpt>
      <trkpt lat="42.865110" lon="13.430993">
        <ele>381.172022</ele>
        <time>2021-05-26T17:22:14.458Z</time>
      </trkpt>
      <trkpt lat="42.865302" lon="13.430916">
        <ele>383.634710</ele>
        <time>2021-05-26T17:22:30.250Z</time>
      </trkpt>
      <trkpt lat="42.865423" lon="13.430751">
        <ele>385.739945</ele>
        <time>2021-05-26T17:22:44.632Z</time>
      </trkpt>
      <trkpt lat="42.865395" lon="13.430294">
        <ele>389.876295</ele>
        <time>2021-05-26T17:23:13.418Z</time>
      </trkpt>
      <trkpt lat="42.865626" lon="13.430024">
        <ele>393.619472</ele>
        <time>2021-05-26T17:23:40.019Z</time>
      </trkpt>
      <trkpt lat="42.865744" lon="13.429767">
        <ele>396.354772</ele>
        <time>2021-05-26T17:24:03.170Z</time>
      </trkpt>
      <trkpt lat="42.865727" lon="13.429548">
        <ele>398.341109</ele>
        <time>2021-05-26T17:24:18.687Z</time>
      </trkpt>
      <trkpt lat="42.865538" lon="13.429344">
        <ele>400.889815</ele>
        <time>2021-05-26T17:24:39.736Z</time>
      </trkpt>
      <trkpt lat="42.865502" lon="13.429221">
        <ele>401.780525</ele>
        <time>2021-05-26T17:24:46.604Z</time>
      </trkpt>
      <trkpt lat="42.865553" lon="13.428909">
        <ele>403.930328</ele>
        <time>2021-05-26T17:25:02.769Z</time>
      </trkpt>
      <trkpt lat="42.865874" lon="13.428721">
        <ele>407.135552</ele>
        <time>2021-05-26T17:25:27.468Z</time>
      </trkpt>
      <trkpt lat="42.866158" lon="13.428398">
        <ele>410.528026</ele>
        <time>2021-05-26T17:25:50.866Z</time>
      </trkpt>
      <trkpt lat="42.866160" lon="13.428363">
        <ele>410.764119</ele>
        <time>2021-05-26T17:25:54.401Z</time>
      </trkpt>
      <trkpt lat="42.866167" lon="13.428156">
        <ele>412.157697</ele>
        <time>2021-05-26T17:26:01.905Z</time>
      </trkpt>
      <trkpt lat="42.866124" lon="13.427837">
        <ele>414.338987</ele>
        <time>2021-05-26T17:26:15.597Z</time>
      </trkpt>
      <trkpt lat="42.866043" lon="13.427749">
        <ele>415.289041</ele>
        <time>2021-05-26T17:26:20.070Z</time>
      </trkpt>
      <trkpt lat="42.865964" lon="13.427764">
        <ele>416.020889</ele>
        <time>2021-05-26T17:26:23.159Z</time>
      </trkpt>
      <trkpt lat="42.865820" lon="13.427910">
        <ele>416.959248</ele>
        <time>2021-05-26T17:26:32.930Z</time>
      </trkpt>
      <trkpt lat="42.865651" lon="13.428229">
        <ele>418.353830</ele>
        <time>2021-05-26T17:26:43.212Z</time>
      </trkpt>
      <trkpt lat="42.865386" lon="13.428348">
        <ele>419.702447</ele>
        <time>2021-05-26T17:26:55.343Z</time>
      </trkpt>
      <trkpt lat="42.865047" lon="13.428383">
        <ele>421.345863</ele>
        <time>2021-05-26T17:27:09.561Z</time>
      </trkpt>
      <trkpt lat="42.864910" lon="13.428157">
        <ele>422.384990</ele>
        <time>2021-05-26T17:27:17.390Z</time>
      </trkpt>
      <trkpt lat="42.864776" lon="13.427734">
        <ele>424.017730</ele>
        <time>2021-05-26T17:27:31.351Z</time>
      </trkpt>
      <trkpt lat="42.864692" lon="13.427052">
        <ele>427.568171</ele>
        <time>2021-05-26T17:27:56.251Z</time>
      </trkpt>
      <trkpt lat="42.864706" lon="13.426490">
        <ele>430.928618</ele>
        <time>2021-05-26T17:28:18.989Z</time>
      </trkpt>
      <trkpt lat="42.864653" lon="13.426148">
        <ele>433.017591</ele>
        <time>2021-05-26T17:28:34.007Z</time>
      </trkpt>
      <trkpt lat="42.864526" lon="13.425889">
        <ele>434.879796</ele>
        <time>2021-05-26T17:28:47.622Z</time>
      </trkpt>
      <trkpt lat="42.864512" lon="13.425476">
        <ele>437.350527</ele>
        <time>2021-05-26T17:29:09.146Z</time>
      </trkpt>
      <trkpt lat="42.864586" lon="13.425218">
        <ele>439.006182</ele>
        <time>2021-05-26T17:29:24.624Z</time>
      </trkpt>
      <trkpt lat="42.865235" lon="13.424893">
        <ele>446.879202</ele>
        <time>2021-05-26T17:30:20.855Z</time>
      </trkpt>
      <trkpt lat="42.865483" lon="13.424621">
        <ele>450.608452</ele>
        <time>2021-05-26T17:30:46.210Z</time>
      </trkpt>
      <trkpt lat="42.865699" lon="13.424397">
        <ele>453.788232</ele>
        <time>2021-05-26T17:31:08.244Z</time>
      </trkpt>
      <trkpt lat="42.865904" lon="13.424062">
        <ele>457.537026</ele>
        <time>2021-05-26T17:31:33.191Z</time>
      </trkpt>
      <trkpt lat="42.866407" lon="13.423748">
        <ele>463.665467</ele>
        <time>2021-05-26T17:32:16.298Z</time>
      </trkpt>
      <trkpt lat="42.866864" lon="13.423580">
        <ele>468.635825</ele>
        <time>2021-05-26T17:32:54.183Z</time>
      </trkpt>
      <trkpt lat="42.867115" lon="13.423254">
        <ele>472.275057</ele>
        <time>2021-05-26T17:33:19.751Z</time>
      </trkpt>
      <trkpt lat="42.867271" lon="13.423166">
        <ele>474.047797</ele>
        <time>2021-05-26T17:33:30.996Z</time>
      </trkpt>
      <trkpt lat="42.867506" lon="13.423173">
        <ele>476.516248</ele>
        <time>2021-05-26T17:33:48.231Z</time>
      </trkpt>
      <trkpt lat="42.867692" lon="13.423093">
        <ele>478.564290</ele>
        <time>2021-05-26T17:34:00.170Z</time>
      </trkpt>
      <trkpt lat="42.867735" lon="13.422948">
        <ele>479.640767</ele>
        <time>2021-05-26T17:34:08.229Z</time>
      </trkpt>
      <trkpt lat="42.867727" lon="13.422748">
        <ele>480.452563</ele>
        <time>2021-05-26T17:34:18.107Z</time>
      </trkpt>
      <trkpt lat="42.867791" lon="13.422650">
        <ele>480.984550</ele>
        <time>2021-05-26T17:34:22.713Z</time>
      </trkpt>
      <trkpt lat="42.868161" lon="13.422330">
        <ele>483.407008</ele>
        <time>2021-05-26T17:34:48.424Z</time>
      </trkpt>
      <trkpt lat="42.868461" lon="13.422296">
        <ele>485.071668</ele>
        <time>2021-05-26T17:35:03.790Z</time>
      </trkpt>
      <trkpt lat="42.868679" lon="13.422308">
        <ele>486.278149</ele>
        <time>2021-05-26T17:35:15.590Z</time>
      </trkpt>
      <trkpt lat="42.868617" lon="13.422367">
        <ele>486.696149</ele>
        <time>2021-05-26T17:35:17.058Z</time>
      </trkpt>
      <trkpt lat="42.868314" lon="13.422502">
        <ele>488.458756</ele>
        <time>2021-05-26T17:35:29.049Z</time>
      </trkpt>
      <trkpt lat="42.868097" lon="13.423041">
        <ele>489.518374</ele>
        <time>2021-05-26T17:35:40.020Z</time>
      </trkpt>
      <trkpt lat="42.867768" lon="13.423468">
        <ele>489.640425</ele>
        <time>2021-05-26T17:35:49.528Z</time>
      </trkpt>
      <trkpt lat="42.867445" lon="13.423627">
        <ele>489.732722</ele>
        <time>2021-05-26T17:35:56.458Z</time>
      </trkpt>
      <trkpt lat="42.867128" lon="13.423968">
        <ele>489.841226</ele>
        <time>2021-05-26T17:36:03.794Z</time>
      </trkpt>
      <trkpt lat="42.866757" lon="13.424511">
        <ele>490.520651</ele>
        <time>2021-05-26T17:36:13.763Z</time>
      </trkpt>
      <trkpt lat="42.866552" lon="13.424728">
        <ele>491.222331</ele>
        <time>2021-05-26T17:36:20.965Z</time>
      </trkpt>
      <trkpt lat="42.866533" lon="13.424778">
        <ele>491.333966</ele>
        <time>2021-05-26T17:36:21.668Z</time>
      </trkpt>
      <trkpt lat="42.866604" lon="13.424800">
        <ele>491.530864</ele>
        <time>2021-05-26T17:36:23.150Z</time>
      </trkpt>
      <trkpt lat="42.866619" lon="13.424800">
        <ele>491.571430</ele>
        <time>2021-05-26T17:36:23.343Z</time>
      </trkpt>
      <trkpt lat="42.866619" lon="13.424800">
        <ele>491.571430</ele>
        <time>2021-05-26T17:36:23.622Z</time>
      </trkpt>
      <trkpt lat="42.866619" lon="13.424800">
        <ele>491.571430</ele>
        <time>2021-05-26T17:36:23.622Z</time>
      </trkpt>
      <trkpt lat="42.866620" lon="13.424857">
        <ele>491.684443</ele>
        <time>2021-05-26T17:36:25.415Z</time>
      </trkpt>
      <trkpt lat="42.866716" lon="13.424864">
        <ele>491.944431</ele>
        <time>2021-05-26T17:36:29.522Z</time>
      </trkpt>
      <trkpt lat="42.866837" lon="13.424851">
        <ele>492.272671</ele>
        <time>2021-05-26T17:36:34.709Z</time>
      </trkpt>
      <trkpt lat="42.866941" lon="13.424806">
        <ele>492.567728</ele>
        <time>2021-05-26T17:36:39.384Z</time>
      </trkpt>
      <trkpt lat="42.867027" lon="13.424763">
        <ele>492.815428</ele>
        <time>2021-05-26T17:36:43.300Z</time>
      </trkpt>
      <trkpt lat="42.867137" lon="13.424715">
        <ele>493.127750</ele>
        <time>2021-05-26T17:36:48.236Z</time>
      </trkpt>
      <trkpt lat="42.867221" lon="13.424640">
        <ele>493.399234</ele>
        <time>2021-05-26T17:36:52.530Z</time>
      </trkpt>
      <trkpt lat="42.867291" lon="13.424547">
        <ele>493.663461</ele>
        <time>2021-05-26T17:36:56.731Z</time>
      </trkpt>
      <trkpt lat="42.867375" lon="13.424473">
        <ele>493.933865</ele>
        <time>2021-05-26T17:37:01.009Z</time>
      </trkpt>
      <trkpt lat="42.867460" lon="13.424415">
        <ele>494.190879</ele>
        <time>2021-05-26T17:37:05.073Z</time>
      </trkpt>
      <trkpt lat="42.867560" lon="13.424354">
        <ele>494.487112</ele>
        <time>2021-05-26T17:37:09.757Z</time>
      </trkpt>
      <trkpt lat="42.867658" lon="13.424307">
        <ele>494.768034</ele>
        <time>2021-05-26T17:37:14.223Z</time>
      </trkpt>
      <trkpt lat="42.867748" lon="13.424248">
        <ele>495.371676</ele>
        <time>2021-05-26T17:37:18.493Z</time>
      </trkpt>
      <trkpt lat="42.867953" lon="13.424205">
        <ele>496.695521</ele>
        <time>2021-05-26T17:37:27.378Z</time>
      </trkpt>
      <trkpt lat="42.867954" lon="13.424221">
        <ele>496.770642</ele>
        <time>2021-05-26T17:37:27.895Z</time>
      </trkpt>
      <trkpt lat="42.868343" lon="13.424182">
        <ele>499.260243</ele>
        <time>2021-05-26T17:37:50.051Z</time>
      </trkpt>
      <trkpt lat="42.868878" lon="13.423533">
        <ele>503.829537</ele>
        <time>2021-05-26T17:38:35.767Z</time>
      </trkpt>
      <trkpt lat="42.869167" lon="13.423439">
        <ele>505.725854</ele>
        <time>2021-05-26T17:38:56.316Z</time>
      </trkpt>
      <trkpt lat="42.869353" lon="13.423490">
        <ele>507.315143</ele>
        <time>2021-05-26T17:39:09.583Z</time>
      </trkpt>
      <trkpt lat="42.869623" lon="13.423606">
        <ele>510.152009</ele>
        <time>2021-05-26T17:39:30.400Z</time>
      </trkpt>
      <trkpt lat="42.869831" lon="13.423831">
        <ele>512.812178</ele>
        <time>2021-05-26T17:39:51.158Z</time>
      </trkpt>
      <trkpt lat="42.869914" lon="13.424150">
        <ele>515.298507</ele>
        <time>2021-05-26T17:40:10.696Z</time>
      </trkpt>
      <trkpt lat="42.870063" lon="13.424284">
        <ele>517.086945</ele>
        <time>2021-05-26T17:40:25.484Z</time>
      </trkpt>
      <trkpt lat="42.870260" lon="13.424751">
        <ele>521.044654</ele>
        <time>2021-05-26T17:40:59.149Z</time>
      </trkpt>
      <trkpt lat="42.870830" lon="13.425153">
        <ele>528.923324</ele>
        <time>2021-05-26T17:42:00.201Z</time>
      </trkpt>
      <trkpt lat="42.870957" lon="13.425424">
        <ele>532.363205</ele>
        <time>2021-05-26T17:42:23.712Z</time>
      </trkpt>
      <trkpt lat="42.871030" lon="13.426135">
        <ele>540.040830</ele>
        <time>2021-05-26T17:43:17.743Z</time>
      </trkpt>
      <trkpt lat="42.871097" lon="13.426175">
        <ele>541.107946</ele>
        <time>2021-05-26T17:43:25.341Z</time>
      </trkpt>
      <trkpt lat="42.871246" lon="13.426070">
        <ele>543.554915</ele>
        <time>2021-05-26T17:43:42.851Z</time>
      </trkpt>
      <trkpt lat="42.871756" lon="13.426486">
        <ele>552.621803</ele>
        <time>2021-05-26T17:44:50.847Z</time>
      </trkpt>
      <trkpt lat="42.872019" lon="13.426591">
        <ele>557.564252</ele>
        <time>2021-05-26T17:45:25.581Z</time>
      </trkpt>
      <trkpt lat="42.872343" lon="13.426628">
        <ele>563.428470</ele>
        <time>2021-05-26T17:46:07.173Z</time>
      </trkpt>
      <trkpt lat="42.872644" lon="13.426500">
        <ele>569.114962</ele>
        <time>2021-05-26T17:46:47.348Z</time>
      </trkpt>
      <trkpt lat="42.872888" lon="13.426298">
        <ele>574.262494</ele>
        <time>2021-05-26T17:47:22.998Z</time>
      </trkpt>
      <trkpt lat="42.873115" lon="13.426280">
        <ele>578.363660</ele>
        <time>2021-05-26T17:47:50.791Z</time>
      </trkpt>
      <trkpt lat="42.873060" lon="13.426270">
        <ele>579.364429</ele>
        <time>2021-05-26T17:47:59.044Z</time>
      </trkpt>
      <trkpt lat="42.872955" lon="13.426118">
        <ele>582.125462</ele>
        <time>2021-05-26T17:48:15.528Z</time>
      </trkpt>
      <trkpt lat="42.872902" lon="13.425515">
        <ele>588.626307</ele>
        <time>2021-05-26T17:49:07.840Z</time>
      </trkpt>
      <trkpt lat="42.872673" lon="13.424815">
        <ele>596.600829</ele>
        <time>2021-05-26T17:50:10.767Z</time>
      </trkpt>
      <trkpt lat="42.872627" lon="13.424447">
        <ele>600.484347</ele>
        <time>2021-05-26T17:50:42.139Z</time>
      </trkpt>
      <trkpt lat="42.872656" lon="13.424235">
        <ele>602.727831</ele>
        <time>2021-05-26T17:50:55.166Z</time>
      </trkpt>
      <trkpt lat="42.872562" lon="13.423890">
        <ele>606.556807</ele>
        <time>2021-05-26T17:51:16.512Z</time>
      </trkpt>
      <trkpt lat="42.872574" lon="13.423764">
        <ele>607.878583</ele>
        <time>2021-05-26T17:51:23.946Z</time>
      </trkpt>
      <trkpt lat="42.872681" lon="13.423061">
        <ele>611.971073</ele>
        <time>2021-05-26T17:52:03.901Z</time>
      </trkpt>
      <trkpt lat="42.872999" lon="13.422309">
        <ele>616.538816</ele>
        <time>2021-05-26T17:52:47.743Z</time>
      </trkpt>
      <trkpt lat="42.873259" lon="13.421462">
        <ele>621.370074</ele>
        <time>2021-05-26T17:53:27.926Z</time>
      </trkpt>
      <trkpt lat="42.873483" lon="13.420332">
        <ele>625.650343</ele>
        <time>2021-05-26T17:54:14.856Z</time>
      </trkpt>
      <trkpt lat="42.873707" lon="13.419559">
        <ele>628.677031</ele>
        <time>2021-05-26T17:54:47.762Z</time>
      </trkpt>
      <trkpt lat="42.873648" lon="13.419380">
        <ele>629.391691</ele>
        <time>2021-05-26T17:54:55.317Z</time>
      </trkpt>
      <trkpt lat="42.873349" lon="13.419204">
        <ele>631.576575</ele>
        <time>2021-05-26T17:55:14.025Z</time>
      </trkpt>
      <trkpt lat="42.872742" lon="13.418382">
        <ele>639.560440</ele>
        <time>2021-05-26T17:56:13.365Z</time>
      </trkpt>
      <trkpt lat="42.872572" lon="13.417905">
        <ele>643.189460</ele>
        <time>2021-05-26T17:56:46.507Z</time>
      </trkpt>
      <trkpt lat="42.872443" lon="13.417016">
        <ele>650.340257</ele>
        <time>2021-05-26T17:57:52.076Z</time>
      </trkpt>
      <trkpt lat="42.872538" lon="13.416443">
        <ele>656.069720</ele>
        <time>2021-05-26T17:58:39.887Z</time>
      </trkpt>
      <trkpt lat="42.873405" lon="13.414613">
        <ele>674.274758</ele>
        <time>2021-05-26T18:01:14.575Z</time>
      </trkpt>
      <trkpt lat="42.873428" lon="13.414542">
        <ele>674.661575</ele>
        <time>2021-05-26T18:01:22.869Z</time>
      </trkpt>
      <trkpt lat="42.873408" lon="13.414534">
        <ele>674.803286</ele>
        <time>2021-05-26T18:01:23.293Z</time>
      </trkpt>
      <trkpt lat="42.873046" lon="13.414019">
        <ele>678.359154</ele>
        <time>2021-05-26T18:01:54.715Z</time>
      </trkpt>
      <trkpt lat="42.872999" lon="13.413719">
        <ele>679.887848</ele>
        <time>2021-05-26T18:02:08.364Z</time>
      </trkpt>
      <trkpt lat="42.873022" lon="13.413306">
        <ele>681.951784</ele>
        <time>2021-05-26T18:02:24.797Z</time>
      </trkpt>
      <trkpt lat="42.873113" lon="13.412947">
        <ele>683.433122</ele>
        <time>2021-05-26T18:02:32.584Z</time>
      </trkpt>
      <trkpt lat="42.873168" lon="13.412769">
        <ele>683.638643</ele>
        <time>2021-05-26T18:02:39.932Z</time>
      </trkpt>
      <trkpt lat="42.873765" lon="13.412201">
        <ele>684.695199</ele>
        <time>2021-05-26T18:03:02.629Z</time>
      </trkpt>
      <trkpt lat="42.873950" lon="13.411369">
        <ele>685.620212</ele>
        <time>2021-05-26T18:03:27.313Z</time>
      </trkpt>
      <trkpt lat="42.874056" lon="13.411080">
        <ele>685.995020</ele>
        <time>2021-05-26T18:03:39.817Z</time>
      </trkpt>
      <trkpt lat="42.874728" lon="13.410398">
        <ele>688.406458</ele>
        <time>2021-05-26T18:04:20.652Z</time>
      </trkpt>
      <trkpt lat="42.875039" lon="13.410339">
        <ele>689.310555</ele>
        <time>2021-05-26T18:04:35.673Z</time>
      </trkpt>
      <trkpt lat="42.875467" lon="13.410490">
        <ele>690.583450</ele>
        <time>2021-05-26T18:04:55.780Z</time>
      </trkpt>
      <trkpt lat="42.875821" lon="13.410447">
        <ele>691.108381</ele>
        <time>2021-05-26T18:05:11.073Z</time>
      </trkpt>
      <trkpt lat="42.875849" lon="13.410366">
        <ele>691.107194</ele>
        <time>2021-05-26T18:05:13.856Z</time>
      </trkpt>
      <trkpt lat="42.875821" lon="13.410152">
        <ele>691.104312</ele>
        <time>2021-05-26T18:05:20.270Z</time>
      </trkpt>
      <trkpt lat="42.875436" lon="13.409712">
        <ele>691.095229</ele>
        <time>2021-05-26T18:05:38.784Z</time>
      </trkpt>
      <trkpt lat="42.875157" lon="13.409132">
        <ele>691.086032</ele>
        <time>2021-05-26T18:05:54.382Z</time>
      </trkpt>
      <trkpt lat="42.875145" lon="13.408741">
        <ele>691.080845</ele>
        <time>2021-05-26T18:06:02.300Z</time>
      </trkpt>
      <trkpt lat="42.875243" lon="13.408215">
        <ele>689.310555</ele>
        <time>2021-05-26T18:06:12.842Z</time>
      </trkpt>
      <trkpt lat="42.875236" lon="13.407604">
        <ele>686.611949</ele>
        <time>2021-05-26T18:06:23.746Z</time>
      </trkpt>
      <trkpt lat="42.875314" lon="13.407013">
        <ele>683.960010</ele>
        <time>2021-05-26T18:06:33.663Z</time>
      </trkpt>
      <trkpt lat="42.875331" lon="13.406589">
        <ele>682.084759</ele>
        <time>2021-05-26T18:06:40.988Z</time>
      </trkpt>
      <trkpt lat="42.875342" lon="13.406418">
        <ele>681.326692</ele>
        <time>2021-05-26T18:06:43.642Z</time>
      </trkpt>
      <trkpt lat="42.875263" lon="13.406267">
        <ele>680.507356</ele>
        <time>2021-05-26T18:06:46.791Z</time>
      </trkpt>
      <trkpt lat="42.875252" lon="13.406116">
        <ele>679.549718</ele>
        <time>2021-05-26T18:06:49.332Z</time>
      </trkpt>
      <trkpt lat="42.875252" lon="13.406116">
        <ele>679.549718</ele>
        <time>2021-05-26T18:06:49.585Z</time>
      </trkpt>
      <trkpt lat="42.875252" lon="13.406116">
        <ele>679.549718</ele>
        <time>2021-05-26T18:06:49.585Z</time>
      </trkpt>
      <trkpt lat="42.875169" lon="13.406127">
        <ele>678.688586</ele>
        <time>2021-05-26T18:06:53.159Z</time>
      </trkpt>
      <trkpt lat="42.875108" lon="13.406023">
        <ele>677.680509</ele>
        <time>2021-05-26T18:06:57.348Z</time>
      </trkpt>
      <trkpt lat="42.875056" lon="13.405920">
        <ele>676.733980</ele>
        <time>2021-05-26T18:07:01.281Z</time>
      </trkpt>
      <trkpt lat="42.875025" lon="13.405783">
        <ele>675.648914</ele>
        <time>2021-05-26T18:07:05.825Z</time>
      </trkpt>
      <trkpt lat="42.874971" lon="13.405658">
        <ele>674.550829</ele>
        <time>2021-05-26T18:07:10.394Z</time>
      </trkpt>
      <trkpt lat="42.874906" lon="13.405529">
        <ele>673.366108</ele>
        <time>2021-05-26T18:07:15.319Z</time>
      </trkpt>
      <trkpt lat="42.874833" lon="13.405441">
        <ele>672.360243</ele>
        <time>2021-05-26T18:07:19.500Z</time>
      </trkpt>
      <trkpt lat="42.874743" lon="13.405342">
        <ele>671.166485</ele>
        <time>2021-05-26T18:07:24.495Z</time>
      </trkpt>
      <trkpt lat="42.874677" lon="13.405252">
        <ele>670.202952</ele>
        <time>2021-05-26T18:07:28.499Z</time>
      </trkpt>
      <trkpt lat="42.874590" lon="13.405173">
        <ele>669.123806</ele>
        <time>2021-05-26T18:07:32.981Z</time>
      </trkpt>
      <trkpt lat="42.874494" lon="13.405071">
        <ele>667.867381</ele>
        <time>2021-05-26T18:07:38.240Z</time>
      </trkpt>
      <trkpt lat="42.874391" lon="13.405027">
        <ele>666.752849</ele>
        <time>2021-05-26T18:07:42.867Z</time>
      </trkpt>
      <trkpt lat="42.874291" lon="13.405027">
        <ele>665.720199</ele>
        <time>2021-05-26T18:07:47.150Z</time>
      </trkpt>
      <trkpt lat="42.874216" lon="13.404953">
        <ele>664.764456</ele>
        <time>2021-05-26T18:07:51.124Z</time>
      </trkpt>
      <trkpt lat="42.874128" lon="13.404927">
        <ele>663.834666</ele>
        <time>2021-05-26T18:07:55.035Z</time>
      </trkpt>
      <trkpt lat="42.874019" lon="13.404949">
        <ele>662.696832</ele>
        <time>2021-05-26T18:07:59.760Z</time>
      </trkpt>
      <trkpt lat="42.873927" lon="13.404989">
        <ele>661.699733</ele>
        <time>2021-05-26T18:08:03.902Z</time>
      </trkpt>
      <trkpt lat="42.873813" lon="13.404995">
        <ele>660.372531</ele>
        <time>2021-05-26T18:08:08.810Z</time>
      </trkpt>
      <trkpt lat="42.873698" lon="13.404972">
        <ele>659.015969</ele>
        <time>2021-05-26T18:08:13.802Z</time>
      </trkpt>
      <trkpt lat="42.873611" lon="13.404915">
        <ele>657.889566</ele>
        <time>2021-05-26T18:08:17.943Z</time>
      </trkpt>
      <trkpt lat="42.873501" lon="13.404868">
        <ele>656.544233</ele>
        <time>2021-05-26T18:08:22.898Z</time>
      </trkpt>
      <trkpt lat="42.873386" lon="13.404827">
        <ele>655.156953</ele>
        <time>2021-05-26T18:08:28.010Z</time>
      </trkpt>
      <trkpt lat="42.873283" lon="13.404797">
        <ele>653.927708</ele>
        <time>2021-05-26T18:08:32.529Z</time>
      </trkpt>
      <trkpt lat="42.873176" lon="13.404860">
        <ele>652.567557</ele>
        <time>2021-05-26T18:08:37.537Z</time>
      </trkpt>
      <trkpt lat="42.873085" lon="13.404849">
        <ele>651.501292</ele>
        <time>2021-05-26T18:08:41.470Z</time>
      </trkpt>
      <trkpt lat="42.872992" lon="13.404818">
        <ele>650.383926</ele>
        <time>2021-05-26T18:08:45.581Z</time>
      </trkpt>
      <trkpt lat="42.872907" lon="13.404766">
        <ele>649.296703</ele>
        <time>2021-05-26T18:08:49.581Z</time>
      </trkpt>
      <trkpt lat="42.872830" lon="13.404702">
        <ele>648.244396</ele>
        <time>2021-05-26T18:08:53.459Z</time>
      </trkpt>
      <trkpt lat="42.872735" lon="13.404682">
        <ele>647.122485</ele>
        <time>2021-05-26T18:08:57.595Z</time>
      </trkpt>
      <trkpt lat="42.872641" lon="13.404691">
        <ele>646.022667</ele>
        <time>2021-05-26T18:09:01.642Z</time>
      </trkpt>
      <trkpt lat="42.872553" lon="13.404654">
        <ele>644.947922</ele>
        <time>2021-05-26T18:09:05.598Z</time>
      </trkpt>
      <trkpt lat="42.872455" lon="13.404634">
        <ele>643.791393</ele>
        <time>2021-05-26T18:09:09.858Z</time>
      </trkpt>
      <trkpt lat="42.872366" lon="13.404602">
        <ele>642.717173</ele>
        <time>2021-05-26T18:09:13.816Z</time>
      </trkpt>
      <trkpt lat="42.872265" lon="13.404571">
        <ele>641.508898</ele>
        <time>2021-05-26T18:09:18.263Z</time>
      </trkpt>
      <trkpt lat="42.872157" lon="13.404534">
        <ele>640.168679</ele>
        <time>2021-05-26T18:09:23.049Z</time>
      </trkpt>
      <trkpt lat="42.872059" lon="13.404527">
        <ele>638.923224</ele>
        <time>2021-05-26T18:09:27.269Z</time>
      </trkpt>
      <trkpt lat="42.871949" lon="13.404454">
        <ele>637.370817</ele>
        <time>2021-05-26T18:09:32.530Z</time>
      </trkpt>
      <trkpt lat="42.871844" lon="13.404426">
        <ele>636.013016</ele>
        <time>2021-05-26T18:09:37.128Z</time>
      </trkpt>
      <trkpt lat="42.871649" lon="13.404366">
        <ele>633.476061</ele>
        <time>2021-05-26T18:09:45.726Z</time>
      </trkpt>
      <trkpt lat="42.871573" lon="13.404291">
        <ele>632.285693</ele>
        <time>2021-05-26T18:09:49.762Z</time>
      </trkpt>
      <trkpt lat="42.871485" lon="13.404223">
        <ele>631.002197</ele>
        <time>2021-05-26T18:09:54.113Z</time>
      </trkpt>
      <trkpt lat="42.871402" lon="13.404166">
        <ele>629.822920</ele>
        <time>2021-05-26T18:09:58.114Z</time>
      </trkpt>
      <trkpt lat="42.871302" lon="13.404060">
        <ele>628.215821</ele>
        <time>2021-05-26T18:10:03.567Z</time>
      </trkpt>
      <trkpt lat="42.871226" lon="13.403985">
        <ele>627.025450</ele>
        <time>2021-05-26T18:10:07.604Z</time>
      </trkpt>
      <trkpt lat="42.871114" lon="13.403951">
        <ele>625.569266</ele>
        <time>2021-05-26T18:10:12.541Z</time>
      </trkpt>
      <trkpt lat="42.871021" lon="13.403898">
        <ele>624.290159</ele>
        <time>2021-05-26T18:10:16.879Z</time>
      </trkpt>
      <trkpt lat="42.870923" lon="13.403921">
        <ele>623.028143</ele>
        <time>2021-05-26T18:10:21.156Z</time>
      </trkpt>
      <trkpt lat="42.870836" lon="13.403991">
        <ele>621.746323</ele>
        <time>2021-05-26T18:10:25.504Z</time>
      </trkpt>
      <trkpt lat="42.870766" lon="13.403897">
        <ele>620.499851</ele>
        <time>2021-05-26T18:10:29.739Z</time>
      </trkpt>
      <trkpt lat="42.870673" lon="13.403876">
        <ele>619.303503</ele>
        <time>2021-05-26T18:10:33.796Z</time>
      </trkpt>
      <trkpt lat="42.870581" lon="13.403893">
        <ele>618.125241</ele>
        <time>2021-05-26T18:10:37.790Z</time>
      </trkpt>
      <trkpt lat="42.870483" lon="13.403942">
        <ele>616.690453</ele>
        <time>2021-05-26T18:10:42.283Z</time>
      </trkpt>
      <trkpt lat="42.870384" lon="13.403961">
        <ele>615.287990</ele>
        <time>2021-05-26T18:10:46.587Z</time>
      </trkpt>
      <trkpt lat="42.870297" lon="13.403891">
        <ele>613.871145</ele>
        <time>2021-05-26T18:10:50.938Z</time>
      </trkpt>
      <trkpt lat="42.870258" lon="13.403775">
        <ele>612.559024</ele>
        <time>2021-05-26T18:10:54.976Z</time>
      </trkpt>
      <trkpt lat="42.870165" lon="13.403757">
        <ele>611.241342</ele>
        <time>2021-05-26T18:10:59.020Z</time>
      </trkpt>
      <trkpt lat="42.870064" lon="13.403698">
        <ele>609.700104</ele>
        <time>2021-05-26T18:11:03.753Z</time>
      </trkpt>
      <trkpt lat="42.869970" lon="13.403616">
        <ele>608.134986</ele>
        <time>2021-05-26T18:11:08.561Z</time>
      </trkpt>
      <trkpt lat="42.869876" lon="13.403612">
        <ele>606.815695</ele>
        <time>2021-05-26T18:11:12.611Z</time>
      </trkpt>
      <trkpt lat="42.869778" lon="13.403570">
        <ele>605.374710</ele>
        <time>2021-05-26T18:11:17.037Z</time>
      </trkpt>
      <trkpt lat="42.869682" lon="13.403585">
        <ele>604.019201</ele>
        <time>2021-05-26T18:11:21.198Z</time>
      </trkpt>
      <trkpt lat="42.869589" lon="13.403569">
        <ele>602.704249</ele>
        <time>2021-05-26T18:11:25.235Z</time>
      </trkpt>
      <trkpt lat="42.869499" lon="13.403494">
        <ele>601.224858</ele>
        <time>2021-05-26T18:11:29.782Z</time>
      </trkpt>
      <trkpt lat="42.869411" lon="13.403447">
        <ele>599.899170</ele>
        <time>2021-05-26T18:11:33.856Z</time>
      </trkpt>
      <trkpt lat="42.869271" lon="13.403396">
        <ele>597.866430</ele>
        <time>2021-05-26T18:11:40.100Z</time>
      </trkpt>
      <trkpt lat="42.869193" lon="13.403311">
        <ele>596.466071</ele>
        <time>2021-05-26T18:11:44.407Z</time>
      </trkpt>
      <trkpt lat="42.869098" lon="13.403270">
        <ele>595.068314</ele>
        <time>2021-05-26T18:11:48.703Z</time>
      </trkpt>
      <trkpt lat="42.869001" lon="13.403184">
        <ele>593.445535</ele>
        <time>2021-05-26T18:11:53.693Z</time>
      </trkpt>
      <trkpt lat="42.868914" lon="13.403102">
        <ele>591.903849</ele>
        <time>2021-05-26T18:11:58.256Z</time>
      </trkpt>
      <trkpt lat="42.868812" lon="13.403047">
        <ele>590.227699</ele>
        <time>2021-05-26T18:12:02.986Z</time>
      </trkpt>
      <trkpt lat="42.868702" lon="13.403028">
        <ele>588.533185</ele>
        <time>2021-05-26T18:12:07.766Z</time>
      </trkpt>
      <trkpt lat="42.868621" lon="13.402959">
        <ele>587.073833</ele>
        <time>2021-05-26T18:12:11.887Z</time>
      </trkpt>
      <trkpt lat="42.868572" lon="13.402846">
        <ele>585.603191</ele>
        <time>2021-05-26T18:12:16.047Z</time>
      </trkpt>
      <trkpt lat="42.868511" lon="13.402740">
        <ele>584.093635</ele>
        <time>2021-05-26T18:12:20.316Z</time>
      </trkpt>
      <trkpt lat="42.868453" lon="13.402437">
        <ele>580.585904</ele>
        <time>2021-05-26T18:12:30.247Z</time>
      </trkpt>
      <trkpt lat="42.868388" lon="13.402310">
        <ele>578.850865</ele>
        <time>2021-05-26T18:12:35.155Z</time>
      </trkpt>
      <trkpt lat="42.868314" lon="13.402230">
        <ele>577.407974</ele>
        <time>2021-05-26T18:12:39.233Z</time>
      </trkpt>
      <trkpt lat="42.868247" lon="13.402114">
        <ele>575.753685</ele>
        <time>2021-05-26T18:12:43.913Z</time>
      </trkpt>
      <trkpt lat="42.868172" lon="13.402023">
        <ele>574.219823</ele>
        <time>2021-05-26T18:12:48.250Z</time>
      </trkpt>
      <trkpt lat="42.868076" lon="13.401926">
        <ele>572.394179</ele>
        <time>2021-05-26T18:12:53.410Z</time>
      </trkpt>
      <trkpt lat="42.867973" lon="13.401829">
        <ele>570.481504</ele>
        <time>2021-05-26T18:12:58.816Z</time>
      </trkpt>
      <trkpt lat="42.867897" lon="13.401763">
        <ele>569.104708</ele>
        <time>2021-05-26T18:13:02.707Z</time>
      </trkpt>
      <trkpt lat="42.867784" lon="13.401669">
        <ele>567.082102</ele>
        <time>2021-05-26T18:13:08.423Z</time>
      </trkpt>
      <trkpt lat="42.867668" lon="13.401592">
        <ele>565.110018</ele>
        <time>2021-05-26T18:13:13.994Z</time>
      </trkpt>
      <trkpt lat="42.867560" lon="13.401430">
        <ele>562.561651</ele>
        <time>2021-05-26T18:13:20.934Z</time>
      </trkpt>
      <trkpt lat="42.867443" lon="13.401428">
        <ele>560.703873</ele>
        <time>2021-05-26T18:13:25.984Z</time>
      </trkpt>
      <trkpt lat="42.867333" lon="13.401390">
        <ele>558.902270</ele>
        <time>2021-05-26T18:13:30.882Z</time>
      </trkpt>
      <trkpt lat="42.867226" lon="13.401356">
        <ele>557.157946</ele>
        <time>2021-05-26T18:13:35.625Z</time>
      </trkpt>
      <trkpt lat="42.867114" lon="13.401335">
        <ele>555.362988</ele>
        <time>2021-05-26T18:13:40.505Z</time>
      </trkpt>
      <trkpt lat="42.867020" lon="13.401287">
        <ele>553.769429</ele>
        <time>2021-05-26T18:13:44.839Z</time>
      </trkpt>
      <trkpt lat="42.866788" lon="13.401253">
        <ele>550.064732</ele>
        <time>2021-05-26T18:13:54.911Z</time>
      </trkpt>
      <trkpt lat="42.866695" lon="13.401188">
        <ele>548.405686</ele>
        <time>2021-05-26T18:13:59.426Z</time>
      </trkpt>
      <trkpt lat="42.866629" lon="13.401103">
        <ele>546.964682</ele>
        <time>2021-05-26T18:14:03.350Z</time>
      </trkpt>
      <trkpt lat="42.866541" lon="13.400994">
        <ele>545.077600</ele>
        <time>2021-05-26T18:14:08.488Z</time>
      </trkpt>
      <trkpt lat="42.866437" lon="13.400945">
        <ele>543.330688</ele>
        <time>2021-05-26T18:14:13.239Z</time>
      </trkpt>
      <trkpt lat="42.866323" lon="13.400902">
        <ele>541.452792</ele>
        <time>2021-05-26T18:14:18.347Z</time>
      </trkpt>
      <trkpt lat="42.866218" lon="13.400871">
        <ele>539.747102</ele>
        <time>2021-05-26T18:14:22.984Z</time>
      </trkpt>
      <trkpt lat="42.866117" lon="13.400839">
        <ele>538.100835</ele>
        <time>2021-05-26T18:14:27.460Z</time>
      </trkpt>
      <trkpt lat="42.866038" lon="13.400760">
        <ele>536.546318</ele>
        <time>2021-05-26T18:14:31.694Z</time>
      </trkpt>
      <trkpt lat="42.865942" lon="13.400758">
        <ele>535.061933</ele>
        <time>2021-05-26T18:14:35.837Z</time>
      </trkpt>
      <trkpt lat="42.865851" lon="13.400826">
        <ele>533.457826</ele>
        <time>2021-05-26T18:14:40.318Z</time>
      </trkpt>
      <trkpt lat="42.865809" lon="13.400695">
        <ele>531.837554</ele>
        <time>2021-05-26T18:14:44.855Z</time>
      </trkpt>
      <trkpt lat="42.865812" lon="13.400559">
        <ele>530.295732</ele>
        <time>2021-05-26T18:14:49.175Z</time>
      </trkpt>
      <trkpt lat="42.865834" lon="13.400437">
        <ele>528.872027</ele>
        <time>2021-05-26T18:14:53.161Z</time>
      </trkpt>
      <trkpt lat="42.865820" lon="13.400305">
        <ele>527.360652</ele>
        <time>2021-05-26T18:14:57.395Z</time>
      </trkpt>
      <trkpt lat="42.865759" lon="13.400164">
        <ele>525.505298</ele>
        <time>2021-05-26T18:15:02.588Z</time>
      </trkpt>
      <trkpt lat="42.865673" lon="13.400050">
        <ele>523.651472</ele>
        <time>2021-05-26T18:15:07.769Z</time>
      </trkpt>
      <trkpt lat="42.865584" lon="13.400012">
        <ele>522.209679</ele>
        <time>2021-05-26T18:15:11.793Z</time>
      </trkpt>
      <trkpt lat="42.865503" lon="13.400069">
        <ele>520.800611</ele>
        <time>2021-05-26T18:15:15.729Z</time>
      </trkpt>
      <trkpt lat="42.865449" lon="13.400172">
        <ele>519.365578</ele>
        <time>2021-05-26T18:15:19.744Z</time>
      </trkpt>
      <trkpt lat="42.865414" lon="13.400285">
        <ele>517.975437</ele>
        <time>2021-05-26T18:15:23.633Z</time>
      </trkpt>
      <trkpt lat="42.864949" lon="13.399865">
        <ele>509.353614</ele>
        <time>2021-05-26T18:15:47.708Z</time>
      </trkpt>
      <trkpt lat="42.864877" lon="13.399773">
        <ele>507.906380</ele>
        <time>2021-05-26T18:15:51.969Z</time>
      </trkpt>
      <trkpt lat="42.864797" lon="13.399688">
        <ele>506.469642</ele>
        <time>2021-05-26T18:15:56.344Z</time>
      </trkpt>
      <trkpt lat="42.864700" lon="13.399648">
        <ele>505.033807</ele>
        <time>2021-05-26T18:16:00.713Z</time>
      </trkpt>
      <trkpt lat="42.864616" lon="13.399598">
        <ele>503.735237</ele>
        <time>2021-05-26T18:16:04.667Z</time>
      </trkpt>
      <trkpt lat="42.864517" lon="13.399535">
        <ele>502.187385</ele>
        <time>2021-05-26T18:16:09.377Z</time>
      </trkpt>
      <trkpt lat="42.864435" lon="13.399455">
        <ele>500.758998</ele>
        <time>2021-05-26T18:16:13.726Z</time>
      </trkpt>
      <trkpt lat="42.864342" lon="13.399412">
        <ele>499.367633</ele>
        <time>2021-05-26T18:16:17.958Z</time>
      </trkpt>
      <trkpt lat="42.864248" lon="13.399358">
        <ele>497.922459</ele>
        <time>2021-05-26T18:16:22.356Z</time>
      </trkpt>
      <trkpt lat="42.864108" lon="13.399212">
        <ele>495.425604</ele>
        <time>2021-05-26T18:16:29.955Z</time>
      </trkpt>
      <trkpt lat="42.864006" lon="13.399123">
        <ele>493.710031</ele>
        <time>2021-05-26T18:16:35.176Z</time>
      </trkpt>
      <trkpt lat="42.863940" lon="13.399018">
        <ele>492.273458</ele>
        <time>2021-05-26T18:16:39.552Z</time>
      </trkpt>
      <trkpt lat="42.863853" lon="13.398941">
        <ele>490.804053</ele>
        <time>2021-05-26T18:16:44.021Z</time>
      </trkpt>
      <trkpt lat="42.863814" lon="13.398804">
        <ele>489.277666</ele>
        <time>2021-05-26T18:16:48.673Z</time>
      </trkpt>
      <trkpt lat="42.863754" lon="13.398677">
        <ele>487.708429</ele>
        <time>2021-05-26T18:16:53.455Z</time>
      </trkpt>
      <trkpt lat="42.863621" lon="13.398463">
        <ele>484.794470</ele>
        <time>2021-05-26T18:17:02.322Z</time>
      </trkpt>
      <trkpt lat="42.863530" lon="13.398419">
        <ele>483.426478</ele>
        <time>2021-05-26T18:17:06.480Z</time>
      </trkpt>
      <trkpt lat="42.863461" lon="13.398339">
        <ele>482.276973</ele>
        <time>2021-05-26T18:17:10.387Z</time>
      </trkpt>
      <trkpt lat="42.863414" lon="13.398234">
        <ele>481.149912</ele>
        <time>2021-05-26T18:17:14.275Z</time>
      </trkpt>
      <trkpt lat="42.863357" lon="13.397679">
        <ele>476.016007</ele>
        <time>2021-05-26T18:17:32.006Z</time>
      </trkpt>
      <trkpt lat="42.863326" lon="13.397866">
        <ele>474.259672</ele>
        <time>2021-05-26T18:17:38.073Z</time>
      </trkpt>
      <trkpt lat="42.863226" lon="13.397849">
        <ele>473.000202</ele>
        <time>2021-05-26T18:17:42.413Z</time>
      </trkpt>
      <trkpt lat="42.863131" lon="13.397845">
        <ele>471.812322</ele>
        <time>2021-05-26T18:17:46.492Z</time>
      </trkpt>
      <trkpt lat="42.863139" lon="13.397707">
        <ele>470.544180</ele>
        <time>2021-05-26T18:17:50.865Z</time>
      </trkpt>
      <trkpt lat="42.863052" lon="13.397650">
        <ele>469.337969</ele>
        <time>2021-05-26T18:17:55.022Z</time>
      </trkpt>
      <trkpt lat="42.863045" lon="13.397523">
        <ele>468.171257</ele>
        <time>2021-05-26T18:17:59.052Z</time>
      </trkpt>
      <trkpt lat="42.863035" lon="13.397388">
        <ele>466.928244</ele>
        <time>2021-05-26T18:18:03.330Z</time>
      </trkpt>
      <trkpt lat="42.863079" lon="13.397235">
        <ele>465.422618</ele>
        <time>2021-05-26T18:18:08.531Z</time>
      </trkpt>
      <trkpt lat="42.863157" lon="13.397116">
        <ele>463.960178</ele>
        <time>2021-05-26T18:18:13.618Z</time>
      </trkpt>
      <trkpt lat="42.863246" lon="13.396993">
        <ele>462.376857</ele>
        <time>2021-05-26T18:18:19.052Z</time>
      </trkpt>
      <trkpt lat="42.863381" lon="13.396771">
        <ele>460.252314</ele>
        <time>2021-05-26T18:18:28.189Z</time>
      </trkpt>
      <trkpt lat="42.863427" lon="13.396657">
        <ele>459.641768</ele>
        <time>2021-05-26T18:18:32.283Z</time>
      </trkpt>
      <trkpt lat="42.863498" lon="13.396559">
        <ele>458.995283</ele>
        <time>2021-05-26T18:18:36.612Z</time>
      </trkpt>
      <trkpt lat="42.863561" lon="13.396465">
        <ele>458.397692</ele>
        <time>2021-05-26T18:18:40.641Z</time>
      </trkpt>
      <trkpt lat="42.863505" lon="13.396341">
        <ele>457.714358</ele>
        <time>2021-05-26T18:18:45.247Z</time>
      </trkpt>
      <trkpt lat="42.863315" lon="13.396477">
        <ele>456.340964</ele>
        <time>2021-05-26T18:18:54.432Z</time>
      </trkpt>
      <trkpt lat="42.863211" lon="13.396579">
        <ele>455.521108</ele>
        <time>2021-05-26T18:18:59.954Z</time>
      </trkpt>
      <trkpt lat="42.863116" lon="13.396626">
        <ele>454.874274</ele>
        <time>2021-05-26T18:19:04.274Z</time>
      </trkpt>
      <trkpt lat="42.863047" lon="13.396510">
        <ele>454.173371</ele>
        <time>2021-05-26T18:19:08.964Z</time>
      </trkpt>
      <trkpt lat="42.862991" lon="13.396651">
        <ele>453.420963</ele>
        <time>2021-05-26T18:19:14.031Z</time>
      </trkpt>
      <trkpt lat="42.862984" lon="13.396529">
        <ele>452.846819</ele>
        <time>2021-05-26T18:19:15.491Z</time>
      </trkpt>
      <trkpt lat="42.862728" lon="13.395395">
        <ele>449.875350</ele>
        <time>2021-05-26T18:19:29.153Z</time>
      </trkpt>
      <trkpt lat="42.862421" lon="13.393133">
        <ele>453.565846</ele>
        <time>2021-05-26T18:20:26.039Z</time>
      </trkpt>
      <trkpt lat="42.861550" lon="13.391310">
        <ele>460.559402</ele>
        <time>2021-05-26T18:21:35.811Z</time>
      </trkpt>
      <trkpt lat="42.861534" lon="13.391278">
        <ele>460.637838</ele>
        <time>2021-05-26T18:21:39.221Z</time>
      </trkpt>
      <trkpt lat="42.861488" lon="13.390843">
        <ele>461.464938</ele>
        <time>2021-05-26T18:21:48.889Z</time>
      </trkpt>
      <trkpt lat="42.861521" lon="13.390386">
        <ele>462.329127</ele>
        <time>2021-05-26T18:22:00.782Z</time>
      </trkpt>
      <trkpt lat="42.861521" lon="13.390144">
        <ele>462.784546</ele>
        <time>2021-05-26T18:22:08.210Z</time>
      </trkpt>
      <trkpt lat="42.861505" lon="13.389897">
        <ele>463.251186</ele>
        <time>2021-05-26T18:22:12.513Z</time>
      </trkpt>
      <trkpt lat="42.861291" lon="13.388579">
        <ele>465.386677</ele>
        <time>2021-05-26T18:22:39.434Z</time>
      </trkpt>
      <trkpt lat="42.861311" lon="13.387777">
        <ele>465.879353</ele>
        <time>2021-05-26T18:22:52.146Z</time>
      </trkpt>
      <trkpt lat="42.861350" lon="13.387532">
        <ele>466.033278</ele>
        <time>2021-05-26T18:22:55.649Z</time>
      </trkpt>
      <trkpt lat="42.861354" lon="13.387446">
        <ele>466.086184</ele>
        <time>2021-05-26T18:22:57.191Z</time>
      </trkpt>
      <trkpt lat="42.861344" lon="13.387332">
        <ele>466.156674</ele>
        <time>2021-05-26T18:22:59.144Z</time>
      </trkpt>
      <trkpt lat="42.861330" lon="13.387237">
        <ele>466.216167</ele>
        <time>2021-05-26T18:23:00.589Z</time>
      </trkpt>
      <trkpt lat="42.861204" lon="13.386687">
        <ele>466.569950</ele>
        <time>2021-05-26T18:23:10.208Z</time>
      </trkpt>
      <trkpt lat="42.861058" lon="13.385941">
        <ele>467.730513</ele>
        <time>2021-05-26T18:23:24.060Z</time>
      </trkpt>
      <trkpt lat="42.861064" lon="13.385683">
        <ele>468.202624</ele>
        <time>2021-05-26T18:23:29.205Z</time>
      </trkpt>
      <trkpt lat="42.861115" lon="13.384996">
        <ele>469.465550</ele>
        <time>2021-05-26T18:23:46.746Z</time>
      </trkpt>
      <trkpt lat="42.861148" lon="13.384539">
        <ele>470.305433</ele>
        <time>2021-05-26T18:23:58.303Z</time>
      </trkpt>
      <trkpt lat="42.861191" lon="13.384046">
        <ele>471.232643</ele>
        <time>2021-05-26T18:24:10.797Z</time>
      </trkpt>
      <trkpt lat="42.861196" lon="13.383828">
        <ele>471.900236</ele>
        <time>2021-05-26T18:24:16.768Z</time>
      </trkpt>
      <trkpt lat="42.861173" lon="13.383331">
        <ele>473.424511</ele>
        <time>2021-05-26T18:24:31.165Z</time>
      </trkpt>
      <trkpt lat="42.861116" lon="13.382241">
        <ele>476.769326</ele>
        <time>2021-05-26T18:25:03.761Z</time>
      </trkpt>
      <trkpt lat="42.861093" lon="13.381690">
        <ele>478.458593</ele>
        <time>2021-05-26T18:25:21.079Z</time>
      </trkpt>
      <trkpt lat="42.861066" lon="13.381466">
        <ele>479.208751</ele>
        <time>2021-05-26T18:25:28.381Z</time>
      </trkpt>
      <trkpt lat="42.860428" lon="13.379049">
        <ele>487.983696</ele>
        <time>2021-05-26T18:26:48.358Z</time>
      </trkpt>
      <trkpt lat="42.860395" lon="13.378724">
        <ele>489.061507</ele>
        <time>2021-05-26T18:26:59.047Z</time>
      </trkpt>
      <trkpt lat="42.860420" lon="13.378287">
        <ele>490.501407</ele>
        <time>2021-05-26T18:27:12.683Z</time>
      </trkpt>
      <trkpt lat="42.860446" lon="13.377918">
        <ele>491.719149</ele>
        <time>2021-05-26T18:27:23.529Z</time>
      </trkpt>
      <trkpt lat="42.860455" lon="13.377741">
        <ele>492.301987</ele>
        <time>2021-05-26T18:27:29.512Z</time>
      </trkpt>
      <trkpt lat="42.860436" lon="13.377636">
        <ele>492.657263</ele>
        <time>2021-05-26T18:27:32.533Z</time>
      </trkpt>
      <trkpt lat="42.859984" lon="13.376802">
        <ele>495.531935</ele>
        <time>2021-05-26T18:28:05.026Z</time>
      </trkpt>
      <trkpt lat="42.859801" lon="13.376302">
        <ele>496.268963</ele>
        <time>2021-05-26T18:28:19.511Z</time>
      </trkpt>
      <trkpt lat="42.859801" lon="13.376302">
        <ele>496.268963</ele>
        <time>2021-05-26T18:28:19.542Z</time>
      </trkpt>
      <trkpt lat="42.859801" lon="13.376302">
        <ele>496.268963</ele>
        <time>2021-05-26T18:28:19.546Z</time>
      </trkpt>
      <trkpt lat="42.859439" lon="13.375700">
        <ele>497.295846</ele>
        <time>2021-05-26T18:28:43.986Z</time>
      </trkpt>
      <trkpt lat="42.859078" lon="13.375097">
        <ele>498.322614</ele>
        <time>2021-05-26T18:29:08.424Z</time>
      </trkpt>
      <trkpt lat="42.859078" lon="13.375097">
        <ele>498.322614</ele>
        <time>2021-05-26T18:29:08.436Z</time>
      </trkpt>
      <trkpt lat="42.858971" lon="13.375205">
        <ele>498.868781</ele>
        <time>2021-05-26T18:29:10.353Z</time>
      </trkpt>
      <trkpt lat="42.858410" lon="13.375289">
        <ele>501.942036</ele>
        <time>2021-05-26T18:29:29.000Z</time>
      </trkpt>
      <trkpt lat="42.858228" lon="13.375264">
        <ele>502.938124</ele>
        <time>2021-05-26T18:29:36.105Z</time>
      </trkpt>
      <trkpt lat="42.858015" lon="13.374837">
        <ele>504.999816</ele>
        <time>2021-05-26T18:29:57.336Z</time>
      </trkpt>
      <trkpt lat="42.857988" lon="13.374576">
        <ele>506.051988</ele>
        <time>2021-05-26T18:30:08.813Z</time>
      </trkpt>
      <trkpt lat="42.858031" lon="13.374237">
        <ele>507.425303</ele>
        <time>2021-05-26T18:30:22.620Z</time>
      </trkpt>
      <trkpt lat="42.858027" lon="13.374128">
        <ele>507.860949</ele>
        <time>2021-05-26T18:30:27.598Z</time>
      </trkpt>
      <trkpt lat="42.857862" lon="13.373489">
        <ele>513.741118</ele>
        <time>2021-05-26T18:31:03.022Z</time>
      </trkpt>
      <trkpt lat="42.857854" lon="13.373435">
        <ele>514.256954</ele>
        <time>2021-05-26T18:31:06.502Z</time>
      </trkpt>
      <trkpt lat="42.857880" lon="13.373345">
        <ele>515.162722</ele>
        <time>2021-05-26T18:31:13.319Z</time>
      </trkpt>
      <trkpt lat="42.858175" lon="13.372920">
        <ele>520.643003</ele>
        <time>2021-05-26T18:31:49.417Z</time>
      </trkpt>
      <trkpt lat="42.858320" lon="13.372560">
        <ele>524.489053</ele>
        <time>2021-05-26T18:32:18.247Z</time>
      </trkpt>
      <trkpt lat="42.858385" lon="13.371446">
        <ele>534.360353</ele>
        <time>2021-05-26T18:33:35.303Z</time>
      </trkpt>
      <trkpt lat="42.858367" lon="13.370491">
        <ele>541.901167</ele>
        <time>2021-05-26T18:34:26.652Z</time>
      </trkpt>
      <trkpt lat="42.858200" lon="13.370093">
        <ele>545.521073</ele>
        <time>2021-05-26T18:34:50.115Z</time>
      </trkpt>
      <trkpt lat="42.858098" lon="13.369610">
        <ele>549.488721</ele>
        <time>2021-05-26T18:35:13.774Z</time>
      </trkpt>
      <trkpt lat="42.858117" lon="13.369304">
        <ele>551.279609</ele>
        <time>2021-05-26T18:35:26.928Z</time>
      </trkpt>
      <trkpt lat="42.858253" lon="13.368847">
        <ele>553.367092</ele>
        <time>2021-05-26T18:35:46.212Z</time>
      </trkpt>
      <trkpt lat="42.858239" lon="13.367852">
        <ele>557.579025</ele>
        <time>2021-05-26T18:36:18.295Z</time>
      </trkpt>
      <trkpt lat="42.858346" lon="13.367371">
        <ele>559.706443</ele>
        <time>2021-05-26T18:36:32.748Z</time>
      </trkpt>
      <trkpt lat="42.858129" lon="13.366884">
        <ele>562.268239</ele>
        <time>2021-05-26T18:36:51.635Z</time>
      </trkpt>
      <trkpt lat="42.858033" lon="13.366510">
        <ele>564.157100</ele>
        <time>2021-05-26T18:37:05.785Z</time>
      </trkpt>
      <trkpt lat="42.857719" lon="13.366161">
        <ele>566.790809</ele>
        <time>2021-05-26T18:37:25.660Z</time>
      </trkpt>
      <trkpt lat="42.857407" lon="13.365858">
        <ele>569.281202</ele>
        <time>2021-05-26T18:37:45.356Z</time>
      </trkpt>
      <trkpt lat="42.857053" lon="13.365537">
        <ele>572.045263</ele>
        <time>2021-05-26T18:38:09.767Z</time>
      </trkpt>
      <trkpt lat="42.856873" lon="13.365460">
        <ele>573.461346</ele>
        <time>2021-05-26T18:38:20.911Z</time>
      </trkpt>
      <trkpt lat="42.856597" lon="13.365594">
        <ele>575.926894</ele>
        <time>2021-05-26T18:38:39.537Z</time>
      </trkpt>
      <trkpt lat="42.856524" lon="13.365524">
        <ele>576.677862</ele>
        <time>2021-05-26T18:38:45.228Z</time>
      </trkpt>
      <trkpt lat="42.856389" lon="13.364875">
        <ele>580.839908</ele>
        <time>2021-05-26T18:39:18.000Z</time>
      </trkpt>
      <trkpt lat="42.856156" lon="13.364628">
        <ele>583.323332</ele>
        <time>2021-05-26T18:39:36.936Z</time>
      </trkpt>
      <trkpt lat="42.856029" lon="13.364340">
        <ele>585.396846</ele>
        <time>2021-05-26T18:39:51.507Z</time>
      </trkpt>
      <trkpt lat="42.855707" lon="13.364046">
        <ele>588.561893</ele>
        <time>2021-05-26T18:40:13.538Z</time>
      </trkpt>
      <trkpt lat="42.855104" lon="13.363160">
        <ele>595.218860</ele>
        <time>2021-05-26T18:41:02.393Z</time>
      </trkpt>
      <trkpt lat="42.854604" lon="13.362898">
        <ele>599.242057</ele>
        <time>2021-05-26T18:41:33.376Z</time>
      </trkpt>
      <trkpt lat="42.854452" lon="13.362450">
        <ele>602.010789</ele>
        <time>2021-05-26T18:41:54.299Z</time>
      </trkpt>
      <trkpt lat="42.854020" lon="13.362259">
        <ele>605.673344</ele>
        <time>2021-05-26T18:42:20.075Z</time>
      </trkpt>
      <trkpt lat="42.853647" lon="13.362011">
        <ele>609.019941</ele>
        <time>2021-05-26T18:42:44.693Z</time>
      </trkpt>
      <trkpt lat="42.853453" lon="13.362022">
        <ele>610.585919</ele>
        <time>2021-05-26T18:42:57.575Z</time>
      </trkpt>
      <trkpt lat="42.853196" lon="13.362144">
        <ele>612.780572</ele>
        <time>2021-05-26T18:43:13.459Z</time>
      </trkpt>
      <trkpt lat="42.852813" lon="13.361929">
        <ele>616.099139</ele>
        <time>2021-05-26T18:43:38.832Z</time>
      </trkpt>
      <trkpt lat="42.852218" lon="13.361760">
        <ele>620.686916</ele>
        <time>2021-05-26T18:44:15.375Z</time>
      </trkpt>
      <trkpt lat="42.851754" lon="13.361554">
        <ele>624.370338</ele>
        <time>2021-05-26T18:44:43.370Z</time>
      </trkpt>
      <trkpt lat="42.851335" lon="13.361178">
        <ele>628.156304</ele>
        <time>2021-05-26T18:45:10.316Z</time>
      </trkpt>
      <trkpt lat="42.850979" lon="13.361083">
        <ele>630.702327</ele>
        <time>2021-05-26T18:45:29.587Z</time>
      </trkpt>
      <trkpt lat="42.850844" lon="13.360719">
        <ele>632.677178</ele>
        <time>2021-05-26T18:45:45.323Z</time>
      </trkpt>
      <trkpt lat="42.850704" lon="13.360575">
        <ele>633.835052</ele>
        <time>2021-05-26T18:45:54.473Z</time>
      </trkpt>
      <trkpt lat="42.850209" lon="13.360408">
        <ele>637.202278</ele>
        <time>2021-05-26T18:46:21.008Z</time>
      </trkpt>
      <trkpt lat="42.849903" lon="13.359949">
        <ele>640.205772</ele>
        <time>2021-05-26T18:46:44.819Z</time>
      </trkpt>
      <trkpt lat="42.848589" lon="13.359185">
        <ele>649.365409</ele>
        <time>2021-05-26T18:47:57.320Z</time>
      </trkpt>
      <trkpt lat="42.848032" lon="13.359016">
        <ele>653.020253</ele>
        <time>2021-05-26T18:48:26.318Z</time>
      </trkpt>
      <trkpt lat="42.847572" lon="13.358542">
        <ele>656.822734</ele>
        <time>2021-05-26T18:48:57.011Z</time>
      </trkpt>
      <trkpt lat="42.847129" lon="13.358175">
        <ele>660.241341</ele>
        <time>2021-05-26T18:49:22.841Z</time>
      </trkpt>
      <trkpt lat="42.846969" lon="13.358138">
        <ele>661.311702</ele>
        <time>2021-05-26T18:49:32.401Z</time>
      </trkpt>
      <trkpt lat="42.846947" lon="13.358333">
        <ele>662.265770</ele>
        <time>2021-05-26T18:49:39.206Z</time>
      </trkpt>
      <trkpt lat="42.847169" lon="13.358526">
        <ele>664.002149</ele>
        <time>2021-05-26T18:49:53.472Z</time>
      </trkpt>
      <trkpt lat="42.847342" lon="13.358792">
        <ele>665.836863</ele>
        <time>2021-05-26T18:50:07.227Z</time>
      </trkpt>
      <trkpt lat="42.847830" lon="13.359330">
        <ele>670.397509</ele>
        <time>2021-05-26T18:50:41.391Z</time>
      </trkpt>
      <trkpt lat="42.848061" lon="13.359747">
        <ele>673.182578</ele>
        <time>2021-05-26T18:51:03.722Z</time>
      </trkpt>
      <trkpt lat="42.848170" lon="13.360066">
        <ele>675.057999</ele>
        <time>2021-05-26T18:51:17.876Z</time>
      </trkpt>
      <trkpt lat="42.848505" lon="13.360466">
        <ele>678.334573</ele>
        <time>2021-05-26T18:51:42.973Z</time>
      </trkpt>
      <trkpt lat="42.848629" lon="13.360972">
        <ele>681.360676</ele>
        <time>2021-05-26T18:52:05.400Z</time>
      </trkpt>
      <trkpt lat="42.849062" lon="13.361369">
        <ele>685.397017</ele>
        <time>2021-05-26T18:52:35.395Z</time>
      </trkpt>
      <trkpt lat="42.849295" lon="13.361664">
        <ele>687.856480</ele>
        <time>2021-05-26T18:52:53.825Z</time>
      </trkpt>
      <trkpt lat="42.849321" lon="13.361937">
        <ele>689.417922</ele>
        <time>2021-05-26T18:53:05.761Z</time>
      </trkpt>
      <trkpt lat="42.849823" lon="13.362879">
        <ele>696.201356</ele>
        <time>2021-05-26T18:53:56.493Z</time>
      </trkpt>
      <trkpt lat="42.850155" lon="13.363253">
        <ele>699.666110</ele>
        <time>2021-05-26T18:54:22.249Z</time>
      </trkpt>
      <trkpt lat="42.850336" lon="13.363598">
        <ele>702.168775</ele>
        <time>2021-05-26T18:54:40.761Z</time>
      </trkpt>
      <trkpt lat="42.850446" lon="13.363677">
        <ele>703.169091</ele>
        <time>2021-05-26T18:54:48.079Z</time>
      </trkpt>
      <trkpt lat="42.850727" lon="13.363715">
        <ele>705.441261</ele>
        <time>2021-05-26T18:55:04.621Z</time>
      </trkpt>
      <trkpt lat="42.850950" lon="13.364126">
        <ele>708.516496</ele>
        <time>2021-05-26T18:55:26.914Z</time>
      </trkpt>
      <trkpt lat="42.851235" lon="13.364317">
        <ele>711.134182</ele>
        <time>2021-05-26T18:55:45.989Z</time>
      </trkpt>
      <trkpt lat="42.851337" lon="13.364451">
        <ele>712.301599</ele>
        <time>2021-05-26T18:55:54.597Z</time>
      </trkpt>
      <trkpt lat="42.851635" lon="13.365213">
        <ele>717.521040</ele>
        <time>2021-05-26T18:56:33.741Z</time>
      </trkpt>
      <trkpt lat="42.851691" lon="13.365730">
        <ele>720.679463</ele>
        <time>2021-05-26T18:56:57.198Z</time>
      </trkpt>
      <trkpt lat="42.852156" lon="13.365997">
        <ele>724.374129</ele>
        <time>2021-05-26T18:57:26.986Z</time>
      </trkpt>
      <trkpt lat="42.852553" lon="13.366480">
        <ele>728.245055</ele>
        <time>2021-05-26T18:57:57.682Z</time>
      </trkpt>
      <trkpt lat="42.852803" lon="13.367338">
        <ele>733.170340</ele>
        <time>2021-05-26T18:58:34.534Z</time>
      </trkpt>
      <trkpt lat="42.852777" lon="13.367974">
        <ele>735.730200</ele>
        <time>2021-05-26T18:58:57.149Z</time>
      </trkpt>
      <trkpt lat="42.852826" lon="13.368167">
        <ele>736.468616</ele>
        <time>2021-05-26T18:59:03.811Z</time>
      </trkpt>
      <trkpt lat="42.853235" lon="13.368765">
        <ele>739.425360</ele>
        <time>2021-05-26T18:59:28.325Z</time>
      </trkpt>
      <trkpt lat="42.853936" lon="13.370122">
        <ele>746.328615</ele>
        <time>2021-05-26T19:00:18.626Z</time>
      </trkpt>
      <trkpt lat="42.853990" lon="13.371008">
        <ele>750.662058</ele>
        <time>2021-05-26T19:00:50.971Z</time>
      </trkpt>
      <trkpt lat="42.853918" lon="13.371126">
        <ele>751.410373</ele>
        <time>2021-05-26T19:00:57.266Z</time>
      </trkpt>
      <trkpt lat="42.853816" lon="13.371127">
        <ele>752.088573</ele>
        <time>2021-05-26T19:01:03.118Z</time>
      </trkpt>
      <trkpt lat="42.852945" lon="13.370098">
        <ele>761.549708</ele>
        <time>2021-05-26T19:02:20.683Z</time>
      </trkpt>
      <trkpt lat="42.852173" lon="13.369380">
        <ele>770.019793</ele>
        <time>2021-05-26T19:03:24.399Z</time>
      </trkpt>
      <trkpt lat="42.851974" lon="13.369109">
        <ele>771.601072</ele>
        <time>2021-05-26T19:03:40.252Z</time>
      </trkpt>
      <trkpt lat="42.851823" lon="13.369000">
        <ele>772.128464</ele>
        <time>2021-05-26T19:03:48.779Z</time>
      </trkpt>
      <trkpt lat="42.851691" lon="13.369010">
        <ele>772.536581</ele>
        <time>2021-05-26T19:03:54.972Z</time>
      </trkpt>
      <trkpt lat="42.851652" lon="13.369118">
        <ele>772.809045</ele>
        <time>2021-05-26T19:03:59.230Z</time>
      </trkpt>
      <trkpt lat="42.851683" lon="13.369205">
        <ele>773.027965</ele>
        <time>2021-05-26T19:04:02.163Z</time>
      </trkpt>
      <trkpt lat="42.851928" lon="13.369434">
        <ele>773.944820</ele>
        <time>2021-05-26T19:04:13.180Z</time>
      </trkpt>
      <trkpt lat="42.852259" lon="13.370330">
        <ele>776.215499</ele>
        <time>2021-05-26T19:04:29.941Z</time>
      </trkpt>
      <trkpt lat="42.852262" lon="13.371311">
        <ele>777.712335</ele>
        <time>2021-05-26T19:04:41.315Z</time>
      </trkpt>
      <trkpt lat="42.852195" lon="13.371598">
        <ele>778.117284</ele>
        <time>2021-05-26T19:04:47.577Z</time>
      </trkpt>
      <trkpt lat="42.851770" lon="13.372224">
        <ele>779.264375</ele>
        <time>2021-05-26T19:05:08.675Z</time>
      </trkpt>
      <trkpt lat="42.851629" lon="13.372190">
        <ele>779.526965</ele>
        <time>2021-05-26T19:05:13.380Z</time>
      </trkpt>
      <trkpt lat="42.851484" lon="13.371783">
        <ele>780.771753</ele>
        <time>2021-05-26T19:05:26.271Z</time>
      </trkpt>
      <trkpt lat="42.851477" lon="13.371599">
        <ele>781.880790</ele>
        <time>2021-05-26T19:05:33.298Z</time>
      </trkpt>
      <trkpt lat="42.851502" lon="13.371378">
        <ele>783.226793</ele>
        <time>2021-05-26T19:05:40.107Z</time>
      </trkpt>
      <trkpt lat="42.851494" lon="13.371097">
        <ele>784.919485</ele>
        <time>2021-05-26T19:05:51.792Z</time>
      </trkpt>
      <trkpt lat="42.851446" lon="13.371228">
        <ele>785.801012</ele>
        <time>2021-05-26T19:05:58.150Z</time>
      </trkpt>
      <trkpt lat="42.851387" lon="13.371323">
        <ele>786.550448</ele>
        <time>2021-05-26T19:06:04.021Z</time>
      </trkpt>
      <trkpt lat="42.851093" lon="13.371222">
        <ele>789.039717</ele>
        <time>2021-05-26T19:06:27.232Z</time>
      </trkpt>
      <trkpt lat="42.850802" lon="13.371221">
        <ele>791.428981</ele>
        <time>2021-05-26T19:06:51.872Z</time>
      </trkpt>
      <trkpt lat="42.850386" lon="13.371464">
        <ele>795.446730</ele>
        <time>2021-05-26T19:07:32.965Z</time>
      </trkpt>
      <trkpt lat="42.850356" lon="13.371398">
        <ele>796.246910</ele>
        <time>2021-05-26T19:07:38.221Z</time>
      </trkpt>
      <trkpt lat="42.850001" lon="13.371403">
        <ele>801.236691</ele>
        <time>2021-05-26T19:08:06.753Z</time>
      </trkpt>
      <trkpt lat="42.849554" lon="13.371061">
        <ele>808.440140</ele>
        <time>2021-05-26T19:09:01.350Z</time>
      </trkpt>
      <trkpt lat="42.848858" lon="13.370764">
        <ele>818.689951</ele>
        <time>2021-05-26T19:10:21.326Z</time>
      </trkpt>
      <trkpt lat="42.848795" lon="13.370632">
        <ele>820.325667</ele>
        <time>2021-05-26T19:10:36.497Z</time>
      </trkpt>
      <trkpt lat="42.848807" lon="13.370396">
        <ele>822.862367</ele>
        <time>2021-05-26T19:10:52.859Z</time>
      </trkpt>
      <trkpt lat="42.848738" lon="13.370268">
        <ele>824.565987</ele>
        <time>2021-05-26T19:11:09.198Z</time>
      </trkpt>
      <trkpt lat="42.848662" lon="13.370297">
        <ele>825.720231</ele>
        <time>2021-05-26T19:11:17.046Z</time>
      </trkpt>
      <trkpt lat="42.848609" lon="13.370326">
        <ele>826.555450</ele>
        <time>2021-05-26T19:11:19.746Z</time>
      </trkpt>
      <trkpt lat="42.848535" lon="13.370292">
        <ele>827.697520</ele>
        <time>2021-05-26T19:11:28.247Z</time>
      </trkpt>
      <trkpt lat="42.848326" lon="13.369761">
        <ele>834.160098</ele>
        <time>2021-05-26T19:12:10.771Z</time>
      </trkpt>
      <trkpt lat="42.848067" lon="13.369305">
        <ele>840.345491</ele>
        <time>2021-05-26T19:12:51.811Z</time>
      </trkpt>
      <trkpt lat="42.848044" lon="13.369240">
        <ele>841.119424</ele>
        <time>2021-05-26T19:12:58.033Z</time>
      </trkpt>
      <trkpt lat="42.847949" lon="13.369273">
        <ele>842.553234</ele>
        <time>2021-05-26T19:13:04.061Z</time>
      </trkpt>
      <trkpt lat="42.847776" lon="13.369321">
        <ele>845.135330</ele>
        <time>2021-05-26T19:13:24.550Z</time>
      </trkpt>
      <trkpt lat="42.847516" lon="13.369664">
        <ele>849.668655</ele>
        <time>2021-05-26T19:13:56.954Z</time>
      </trkpt>
      <trkpt lat="42.847323" lon="13.369788">
        <ele>852.215414</ele>
        <time>2021-05-26T19:14:15.482Z</time>
      </trkpt>
      <trkpt lat="42.846950" lon="13.369830">
        <ele>856.683262</ele>
        <time>2021-05-26T19:14:47.032Z</time>
      </trkpt>
      <trkpt lat="42.845231" lon="13.369466">
        <ele>878.249038</ele>
        <time>2021-05-26T19:17:28.204Z</time>
      </trkpt>
      <trkpt lat="42.845148" lon="13.369459">
        <ele>879.323789</ele>
        <time>2021-05-26T19:17:36.847Z</time>
      </trkpt>
      <trkpt lat="42.844865" lon="13.369439">
        <ele>882.986221</ele>
        <time>2021-05-26T19:18:03.496Z</time>
      </trkpt>
      <trkpt lat="42.844584" lon="13.369483">
        <ele>886.641754</ele>
        <time>2021-05-26T19:18:29.355Z</time>
      </trkpt>
      <trkpt lat="42.844527" lon="13.369493">
        <ele>887.384499</ele>
        <time>2021-05-26T19:18:37.604Z</time>
      </trkpt>
      <trkpt lat="42.843493" lon="13.369203">
        <ele>902.687964</ele>
        <time>2021-05-26T19:20:27.428Z</time>
      </trkpt>
      <trkpt lat="42.843205" lon="13.369020">
        <ele>907.475766</ele>
        <time>2021-05-26T19:20:56.623Z</time>
      </trkpt>
      <trkpt lat="42.843136" lon="13.368969">
        <ele>908.658409</ele>
        <time>2021-05-26T19:21:07.109Z</time>
      </trkpt>
      <trkpt lat="42.843044" lon="13.368902">
        <ele>910.230033</ele>
        <time>2021-05-26T19:21:21.604Z</time>
      </trkpt>
      <trkpt lat="42.842175" lon="13.368639">
        <ele>923.247745</ele>
        <time>2021-05-26T19:22:59.650Z</time>
      </trkpt>
      <trkpt lat="42.841974" lon="13.368505">
        <ele>926.377160</ele>
        <time>2021-05-26T19:23:29.818Z</time>
      </trkpt>
      <trkpt lat="42.841774" lon="13.368452">
        <ele>929.226987</ele>
        <time>2021-05-26T19:23:51.533Z</time>
      </trkpt>
      <trkpt lat="42.841655" lon="13.368441">
        <ele>930.895322</ele>
        <time>2021-05-26T19:24:08.897Z</time>
      </trkpt>
      <trkpt lat="42.841584" lon="13.368376">
        <ele>932.091441</ele>
        <time>2021-05-26T19:24:21.092Z</time>
      </trkpt>
      <trkpt lat="42.840946" lon="13.368329">
        <ele>941.028494</ele>
        <time>2021-05-26T19:25:12.338Z</time>
      </trkpt>
      <trkpt lat="42.840717" lon="13.368198">
        <ele>943.403558</ele>
        <time>2021-05-26T19:25:32.856Z</time>
      </trkpt>
      <trkpt lat="42.840551" lon="13.368158">
        <ele>943.630696</ele>
        <time>2021-05-26T19:25:46.229Z</time>
      </trkpt>
      <trkpt lat="42.840402" lon="13.368136">
        <ele>943.832637</ele>
        <time>2021-05-26T19:25:56.310Z</time>
      </trkpt>
      <trkpt lat="42.840171" lon="13.368140">
        <ele>944.143919</ele>
        <time>2021-05-26T19:26:12.040Z</time>
      </trkpt>
      <trkpt lat="42.840070" lon="13.368094">
        <ele>944.287398</ele>
        <time>2021-05-26T19:26:18.491Z</time>
      </trkpt>
      <trkpt lat="42.839941" lon="13.368266">
        <ele>944.530486</ele>
        <time>2021-05-26T19:26:23.113Z</time>
      </trkpt>
      <trkpt lat="42.839710" lon="13.368386">
        <ele>944.863559</ele>
        <time>2021-05-26T19:26:33.204Z</time>
      </trkpt>
      <trkpt lat="42.838716" lon="13.368694">
        <ele>943.109610</ele>
        <time>2021-05-26T19:26:57.693Z</time>
      </trkpt>
      <trkpt lat="42.838575" lon="13.368860">
        <ele>941.871209</ele>
        <time>2021-05-26T19:27:01.552Z</time>
      </trkpt>
      <trkpt lat="42.838295" lon="13.368953">
        <ele>939.955264</ele>
        <time>2021-05-26T19:27:08.115Z</time>
      </trkpt>
      <trkpt lat="42.838102" lon="13.369156">
        <ele>938.334833</ele>
        <time>2021-05-26T19:27:13.685Z</time>
      </trkpt>
      <trkpt lat="42.837590" lon="13.369289">
        <ele>934.869690</ele>
        <time>2021-05-26T19:27:25.636Z</time>
      </trkpt>
      <trkpt lat="42.837307" lon="13.370000">
        <ele>931.776062</ele>
        <time>2021-05-26T19:27:39.387Z</time>
      </trkpt>
      <trkpt lat="42.837171" lon="13.370199">
        <ele>930.848876</ele>
        <time>2021-05-26T19:27:44.207Z</time>
      </trkpt>
      <trkpt lat="42.836971" lon="13.370864">
        <ele>928.399028</ele>
        <time>2021-05-26T19:27:56.897Z</time>
      </trkpt>
      <trkpt lat="42.836842" lon="13.370898">
        <ele>927.788321</ele>
        <time>2021-05-26T19:28:00.373Z</time>
      </trkpt>
      <trkpt lat="42.836581" lon="13.370795">
        <ele>926.525377</ele>
        <time>2021-05-26T19:28:07.378Z</time>
      </trkpt>
      <trkpt lat="42.836423" lon="13.370874">
        <ele>925.743162</ele>
        <time>2021-05-26T19:28:12.073Z</time>
      </trkpt>
      <trkpt lat="42.836232" lon="13.371207">
        <ele>924.319659</ele>
        <time>2021-05-26T19:28:20.260Z</time>
      </trkpt>
      <trkpt lat="42.836198" lon="13.371449">
        <ele>923.493285</ele>
        <time>2021-05-26T19:28:24.822Z</time>
      </trkpt>
      <trkpt lat="42.836120" lon="13.371626">
        <ele>922.800724</ele>
        <time>2021-05-26T19:28:28.735Z</time>
      </trkpt>
      <trkpt lat="42.835494" lon="13.372507">
        <ele>918.686467</ele>
        <time>2021-05-26T19:28:50.927Z</time>
      </trkpt>
      <trkpt lat="42.835384" lon="13.372852">
        <ele>917.424763</ele>
        <time>2021-05-26T19:28:57.382Z</time>
      </trkpt>
      <trkpt lat="42.835270" lon="13.373700">
        <ele>911.349988</ele>
        <time>2021-05-26T19:29:11.609Z</time>
      </trkpt>
      <trkpt lat="42.834979" lon="13.374086">
        <ele>907.247906</ele>
        <time>2021-05-26T19:29:20.395Z</time>
      </trkpt>
      <trkpt lat="42.834921" lon="13.374232">
        <ele>906.017514</ele>
        <time>2021-05-26T19:29:23.014Z</time>
      </trkpt>
      <trkpt lat="42.834977" lon="13.374292">
        <ele>905.297888</ele>
        <time>2021-05-26T19:29:24.495Z</time>
      </trkpt>
      <trkpt lat="42.835142" lon="13.374785">
        <ele>901.282330</ele>
        <time>2021-05-26T19:29:32.777Z</time>
      </trkpt>
      <trkpt lat="42.835497" lon="13.374923">
        <ele>897.140704</ele>
        <time>2021-05-26T19:29:40.366Z</time>
      </trkpt>
      <trkpt lat="42.835885" lon="13.375322">
        <ele>890.825464</ele>
        <time>2021-05-26T19:29:50.282Z</time>
      </trkpt>
      <trkpt lat="42.835962" lon="13.375548">
        <ele>888.450649</ele>
        <time>2021-05-26T19:29:54.005Z</time>
      </trkpt>
      <trkpt lat="42.835981" lon="13.376056">
        <ele>883.603292</ele>
        <time>2021-05-26T19:30:01.648Z</time>
      </trkpt>
      <trkpt lat="42.836052" lon="13.376037">
        <ele>882.663013</ele>
        <time>2021-05-26T19:30:03.125Z</time>
      </trkpt>
      <trkpt lat="42.836135" lon="13.375832">
        <ele>880.431445</ele>
        <time>2021-05-26T19:30:06.694Z</time>
      </trkpt>
      <trkpt lat="42.836205" lon="13.375828">
        <ele>879.520961</ele>
        <time>2021-05-26T19:30:08.157Z</time>
      </trkpt>
      <trkpt lat="42.836266" lon="13.376225">
        <ele>875.655544</ele>
        <time>2021-05-26T19:30:14.426Z</time>
      </trkpt>
      <trkpt lat="42.836121" lon="13.376747">
        <ele>872.185788</ele>
        <time>2021-05-26T19:30:23.148Z</time>
      </trkpt>
      <trkpt lat="42.836192" lon="13.376907">
        <ele>871.027873</ele>
        <time>2021-05-26T19:30:26.085Z</time>
      </trkpt>
      <trkpt lat="42.836534" lon="13.376839">
        <ele>868.109692</ele>
        <time>2021-05-26T19:30:33.640Z</time>
      </trkpt>
      <trkpt lat="42.837340" lon="13.376371">
        <ele>860.713098</ele>
        <time>2021-05-26T19:30:53.555Z</time>
      </trkpt>
      <trkpt lat="42.837603" lon="13.376380">
        <ele>859.088860</ele>
        <time>2021-05-26T19:30:59.826Z</time>
      </trkpt>
      <trkpt lat="42.837857" lon="13.376526">
        <ele>857.478506</ele>
        <time>2021-05-26T19:31:06.517Z</time>
      </trkpt>
      <trkpt lat="42.838420" lon="13.377020">
        <ele>853.567329</ele>
        <time>2021-05-26T19:31:22.726Z</time>
      </trkpt>
      <trkpt lat="42.838491" lon="13.377210">
        <ele>852.653779</ele>
        <time>2021-05-26T19:31:26.443Z</time>
      </trkpt>
      <trkpt lat="42.838458" lon="13.377925">
        <ele>849.387797</ele>
        <time>2021-05-26T19:31:38.592Z</time>
      </trkpt>
      <trkpt lat="42.838505" lon="13.378091">
        <ele>848.180256</ele>
        <time>2021-05-26T19:31:41.548Z</time>
      </trkpt>
      <trkpt lat="42.838739" lon="13.378336">
        <ele>845.450101</ele>
        <time>2021-05-26T19:31:48.088Z</time>
      </trkpt>
      <trkpt lat="42.839141" lon="13.378496">
        <ele>841.574607</ele>
        <time>2021-05-26T19:31:57.191Z</time>
      </trkpt>
      <trkpt lat="42.839386" lon="13.378698">
        <ele>838.925110</ele>
        <time>2021-05-26T19:32:03.369Z</time>
      </trkpt>
      <trkpt lat="42.839854" lon="13.378811">
        <ele>834.526666</ele>
        <time>2021-05-26T19:32:13.494Z</time>
      </trkpt>
      <trkpt lat="42.840489" lon="13.379093">
        <ele>828.283108</ele>
        <time>2021-05-26T19:32:27.577Z</time>
      </trkpt>
      <trkpt lat="42.841282" lon="13.378975">
        <ele>820.806047</ele>
        <time>2021-05-26T19:32:44.532Z</time>
      </trkpt>
      <trkpt lat="42.841490" lon="13.379039">
        <ele>818.807418</ele>
        <time>2021-05-26T19:32:49.258Z</time>
      </trkpt>
      <trkpt lat="42.841632" lon="13.379537">
        <ele>816.322899</ele>
        <time>2021-05-26T19:32:58.354Z</time>
      </trkpt>
      <trkpt lat="42.841585" lon="13.379852">
        <ele>816.160254</ele>
        <time>2021-05-26T19:33:04.198Z</time>
      </trkpt>
      <trkpt lat="42.841523" lon="13.379981">
        <ele>816.082212</ele>
        <time>2021-05-26T19:33:07.092Z</time>
      </trkpt>
      <trkpt lat="42.841128" lon="13.380348">
        <ele>815.752403</ele>
        <time>2021-05-26T19:33:20.671Z</time>
      </trkpt>
      <trkpt lat="42.840978" lon="13.380562">
        <ele>815.602611</ele>
        <time>2021-05-26T19:33:27.987Z</time>
      </trkpt>
      <trkpt lat="42.840901" lon="13.380717">
        <ele>815.507881</ele>
        <time>2021-05-26T19:33:33.687Z</time>
      </trkpt>
      <trkpt lat="42.840816" lon="13.381300">
        <ele>815.207125</ele>
        <time>2021-05-26T19:33:54.087Z</time>
      </trkpt>
      <trkpt lat="42.840739" lon="13.381476">
        <ele>815.826648</ele>
        <time>2021-05-26T19:34:02.004Z</time>
      </trkpt>
      <trkpt lat="42.840308" lon="13.381768">
        <ele>818.797103</ele>
        <time>2021-05-26T19:34:32.122Z</time>
      </trkpt>
      <trkpt lat="42.840261" lon="13.381916">
        <ele>819.527057</ele>
        <time>2021-05-26T19:34:39.855Z</time>
      </trkpt>
      <trkpt lat="42.840106" lon="13.382823">
        <ele>823.742055</ele>
        <time>2021-05-26T19:35:26.706Z</time>
      </trkpt>
      <trkpt lat="42.840244" lon="13.384224">
        <ele>829.118420</ele>
        <time>2021-05-26T19:36:33.661Z</time>
      </trkpt>
      <trkpt lat="42.840277" lon="13.384295">
        <ele>829.398252</ele>
        <time>2021-05-26T19:36:37.238Z</time>
      </trkpt>
      <trkpt lat="42.840411" lon="13.384361">
        <ele>830.045054</ele>
        <time>2021-05-26T19:36:45.294Z</time>
      </trkpt>
      <trkpt lat="42.841114" lon="13.384504">
        <ele>833.271895</ele>
        <time>2021-05-26T19:37:21.057Z</time>
      </trkpt>
      <trkpt lat="42.841504" lon="13.384772">
        <ele>834.526238</ele>
        <time>2021-05-26T19:37:40.456Z</time>
      </trkpt>
      <trkpt lat="42.842154" lon="13.385336">
        <ele>834.882563</ele>
        <time>2021-05-26T19:38:09.878Z</time>
      </trkpt>
      <trkpt lat="42.842695" lon="13.385585">
        <ele>835.146651</ele>
        <time>2021-05-26T19:38:27.519Z</time>
      </trkpt>
      <trkpt lat="42.842843" lon="13.385759">
        <ele>835.237027</ele>
        <time>2021-05-26T19:38:33.260Z</time>
      </trkpt>
      <trkpt lat="42.842943" lon="13.386279">
        <ele>833.854862</ele>
        <time>2021-05-26T19:38:44.224Z</time>
      </trkpt>
      <trkpt lat="42.843009" lon="13.387215">
        <ele>830.704517</ele>
        <time>2021-05-26T19:39:01.829Z</time>
      </trkpt>
      <trkpt lat="42.842957" lon="13.387635">
        <ele>829.277473</ele>
        <time>2021-05-26T19:39:09.265Z</time>
      </trkpt>
      <trkpt lat="42.842978" lon="13.387750">
        <ele>828.880420</ele>
        <time>2021-05-26T19:39:11.296Z</time>
      </trkpt>
      <trkpt lat="42.843071" lon="13.387892">
        <ele>828.242527</ele>
        <time>2021-05-26T19:39:14.462Z</time>
      </trkpt>
      <trkpt lat="42.843126" lon="13.388275">
        <ele>826.803045</ele>
        <time>2021-05-26T19:39:20.908Z</time>
      </trkpt>
      <trkpt lat="42.843390" lon="13.388620">
        <ele>823.325862</ele>
        <time>2021-05-26T19:39:28.941Z</time>
      </trkpt>
      <trkpt lat="42.843665" lon="13.388876">
        <ele>820.159439</ele>
        <time>2021-05-26T19:39:36.190Z</time>
      </trkpt>
      <trkpt lat="42.843965" lon="13.388931">
        <ele>817.280737</ele>
        <time>2021-05-26T19:39:42.710Z</time>
      </trkpt>
      <trkpt lat="42.844205" lon="13.388848">
        <ele>814.926071</ele>
        <time>2021-05-26T19:39:47.933Z</time>
      </trkpt>
      <trkpt lat="42.844587" lon="13.388331">
        <ele>809.810329</ele>
        <time>2021-05-26T19:39:59.449Z</time>
      </trkpt>
      <trkpt lat="42.844979" lon="13.387960">
        <ele>805.343031</ele>
        <time>2021-05-26T19:40:09.644Z</time>
      </trkpt>
      <trkpt lat="42.845225" lon="13.387917">
        <ele>803.020952</ele>
        <time>2021-05-26T19:40:15.089Z</time>
      </trkpt>
      <trkpt lat="42.845258" lon="13.387923">
        <ele>802.709247</ele>
        <time>2021-05-26T19:40:15.763Z</time>
      </trkpt>
      <trkpt lat="42.845410" lon="13.387948">
        <ele>801.275796</ele>
        <time>2021-05-26T19:40:19.133Z</time>
      </trkpt>
      <trkpt lat="42.845820" lon="13.388167">
        <ele>797.153176</ele>
        <time>2021-05-26T19:40:28.783Z</time>
      </trkpt>
      <trkpt lat="42.845947" lon="13.388171">
        <ele>795.963787</ele>
        <time>2021-05-26T19:40:31.510Z</time>
      </trkpt>
      <trkpt lat="42.846073" lon="13.388120">
        <ele>794.733226</ele>
        <time>2021-05-26T19:40:34.444Z</time>
      </trkpt>
      <trkpt lat="42.846335" lon="13.387868">
        <ele>791.848726</ele>
        <time>2021-05-26T19:40:41.470Z</time>
      </trkpt>
      <trkpt lat="42.846730" lon="13.387725">
        <ele>788.347250</ele>
        <time>2021-05-26T19:40:50.439Z</time>
      </trkpt>
      <trkpt lat="42.847455" lon="13.387687">
        <ele>782.130997</ele>
        <time>2021-05-26T19:41:06.596Z</time>
      </trkpt>
      <trkpt lat="42.848275" lon="13.387461">
        <ele>774.839185</ele>
        <time>2021-05-26T19:41:24.859Z</time>
      </trkpt>
      <trkpt lat="42.848388" lon="13.387532">
        <ele>773.724873</ele>
        <time>2021-05-26T19:41:27.685Z</time>
      </trkpt>
      <trkpt lat="42.848532" lon="13.387466">
        <ele>772.364261</ele>
        <time>2021-05-26T19:41:30.854Z</time>
      </trkpt>
      <trkpt lat="42.849103" lon="13.387393">
        <ele>767.227656</ele>
        <time>2021-05-26T19:41:43.449Z</time>
      </trkpt>
      <trkpt lat="42.849199" lon="13.387440">
        <ele>766.314117</ele>
        <time>2021-05-26T19:41:45.612Z</time>
      </trkpt>
      <trkpt lat="42.849217" lon="13.387431">
        <ele>766.142408</ele>
        <time>2021-05-26T19:41:45.981Z</time>
      </trkpt>
      <trkpt lat="42.849380" lon="13.387467">
        <ele>764.663477</ele>
        <time>2021-05-26T19:41:49.577Z</time>
      </trkpt>
      <trkpt lat="42.849750" lon="13.387678">
        <ele>761.292682</ele>
        <time>2021-05-26T19:41:58.518Z</time>
      </trkpt>
      <trkpt lat="42.849964" lon="13.387849">
        <ele>760.016341</ele>
        <time>2021-05-26T19:42:03.887Z</time>
      </trkpt>
      <trkpt lat="42.850310" lon="13.388176">
        <ele>757.850122</ele>
        <time>2021-05-26T19:42:13.626Z</time>
      </trkpt>
      <trkpt lat="42.850479" lon="13.388243">
        <ele>756.944429</ele>
        <time>2021-05-26T19:42:17.920Z</time>
      </trkpt>
      <trkpt lat="42.850524" lon="13.388321">
        <ele>756.569958</ele>
        <time>2021-05-26T19:42:19.513Z</time>
      </trkpt>
      <trkpt lat="42.850547" lon="13.388377">
        <ele>756.327785</ele>
        <time>2021-05-26T19:42:20.484Z</time>
      </trkpt>
      <trkpt lat="42.850331" lon="13.388302">
        <ele>755.180763</ele>
        <time>2021-05-26T19:42:24.172Z</time>
      </trkpt>
      <trkpt lat="42.850075" lon="13.388248">
        <ele>753.847684</ele>
        <time>2021-05-26T19:42:28.010Z</time>
      </trkpt>
      <trkpt lat="42.849224" lon="13.388271">
        <ele>752.468518</ele>
        <time>2021-05-26T19:42:42.939Z</time>
      </trkpt>
      <trkpt lat="42.847382" lon="13.389361">
        <ele>751.087009</ele>
        <time>2021-05-26T19:43:35.251Z</time>
      </trkpt>
      <trkpt lat="42.847344" lon="13.389451">
        <ele>750.920259</ele>
        <time>2021-05-26T19:43:36.498Z</time>
      </trkpt>
      <trkpt lat="42.847358" lon="13.389647">
        <ele>750.604078</ele>
        <time>2021-05-26T19:43:38.867Z</time>
      </trkpt>
      <trkpt lat="42.847509" lon="13.390278">
        <ele>749.538367</ele>
        <time>2021-05-26T19:43:46.280Z</time>
      </trkpt>
      <trkpt lat="42.847980" lon="13.391834">
        <ele>741.831013</ele>
        <time>2021-05-26T19:44:02.752Z</time>
      </trkpt>
      <trkpt lat="42.847975" lon="13.392492">
        <ele>738.119058</ele>
        <time>2021-05-26T19:44:08.983Z</time>
      </trkpt>
      <trkpt lat="42.847924" lon="13.392880">
        <ele>735.895465</ele>
        <time>2021-05-26T19:44:12.755Z</time>
      </trkpt>
      <trkpt lat="42.847714" lon="13.393347">
        <ele>733.108805</ele>
        <time>2021-05-26T19:44:18.071Z</time>
      </trkpt>
      <trkpt lat="42.847588" lon="13.393356">
        <ele>732.273100</ele>
        <time>2021-05-26T19:44:19.763Z</time>
      </trkpt>
      <trkpt lat="42.847326" lon="13.393095">
        <ele>730.124171</ele>
        <time>2021-05-26T19:44:24.163Z</time>
      </trkpt>
      <trkpt lat="42.846769" lon="13.393064">
        <ele>726.431810</ele>
        <time>2021-05-26T19:44:31.821Z</time>
      </trkpt>
      <trkpt lat="42.845973" lon="13.392477">
        <ele>719.942164</ele>
        <time>2021-05-26T19:44:44.349Z</time>
      </trkpt>
      <trkpt lat="42.845779" lon="13.392391">
        <ele>718.336810</ele>
        <time>2021-05-26T19:44:47.084Z</time>
      </trkpt>
      <trkpt lat="42.845694" lon="13.392415">
        <ele>717.653696</ele>
        <time>2021-05-26T19:44:48.256Z</time>
      </trkpt>
      <trkpt lat="42.845782" lon="13.393735">
        <ele>710.005848</ele>
        <time>2021-05-26T19:45:00.810Z</time>
      </trkpt>
      <trkpt lat="42.845748" lon="13.394051">
        <ele>708.407309</ele>
        <time>2021-05-26T19:45:03.811Z</time>
      </trkpt>
      <trkpt lat="42.845621" lon="13.394061">
        <ele>707.729441</ele>
        <time>2021-05-26T19:45:05.467Z</time>
      </trkpt>
      <trkpt lat="42.845168" lon="13.393747">
        <ele>705.021702</ele>
        <time>2021-05-26T19:45:12.239Z</time>
      </trkpt>
      <trkpt lat="42.845024" lon="13.393701">
        <ele>704.233607</ele>
        <time>2021-05-26T19:45:14.301Z</time>
      </trkpt>
      <trkpt lat="42.844783" lon="13.393808">
        <ele>702.883067</ele>
        <time>2021-05-26T19:45:17.864Z</time>
      </trkpt>
      <trkpt lat="42.844690" lon="13.393778">
        <ele>702.373828</ele>
        <time>2021-05-26T19:45:19.301Z</time>
      </trkpt>
      <trkpt lat="42.844494" lon="13.393507">
        <ele>700.886596</ele>
        <time>2021-05-26T19:45:23.485Z</time>
      </trkpt>
      <trkpt lat="42.844350" lon="13.392870">
        <ele>699.236215</ele>
        <time>2021-05-26T19:45:31.900Z</time>
      </trkpt>
      <trkpt lat="42.844262" lon="13.392707">
        <ele>699.161833</ele>
        <time>2021-05-26T19:45:34.650Z</time>
      </trkpt>
      <trkpt lat="42.844156" lon="13.392615">
        <ele>699.098865</ele>
        <time>2021-05-26T19:45:36.797Z</time>
      </trkpt>
      <trkpt lat="42.844050" lon="13.392612">
        <ele>699.045729</ele>
        <time>2021-05-26T19:45:39.401Z</time>
      </trkpt>
      <trkpt lat="42.843835" lon="13.392696">
        <ele>698.933643</ele>
        <time>2021-05-26T19:45:43.429Z</time>
      </trkpt>
      <trkpt lat="42.843634" lon="13.392479">
        <ele>698.805168</ele>
        <time>2021-05-26T19:45:50.505Z</time>
      </trkpt>
      <trkpt lat="42.843400" lon="13.392034">
        <ele>698.603940</ele>
        <time>2021-05-26T19:46:00.223Z</time>
      </trkpt>
      <trkpt lat="42.843133" lon="13.392078">
        <ele>698.469154</ele>
        <time>2021-05-26T19:46:05.676Z</time>
      </trkpt>
      <trkpt lat="42.842824" lon="13.392320">
        <ele>698.069277</ele>
        <time>2021-05-26T19:46:11.757Z</time>
      </trkpt>
      <trkpt lat="42.842693" lon="13.392520">
        <ele>697.818488</ele>
        <time>2021-05-26T19:46:14.828Z</time>
      </trkpt>
      <trkpt lat="42.842453" lon="13.392717">
        <ele>697.461230</ele>
        <time>2021-05-26T19:46:19.501Z</time>
      </trkpt>
      <trkpt lat="42.842287" lon="13.392940">
        <ele>697.164056</ele>
        <time>2021-05-26T19:46:23.324Z</time>
      </trkpt>
      <trkpt lat="42.841910" lon="13.392782">
        <ele>696.661040</ele>
        <time>2021-05-26T19:46:29.907Z</time>
      </trkpt>
      <trkpt lat="42.841549" lon="13.392902">
        <ele>696.187142</ele>
        <time>2021-05-26T19:46:36.385Z</time>
      </trkpt>
      <trkpt lat="42.841431" lon="13.392859">
        <ele>696.324680</ele>
        <time>2021-05-26T19:46:38.556Z</time>
      </trkpt>
      <trkpt lat="42.841407" lon="13.392759">
        <ele>696.492355</ele>
        <time>2021-05-26T19:46:40.146Z</time>
      </trkpt>
      <trkpt lat="42.841410" lon="13.392113">
        <ele>697.521815</ele>
        <time>2021-05-26T19:46:52.311Z</time>
      </trkpt>
      <trkpt lat="42.841334" lon="13.391554">
        <ele>698.427799</ele>
        <time>2021-05-26T19:47:05.131Z</time>
      </trkpt>
      <trkpt lat="42.841242" lon="13.391405">
        <ele>698.738212</ele>
        <time>2021-05-26T19:47:09.701Z</time>
      </trkpt>
      <trkpt lat="42.840694" lon="13.391509">
        <ele>699.940665</ele>
        <time>2021-05-26T19:47:31.954Z</time>
      </trkpt>
      <trkpt lat="42.840700" lon="13.391818">
        <ele>701.160516</ele>
        <time>2021-05-26T19:47:41.611Z</time>
      </trkpt>
      <trkpt lat="42.840600" lon="13.392021">
        <ele>702.287580</ele>
        <time>2021-05-26T19:47:50.350Z</time>
      </trkpt>
      <trkpt lat="42.840301" lon="13.392404">
        <ele>704.865796</ele>
        <time>2021-05-26T19:48:10.425Z</time>
      </trkpt>
      <trkpt lat="42.839953" lon="13.393042">
        <ele>708.530410</ele>
        <time>2021-05-26T19:48:42.295Z</time>
      </trkpt>
      <trkpt lat="42.839870" lon="13.393044">
        <ele>709.052160</ele>
        <time>2021-05-26T19:48:47.268Z</time>
      </trkpt>
      <trkpt lat="42.839691" lon="13.392971">
        <ele>710.226431</ele>
        <time>2021-05-26T19:48:58.129Z</time>
      </trkpt>
      <trkpt lat="42.839457" lon="13.392704">
        <ele>711.933912</ele>
        <time>2021-05-26T19:49:16.741Z</time>
      </trkpt>
      <trkpt lat="42.839412" lon="13.392227">
        <ele>713.561136</ele>
        <time>2021-05-26T19:49:36.367Z</time>
      </trkpt>
      <trkpt lat="42.839444" lon="13.391879">
        <ele>714.747810</ele>
        <time>2021-05-26T19:49:49.849Z</time>
      </trkpt>
      <trkpt lat="42.839359" lon="13.391790">
        <ele>715.242291</ele>
        <time>2021-05-26T19:49:55.083Z</time>
      </trkpt>
      <trkpt lat="42.839191" lon="13.391881">
        <ele>716.076399</ele>
        <time>2021-05-26T19:50:03.737Z</time>
      </trkpt>
      <trkpt lat="42.838964" lon="13.392446">
        <ele>718.256228</ele>
        <time>2021-05-26T19:50:24.276Z</time>
      </trkpt>
      <trkpt lat="42.838859" lon="13.394186">
        <ele>717.326043</ele>
        <time>2021-05-26T19:50:47.978Z</time>
      </trkpt>
      <trkpt lat="42.838771" lon="13.394734">
        <ele>716.346740</ele>
        <time>2021-05-26T19:50:53.789Z</time>
      </trkpt>
      <trkpt lat="42.838682" lon="13.394998">
        <ele>715.839507</ele>
        <time>2021-05-26T19:50:56.716Z</time>
      </trkpt>
      <trkpt lat="42.838217" lon="13.395637">
        <ele>714.623809</ele>
        <time>2021-05-26T19:51:06.159Z</time>
      </trkpt>
      <trkpt lat="42.837530" lon="13.396238">
        <ele>713.307519</ele>
        <time>2021-05-26T19:51:19.240Z</time>
      </trkpt>
      <trkpt lat="42.836878" lon="13.396646">
        <ele>713.465896</ele>
        <time>2021-05-26T19:51:40.407Z</time>
      </trkpt>
      <trkpt lat="42.836639" lon="13.396930">
        <ele>715.057208</ele>
        <time>2021-05-26T19:51:54.063Z</time>
      </trkpt>
      <trkpt lat="42.836596" lon="13.397045">
        <ele>715.532384</ele>
        <time>2021-05-26T19:51:58.369Z</time>
      </trkpt>
      <trkpt lat="42.836628" lon="13.397185">
        <ele>716.072184</ele>
        <time>2021-05-26T19:52:03.587Z</time>
      </trkpt>
      <trkpt lat="42.836716" lon="13.397266">
        <ele>716.605140</ele>
        <time>2021-05-26T19:52:08.770Z</time>
      </trkpt>
      <trkpt lat="42.837849" lon="13.397631">
        <ele>722.991786</ele>
        <time>2021-05-26T19:53:07.873Z</time>
      </trkpt>
      <trkpt lat="42.838224" lon="13.397631">
        <ele>725.949631</ele>
        <time>2021-05-26T19:53:28.743Z</time>
      </trkpt>
      <trkpt lat="42.838464" lon="13.397632">
        <ele>727.842660</ele>
        <time>2021-05-26T19:53:41.905Z</time>
      </trkpt>
      <trkpt lat="42.839072" lon="13.397411">
        <ele>732.805733</ele>
        <time>2021-05-26T19:54:19.724Z</time>
      </trkpt>
      <trkpt lat="42.839867" lon="13.397375">
        <ele>740.594398</ele>
        <time>2021-05-26T19:55:12.565Z</time>
      </trkpt>
      <trkpt lat="42.839943" lon="13.397443">
        <ele>741.631339</ele>
        <time>2021-05-26T19:55:19.461Z</time>
      </trkpt>
      <trkpt lat="42.840070" lon="13.397720">
        <ele>744.364092</ele>
        <time>2021-05-26T19:55:37.896Z</time>
      </trkpt>
      <trkpt lat="42.840407" lon="13.398634">
        <ele>752.921777</ele>
        <time>2021-05-26T19:56:39.675Z</time>
      </trkpt>
      <trkpt lat="42.840826" lon="13.398986">
        <ele>758.390517</ele>
        <time>2021-05-26T19:57:18.592Z</time>
      </trkpt>
      <trkpt lat="42.841293" lon="13.399092">
        <ele>763.454626</ele>
        <time>2021-05-26T19:57:57.031Z</time>
      </trkpt>
      <trkpt lat="42.841791" lon="13.399631">
        <ele>770.255278</ele>
        <time>2021-05-26T19:58:45.444Z</time>
      </trkpt>
      <trkpt lat="42.841786" lon="13.399851">
        <ele>771.981621</ele>
        <time>2021-05-26T19:58:54.048Z</time>
      </trkpt>
      <trkpt lat="42.841728" lon="13.399961">
        <ele>773.044288</ele>
        <time>2021-05-26T19:58:59.537Z</time>
      </trkpt>
      <trkpt lat="42.841535" lon="13.399957">
        <ele>775.109005</ele>
        <time>2021-05-26T19:59:13.512Z</time>
      </trkpt>
      <trkpt lat="42.841477" lon="13.400193">
        <ele>776.307504</ele>
        <time>2021-05-26T19:59:22.353Z</time>
      </trkpt>
      <trkpt lat="42.841477" lon="13.400283">
        <ele>776.684244</ele>
        <time>2021-05-26T19:59:29.775Z</time>
      </trkpt>
      <trkpt lat="42.841511" lon="13.400368">
        <ele>777.089556</ele>
        <time>2021-05-26T19:59:33.600Z</time>
      </trkpt>
      <trkpt lat="42.841720" lon="13.400620">
        <ele>778.682164</ele>
        <time>2021-05-26T19:59:52.370Z</time>
      </trkpt>
      <trkpt lat="42.841883" lon="13.401182">
        <ele>781.212045</ele>
        <time>2021-05-26T20:00:18.745Z</time>
      </trkpt>
      <trkpt lat="42.842077" lon="13.401523">
        <ele>783.018740</ele>
        <time>2021-05-26T20:00:37.330Z</time>
      </trkpt>
      <trkpt lat="42.842336" lon="13.402286">
        <ele>786.079490</ele>
        <time>2021-05-26T20:01:07.874Z</time>
      </trkpt>
      <trkpt lat="42.842405" lon="13.402900">
        <ele>787.233902</ele>
        <time>2021-05-26T20:01:27.342Z</time>
      </trkpt>
      <trkpt lat="42.842752" lon="13.403339">
        <ele>788.433554</ele>
        <time>2021-05-26T20:01:47.279Z</time>
      </trkpt>
      <trkpt lat="42.843020" lon="13.404063">
        <ele>789.940805</ele>
        <time>2021-05-26T20:02:12.843Z</time>
      </trkpt>
      <trkpt lat="42.843438" lon="13.404821">
        <ele>792.520427</ele>
        <time>2021-05-26T20:02:44.191Z</time>
      </trkpt>
      <trkpt lat="42.843502" lon="13.405161">
        <ele>793.545114</ele>
        <time>2021-05-26T20:02:56.784Z</time>
      </trkpt>
      <trkpt lat="42.843862" lon="13.405574">
        <ele>795.417995</ele>
        <time>2021-05-26T20:03:21.381Z</time>
      </trkpt>
      <trkpt lat="42.844008" lon="13.406023">
        <ele>796.851780</ele>
        <time>2021-05-26T20:03:41.883Z</time>
      </trkpt>
      <trkpt lat="42.844271" lon="13.406582">
        <ele>799.233825</ele>
        <time>2021-05-26T20:04:12.087Z</time>
      </trkpt>
      <trkpt lat="42.844325" lon="13.406813">
        <ele>800.172621</ele>
        <time>2021-05-26T20:04:23.352Z</time>
      </trkpt>
      <trkpt lat="42.844212" lon="13.407414">
        <ele>802.574999</ele>
        <time>2021-05-26T20:04:53.393Z</time>
      </trkpt>
      <trkpt lat="42.844301" lon="13.407709">
        <ele>803.810162</ele>
        <time>2021-05-26T20:05:09.487Z</time>
      </trkpt>
      <trkpt lat="42.844320" lon="13.408069">
        <ele>805.207694</ele>
        <time>2021-05-26T20:05:25.089Z</time>
      </trkpt>
      <trkpt lat="42.844369" lon="13.408155">
        <ele>805.629410</ele>
        <time>2021-05-26T20:05:29.823Z</time>
      </trkpt>
      <trkpt lat="42.844583" lon="13.408259">
        <ele>806.829134</ele>
        <time>2021-05-26T20:05:40.114Z</time>
      </trkpt>
      <trkpt lat="42.845072" lon="13.408970">
        <ele>806.938269</ele>
        <time>2021-05-26T20:06:05.874Z</time>
      </trkpt>
      <trkpt lat="42.845178" lon="13.409030">
        <ele>806.939395</ele>
        <time>2021-05-26T20:06:10.387Z</time>
      </trkpt>
      <trkpt lat="42.845012" lon="13.409126">
        <ele>806.941163</ele>
        <time>2021-05-26T20:06:15.293Z</time>
      </trkpt>
      <trkpt lat="42.844698" lon="13.409128">
        <ele>806.944242</ele>
        <time>2021-05-26T20:06:24.471Z</time>
      </trkpt>
      <trkpt lat="42.844336" lon="13.408975">
        <ele>806.947958</ele>
        <time>2021-05-26T20:06:34.878Z</time>
      </trkpt>
      <trkpt lat="42.843860" lon="13.408715">
        <ele>808.024280</ele>
        <time>2021-05-26T20:06:49.376Z</time>
      </trkpt>
      <trkpt lat="42.843710" lon="13.408490">
        <ele>808.627308</ele>
        <time>2021-05-26T20:06:55.723Z</time>
      </trkpt>
      <trkpt lat="42.842989" lon="13.407787">
        <ele>811.024330</ele>
        <time>2021-05-26T20:07:36.093Z</time>
      </trkpt>
      <trkpt lat="42.842499" lon="13.406980">
        <ele>816.922941</ele>
        <time>2021-05-26T20:08:35.880Z</time>
      </trkpt>
      <trkpt lat="42.842316" lon="13.406746">
        <ele>819.613098</ele>
        <time>2021-05-26T20:08:58.017Z</time>
      </trkpt>
      <trkpt lat="42.841962" lon="13.406451">
        <ele>824.062006</ele>
        <time>2021-05-26T20:09:35.902Z</time>
      </trkpt>
      <trkpt lat="42.841826" lon="13.406253">
        <ele>826.195346</ele>
        <time>2021-05-26T20:09:55.145Z</time>
      </trkpt>
      <trkpt lat="42.841630" lon="13.405872">
        <ele>829.855054</ele>
        <time>2021-05-26T20:10:27.558Z</time>
      </trkpt>
      <trkpt lat="42.841248" lon="13.405373">
        <ele>834.775048</ele>
        <time>2021-05-26T20:11:15.096Z</time>
      </trkpt>
      <trkpt lat="42.841185" lon="13.405177">
        <ele>836.171659</ele>
        <time>2021-05-26T20:11:28.532Z</time>
      </trkpt>
      <trkpt lat="42.840692" lon="13.404399">
        <ele>842.882257</ele>
        <time>2021-05-26T20:12:25.818Z</time>
      </trkpt>
      <trkpt lat="42.840190" lon="13.403981">
        <ele>847.530903</ele>
        <time>2021-05-26T20:13:03.352Z</time>
      </trkpt>
      <trkpt lat="42.839917" lon="13.403576">
        <ele>849.029718</ele>
        <time>2021-05-26T20:13:25.882Z</time>
      </trkpt>
      <trkpt lat="42.839411" lon="13.403203">
        <ele>851.166887</ele>
        <time>2021-05-26T20:13:54.465Z</time>
      </trkpt>
      <trkpt lat="42.839018" lon="13.403018">
        <ele>852.711660</ele>
        <time>2021-05-26T20:14:12.965Z</time>
      </trkpt>
      <trkpt lat="42.838182" lon="13.402798">
        <ele>855.376355</ele>
        <time>2021-05-26T20:14:48.001Z</time>
      </trkpt>
      <trkpt lat="42.837496" lon="13.402420">
        <ele>857.466581</ele>
        <time>2021-05-26T20:15:19.804Z</time>
      </trkpt>
      <trkpt lat="42.837063" lon="13.402428">
        <ele>858.689953</ele>
        <time>2021-05-26T20:15:41.245Z</time>
      </trkpt>
      <trkpt lat="42.836493" lon="13.402581">
        <ele>861.954028</ele>
        <time>2021-05-26T20:16:15.645Z</time>
      </trkpt>
      <trkpt lat="42.836311" lon="13.402551">
        <ele>863.049192</ele>
        <time>2021-05-26T20:16:25.286Z</time>
      </trkpt>
      <trkpt lat="42.835997" lon="13.402645">
        <ele>864.969663</ele>
        <time>2021-05-26T20:16:44.715Z</time>
      </trkpt>
      <trkpt lat="42.835747" lon="13.402648">
        <ele>866.463196</ele>
        <time>2021-05-26T20:17:02.785Z</time>
      </trkpt>
      <trkpt lat="42.835165" lon="13.402857">
        <ele>870.069886</ele>
        <time>2021-05-26T20:17:42.587Z</time>
      </trkpt>
      <trkpt lat="42.834989" lon="13.402973">
        <ele>871.267881</ele>
        <time>2021-05-26T20:17:57.334Z</time>
      </trkpt>
      <trkpt lat="42.834989" lon="13.402973">
        <ele>871.267881</ele>
        <time>2021-05-26T20:17:57.492Z</time>
      </trkpt>
      <trkpt lat="42.834989" lon="13.402973">
        <ele>871.267881</ele>
        <time>2021-05-26T20:17:57.505Z</time>
      </trkpt>
      <trkpt lat="42.834989" lon="13.402973">
        <ele>871.267881</ele>
        <time>2021-05-26T20:17:57.509Z</time>
      </trkpt>
      <trkpt lat="42.834993" lon="13.402983">
        <ele>871.319074</ele>
        <time>2021-05-26T20:17:57.868Z</time>
      </trkpt>
      <trkpt lat="42.834898" lon="13.403025">
        <ele>871.931116</ele>
        <time>2021-05-26T20:18:02.147Z</time>
      </trkpt>
      <trkpt lat="42.834853" lon="13.402911">
        <ele>872.512958</ele>
        <time>2021-05-26T20:18:06.230Z</time>
      </trkpt>
      <trkpt lat="42.834783" lon="13.402831">
        <ele>873.072691</ele>
        <time>2021-05-26T20:18:10.152Z</time>
      </trkpt>
      <trkpt lat="42.834706" lon="13.402755">
        <ele>873.655225</ele>
        <time>2021-05-26T20:18:14.219Z</time>
      </trkpt>
      <trkpt lat="42.834620" lon="13.402707">
        <ele>874.224716</ele>
        <time>2021-05-26T20:18:18.202Z</time>
      </trkpt>
      <trkpt lat="42.834516" lon="13.402680">
        <ele>874.873529</ele>
        <time>2021-05-26T20:18:22.742Z</time>
      </trkpt>
      <trkpt lat="42.834416" lon="13.402682">
        <ele>875.486447</ele>
        <time>2021-05-26T20:18:27.026Z</time>
      </trkpt>
      <trkpt lat="42.834263" lon="13.402640">
        <ele>876.442920</ele>
        <time>2021-05-26T20:18:33.700Z</time>
      </trkpt>
      <trkpt lat="42.834169" lon="13.402652">
        <ele>877.021520</ele>
        <time>2021-05-26T20:18:37.745Z</time>
      </trkpt>
      <trkpt lat="42.834071" lon="13.402688">
        <ele>877.643525</ele>
        <time>2021-05-26T20:18:42.092Z</time>
      </trkpt>
      <trkpt lat="42.833980" lon="13.402689">
        <ele>878.201239</ele>
        <time>2021-05-26T20:18:45.981Z</time>
      </trkpt>
      <trkpt lat="42.833856" lon="13.402641">
        <ele>878.991200</ele>
        <time>2021-05-26T20:18:51.500Z</time>
      </trkpt>
      <trkpt lat="42.833769" lon="13.402559">
        <ele>879.639346</ele>
        <time>2021-05-26T20:18:56.032Z</time>
      </trkpt>
      <trkpt lat="42.833684" lon="13.402458">
        <ele>880.330289</ele>
        <time>2021-05-26T20:19:00.857Z</time>
      </trkpt>
      <trkpt lat="42.833615" lon="13.402361">
        <ele>880.761096</ele>
        <time>2021-05-26T20:19:05.103Z</time>
      </trkpt>
      <trkpt lat="42.833537" lon="13.402285">
        <ele>880.996526</ele>
        <time>2021-05-26T20:19:09.210Z</time>
      </trkpt>
      <trkpt lat="42.833430" lon="13.402237">
        <ele>881.273155</ele>
        <time>2021-05-26T20:19:14.028Z</time>
      </trkpt>
      <trkpt lat="42.833367" lon="13.402150">
        <ele>881.493354</ele>
        <time>2021-05-26T20:19:17.867Z</time>
      </trkpt>
      <trkpt lat="42.833296" lon="13.402040">
        <ele>881.757264</ele>
        <time>2021-05-26T20:19:22.472Z</time>
      </trkpt>
      <trkpt lat="42.833192" lon="13.401978">
        <ele>882.036013</ele>
        <time>2021-05-26T20:19:27.328Z</time>
      </trkpt>
      <trkpt lat="42.833103" lon="13.401930">
        <ele>882.271057</ele>
        <time>2021-05-26T20:19:31.420Z</time>
      </trkpt>
      <trkpt lat="42.833018" lon="13.401841">
        <ele>882.534242</ele>
        <time>2021-05-26T20:19:36.007Z</time>
      </trkpt>
      <trkpt lat="42.832919" lon="13.401805">
        <ele>882.785867</ele>
        <time>2021-05-26T20:19:40.388Z</time>
      </trkpt>
      <trkpt lat="42.832838" lon="13.401732">
        <ele>883.024310</ele>
        <time>2021-05-26T20:19:44.542Z</time>
      </trkpt>
      <trkpt lat="42.832792" lon="13.401625">
        <ele>883.247686</ele>
        <time>2021-05-26T20:19:48.439Z</time>
      </trkpt>
      <trkpt lat="42.832650" lon="13.401394">
        <ele>883.790538</ele>
        <time>2021-05-26T20:19:57.906Z</time>
      </trkpt>
      <trkpt lat="42.832420" lon="13.401325">
        <ele>884.368890</ele>
        <time>2021-05-26T20:20:07.971Z</time>
      </trkpt>
      <trkpt lat="42.832338" lon="13.401270">
        <ele>884.593312</ele>
        <time>2021-05-26T20:20:11.878Z</time>
      </trkpt>
      <trkpt lat="42.832197" lon="13.401159">
        <ele>884.993149</ele>
        <time>2021-05-26T20:20:18.841Z</time>
      </trkpt>
      <trkpt lat="42.832113" lon="13.401096">
        <ele>884.899252</ele>
        <time>2021-05-26T20:20:22.940Z</time>
      </trkpt>
      <trkpt lat="42.831941" lon="13.400972">
        <ele>884.442338</ele>
        <time>2021-05-26T20:20:31.260Z</time>
      </trkpt>
      <trkpt lat="42.831860" lon="13.400896">
        <ele>884.211431</ele>
        <time>2021-05-26T20:20:35.466Z</time>
      </trkpt>
      <trkpt lat="42.831774" lon="13.400844">
        <ele>883.990498</ele>
        <time>2021-05-26T20:20:39.488Z</time>
      </trkpt>
      <trkpt lat="42.831683" lon="13.400812">
        <ele>883.769796</ele>
        <time>2021-05-26T20:20:43.504Z</time>
      </trkpt>
      <trkpt lat="42.831600" lon="13.400756">
        <ele>883.552319</ele>
        <time>2021-05-26T20:20:47.464Z</time>
      </trkpt>
      <trkpt lat="42.831469" lon="13.400672">
        <ele>883.212353</ele>
        <time>2021-05-26T20:20:53.654Z</time>
      </trkpt>
      <trkpt lat="42.831341" lon="13.400526">
        <ele>882.820449</ele>
        <time>2021-05-26T20:21:00.796Z</time>
      </trkpt>
      <trkpt lat="42.831257" lon="13.400404">
        <ele>882.532240</ele>
        <time>2021-05-26T20:21:06.051Z</time>
      </trkpt>
      <trkpt lat="42.831359" lon="13.400488">
        <ele>882.252400</ele>
        <time>2021-05-26T20:21:11.150Z</time>
      </trkpt>
      <trkpt lat="42.831264" lon="13.400441">
        <ele>882.015066</ele>
        <time>2021-05-26T20:21:15.471Z</time>
      </trkpt>
      <trkpt lat="42.831145" lon="13.400308">
        <ele>881.653721</ele>
        <time>2021-05-26T20:21:22.059Z</time>
      </trkpt>
      <trkpt lat="42.831054" lon="13.400211">
        <ele>881.382463</ele>
        <time>2021-05-26T20:21:27.004Z</time>
      </trkpt>
      <trkpt lat="42.831007" lon="13.400083">
        <ele>881.135923</ele>
        <time>2021-05-26T20:21:31.506Z</time>
      </trkpt>
      <trkpt lat="42.830967" lon="13.399949">
        <ele>880.886753</ele>
        <time>2021-05-26T20:21:36.058Z</time>
      </trkpt>
      <trkpt lat="42.830921" lon="13.399816">
        <ele>880.162245</ele>
        <time>2021-05-26T20:21:40.684Z</time>
      </trkpt>
      <trkpt lat="42.830836" lon="13.399696">
        <ele>879.206905</ele>
        <time>2021-05-26T20:21:45.928Z</time>
      </trkpt>
      <trkpt lat="42.830755" lon="13.399594">
        <ele>878.345996</ele>
        <time>2021-05-26T20:21:50.653Z</time>
      </trkpt>
      <trkpt lat="42.830682" lon="13.399475">
        <ele>877.457602</ele>
        <time>2021-05-26T20:21:55.533Z</time>
      </trkpt>
      <trkpt lat="42.830656" lon="13.399354">
        <ele>876.735592</ele>
        <time>2021-05-26T20:21:59.504Z</time>
      </trkpt>
      <trkpt lat="42.830612" lon="13.399206">
        <ele>875.821111</ele>
        <time>2021-05-26T20:22:04.533Z</time>
      </trkpt>
      <trkpt lat="42.830585" lon="13.399087">
        <ele>875.107815</ele>
        <time>2021-05-26T20:22:08.457Z</time>
      </trkpt>
      <trkpt lat="42.830484" lon="13.398876">
        <ele>873.664969</ele>
        <time>2021-05-26T20:22:16.391Z</time>
      </trkpt>
      <trkpt lat="42.830399" lon="13.398813">
        <ele>872.909560</ele>
        <time>2021-05-26T20:22:20.539Z</time>
      </trkpt>
      <trkpt lat="42.830365" lon="13.398695">
        <ele>872.183573</ele>
        <time>2021-05-26T20:22:24.536Z</time>
      </trkpt>
      <trkpt lat="42.830341" lon="13.398569">
        <ele>871.438119</ele>
        <time>2021-05-26T20:22:28.641Z</time>
      </trkpt>
      <trkpt lat="42.830301" lon="13.398451">
        <ele>870.693721</ele>
        <time>2021-05-26T20:22:32.739Z</time>
      </trkpt>
      <trkpt lat="42.830229" lon="13.398366">
        <ele>869.950099</ele>
        <time>2021-05-26T20:22:36.828Z</time>
      </trkpt>
      <trkpt lat="42.830147" lon="13.398249">
        <ele>869.023371</ele>
        <time>2021-05-26T20:22:41.928Z</time>
      </trkpt>
      <trkpt lat="42.830099" lon="13.398139">
        <ele>868.290403</ele>
        <time>2021-05-26T20:22:45.965Z</time>
      </trkpt>
      <trkpt lat="42.830018" lon="13.398079">
        <ele>867.570639</ele>
        <time>2021-05-26T20:22:49.922Z</time>
      </trkpt>
      <trkpt lat="42.829924" lon="13.398108">
        <ele>866.818114</ele>
        <time>2021-05-26T20:22:54.059Z</time>
      </trkpt>
      <trkpt lat="42.829837" lon="13.398063">
        <ele>865.654287</ele>
        <time>2021-05-26T20:22:58.055Z</time>
      </trkpt>
      <trkpt lat="42.829755" lon="13.397997">
        <ele>864.446617</ele>
        <time>2021-05-26T20:23:02.146Z</time>
      </trkpt>
      <trkpt lat="42.829687" lon="13.398108">
        <ele>863.101341</ele>
        <time>2021-05-26T20:23:06.710Z</time>
      </trkpt>
      <trkpt lat="42.829610" lon="13.398198">
        <ele>861.815066</ele>
        <time>2021-05-26T20:23:11.073Z</time>
      </trkpt>
      <trkpt lat="42.829283" lon="13.398517">
        <ele>856.715621</ele>
        <time>2021-05-26T20:23:28.374Z</time>
      </trkpt>
      <trkpt lat="42.829180" lon="13.398570">
        <ele>855.319353</ele>
        <time>2021-05-26T20:23:33.110Z</time>
      </trkpt>
      <trkpt lat="42.829046" lon="13.398574">
        <ele>853.619430</ele>
        <time>2021-05-26T20:23:38.876Z</time>
      </trkpt>
      <trkpt lat="42.828922" lon="13.398550">
        <ele>852.030978</ele>
        <time>2021-05-26T20:23:44.266Z</time>
      </trkpt>
      <trkpt lat="42.828818" lon="13.398515">
        <ele>850.672369</ele>
        <time>2021-05-26T20:23:48.876Z</time>
      </trkpt>
      <trkpt lat="42.828666" lon="13.398468">
        <ele>848.695612</ele>
        <time>2021-05-26T20:23:55.589Z</time>
      </trkpt>
      <trkpt lat="42.828525" lon="13.398407">
        <ele>846.819461</ele>
        <time>2021-05-26T20:24:01.963Z</time>
      </trkpt>
      <trkpt lat="42.828466" lon="13.398515">
        <ele>845.566821</ele>
        <time>2021-05-26T20:24:06.227Z</time>
      </trkpt>
      <trkpt lat="42.828463" lon="13.398662">
        <ele>844.198960</ele>
        <time>2021-05-26T20:24:10.893Z</time>
      </trkpt>
      <trkpt lat="42.828422" lon="13.398795">
        <ele>842.540349</ele>
        <time>2021-05-26T20:24:15.469Z</time>
      </trkpt>
      <trkpt lat="42.828359" lon="13.398898">
        <ele>840.941010</ele>
        <time>2021-05-26T20:24:19.718Z</time>
      </trkpt>
      <trkpt lat="42.828286" lon="13.399080">
        <ele>838.467341</ele>
        <time>2021-05-26T20:24:26.299Z</time>
      </trkpt>
      <trkpt lat="42.828216" lon="13.399199">
        <ele>836.648243</ele>
        <time>2021-05-26T20:24:31.136Z</time>
      </trkpt>
      <trkpt lat="42.828117" lon="13.399329">
        <ele>834.413449</ele>
        <time>2021-05-26T20:24:37.076Z</time>
      </trkpt>
      <trkpt lat="42.828036" lon="13.399423">
        <ele>832.683986</ele>
        <time>2021-05-26T20:24:41.676Z</time>
      </trkpt>
      <trkpt lat="42.827916" lon="13.399478">
        <ele>830.625551</ele>
        <time>2021-05-26T20:24:47.144Z</time>
      </trkpt>
      <trkpt lat="42.827814" lon="13.399455">
        <ele>828.944544</ele>
        <time>2021-05-26T20:24:51.606Z</time>
      </trkpt>
      <trkpt lat="42.827724" lon="13.399448">
        <ele>827.478800</ele>
        <time>2021-05-26T20:24:55.501Z</time>
      </trkpt>
      <trkpt lat="42.827620" lon="13.399413">
        <ele>825.737054</ele>
        <time>2021-05-26T20:25:00.132Z</time>
      </trkpt>
      <trkpt lat="42.827480" lon="13.399371">
        <ele>823.406261</ele>
        <time>2021-05-26T20:25:06.326Z</time>
      </trkpt>
      <trkpt lat="42.827366" lon="13.399377">
        <ele>821.551285</ele>
        <time>2021-05-26T20:25:11.259Z</time>
      </trkpt>
      <trkpt lat="42.827261" lon="13.399358">
        <ele>819.829057</ele>
        <time>2021-05-26T20:25:15.842Z</time>
      </trkpt>
      <trkpt lat="42.827153" lon="13.399428">
        <ele>817.884714</ele>
        <time>2021-05-26T20:25:21.010Z</time>
      </trkpt>
      <trkpt lat="42.827058" lon="13.399610">
        <ele>815.220815</ele>
        <time>2021-05-26T20:25:28.121Z</time>
      </trkpt>
      <trkpt lat="42.826993" lon="13.399718">
        <ele>813.452834</ele>
        <time>2021-05-26T20:25:32.563Z</time>
      </trkpt>
      <trkpt lat="42.826818" lon="13.399911">
        <ele>809.476887</ele>
        <time>2021-05-26T20:25:42.311Z</time>
      </trkpt>
      <trkpt lat="42.826741" lon="13.399985">
        <ele>807.812800</ele>
        <time>2021-05-26T20:25:46.401Z</time>
      </trkpt>
      <trkpt lat="42.826649" lon="13.400066">
        <ele>805.878293</ele>
        <time>2021-05-26T20:25:51.129Z</time>
      </trkpt>
      <trkpt lat="42.826568" lon="13.400147">
        <ele>804.103888</ele>
        <time>2021-05-26T20:25:55.476Z</time>
      </trkpt>
      <trkpt lat="42.826222" lon="13.400448">
        <ele>796.853855</ele>
        <time>2021-05-26T20:26:13.303Z</time>
      </trkpt>
      <trkpt lat="42.826129" lon="13.400485">
        <ele>795.142539</ele>
        <time>2021-05-26T20:26:17.532Z</time>
      </trkpt>
      <trkpt lat="42.826019" lon="13.400591">
        <ele>792.763127</ele>
        <time>2021-05-26T20:26:23.332Z</time>
      </trkpt>
      <trkpt lat="42.825964" lon="13.400714">
        <ele>790.896771</ele>
        <time>2021-05-26T20:26:27.937Z</time>
      </trkpt>
      <trkpt lat="42.825997" lon="13.400839">
        <ele>789.175600</ele>
        <time>2021-05-26T20:26:32.223Z</time>
      </trkpt>
      <trkpt lat="42.826031" lon="13.400976">
        <ele>787.301820</ele>
        <time>2021-05-26T20:26:36.791Z</time>
      </trkpt>
      <trkpt lat="42.826053" lon="13.401162">
        <ele>784.860944</ele>
        <time>2021-05-26T20:26:42.768Z</time>
      </trkpt>
      <trkpt lat="42.826139" lon="13.401252">
        <ele>782.951574</ele>
        <time>2021-05-26T20:26:47.523Z</time>
      </trkpt>
      <trkpt lat="42.826233" lon="13.401324">
        <ele>781.706309</ele>
        <time>2021-05-26T20:26:52.149Z</time>
      </trkpt>
      <trkpt lat="42.826112" lon="13.401385">
        <ele>780.216315</ele>
        <time>2021-05-26T20:26:57.693Z</time>
      </trkpt>
      <trkpt lat="42.826024" lon="13.401437">
        <ele>779.108586</ele>
        <time>2021-05-26T20:27:01.915Z</time>
      </trkpt>
      <trkpt lat="42.825862" lon="13.401176">
        <ele>776.212212</ele>
        <time>2021-05-26T20:27:12.684Z</time>
      </trkpt>
      <trkpt lat="42.825770" lon="13.401243">
        <ele>775.007557</ele>
        <time>2021-05-26T20:27:17.269Z</time>
      </trkpt>
      <trkpt lat="42.825478" lon="13.400740">
        <ele>769.573486</ele>
        <time>2021-05-26T20:27:27.368Z</time>
      </trkpt>
      <trkpt lat="42.825509" lon="13.400229">
        <ele>765.230050</ele>
        <time>2021-05-26T20:27:35.586Z</time>
      </trkpt>
      <trkpt lat="42.825944" lon="13.399354">
        <ele>759.143438</ele>
        <time>2021-05-26T20:27:53.269Z</time>
      </trkpt>
      <trkpt lat="42.826199" lon="13.399116">
        <ele>757.305413</ele>
        <time>2021-05-26T20:28:01.399Z</time>
      </trkpt>
      <trkpt lat="42.826246" lon="13.398733">
        <ele>755.611427</ele>
        <time>2021-05-26T20:28:08.594Z</time>
      </trkpt>
      <trkpt lat="42.826112" lon="13.398248">
        <ele>753.350567</ele>
        <time>2021-05-26T20:28:17.372Z</time>
      </trkpt>
      <trkpt lat="42.826260" lon="13.397894">
        <ele>751.573033</ele>
        <time>2021-05-26T20:28:24.251Z</time>
      </trkpt>
      <trkpt lat="42.826723" lon="13.397525">
        <ele>748.131057</ele>
        <time>2021-05-26T20:28:36.358Z</time>
      </trkpt>
      <trkpt lat="42.826742" lon="13.397390">
        <ele>747.482738</ele>
        <time>2021-05-26T20:28:38.779Z</time>
      </trkpt>
      <trkpt lat="42.826621" lon="13.397387">
        <ele>746.704503</ele>
        <time>2021-05-26T20:28:41.722Z</time>
      </trkpt>
      <trkpt lat="42.826537" lon="13.397402">
        <ele>746.159717</ele>
        <time>2021-05-26T20:28:43.546Z</time>
      </trkpt>
      <trkpt lat="42.826494" lon="13.397462">
        <ele>745.764066</ele>
        <time>2021-05-26T20:28:44.323Z</time>
      </trkpt>
      <trkpt lat="42.826142" lon="13.397486">
        <ele>743.497655</ele>
        <time>2021-05-26T20:28:49.066Z</time>
      </trkpt>
      <trkpt lat="42.825723" lon="13.397969">
        <ele>739.969299</ele>
        <time>2021-05-26T20:28:56.651Z</time>
      </trkpt>
      <trkpt lat="42.825686" lon="13.398141">
        <ele>739.808132</ele>
        <time>2021-05-26T20:28:58.443Z</time>
      </trkpt>
      <trkpt lat="42.825792" lon="13.398413">
        <ele>739.598128</ele>
        <time>2021-05-26T20:29:01.746Z</time>
      </trkpt>
      <trkpt lat="42.825782" lon="13.398569">
        <ele>739.491361</ele>
        <time>2021-05-26T20:29:03.389Z</time>
      </trkpt>
      <trkpt lat="42.825744" lon="13.398639">
        <ele>739.431984</ele>
        <time>2021-05-26T20:29:04.239Z</time>
      </trkpt>
      <trkpt lat="42.825587" lon="13.398700">
        <ele>739.280224</ele>
        <time>2021-05-26T20:29:06.983Z</time>
      </trkpt>
      <trkpt lat="42.825145" lon="13.399408">
        <ele>738.646310</ele>
        <time>2021-05-26T20:29:21.936Z</time>
      </trkpt>
      <trkpt lat="42.824964" lon="13.399795">
        <ele>738.333367</ele>
        <time>2021-05-26T20:29:32.407Z</time>
      </trkpt>
      <trkpt lat="42.824907" lon="13.400218">
        <ele>739.144840</ele>
        <time>2021-05-26T20:29:44.193Z</time>
      </trkpt>
      <trkpt lat="42.824572" lon="13.400436">
        <ele>740.601462</ele>
        <time>2021-05-26T20:29:59.161Z</time>
      </trkpt>
      <trkpt lat="42.824596" lon="13.400673">
        <ele>741.290037</ele>
        <time>2021-05-26T20:30:07.034Z</time>
      </trkpt>
      <trkpt lat="42.824861" lon="13.401133">
        <ele>742.973515</ele>
        <time>2021-05-26T20:30:26.703Z</time>
      </trkpt>
      <trkpt lat="42.824773" lon="13.401753">
        <ele>744.791021</ele>
        <time>2021-05-26T20:30:47.199Z</time>
      </trkpt>
      <trkpt lat="42.824708" lon="13.401769">
        <ele>745.050210</ele>
        <time>2021-05-26T20:30:49.928Z</time>
      </trkpt>
      <trkpt lat="42.824501" lon="13.401447">
        <ele>744.781518</ele>
        <time>2021-05-26T20:31:01.707Z</time>
      </trkpt>
      <trkpt lat="42.824135" lon="13.401436">
        <ele>744.001466</ele>
        <time>2021-05-26T20:31:12.900Z</time>
      </trkpt>
      <trkpt lat="42.823676" lon="13.401174">
        <ele>742.941190</ele>
        <time>2021-05-26T20:31:20.561Z</time>
      </trkpt>
      <trkpt lat="42.823404" lon="13.400940">
        <ele>742.255890</ele>
        <time>2021-05-26T20:31:25.222Z</time>
      </trkpt>
      <trkpt lat="42.823277" lon="13.400946">
        <ele>741.985120</ele>
        <time>2021-05-26T20:31:26.846Z</time>
      </trkpt>
      <trkpt lat="42.823084" lon="13.401072">
        <ele>741.529166</ele>
        <time>2021-05-26T20:31:29.972Z</time>
      </trkpt>
      <trkpt lat="42.822865" lon="13.401234">
        <ele>739.414217</ele>
        <time>2021-05-26T20:31:33.247Z</time>
      </trkpt>
      <trkpt lat="42.822750" lon="13.401318">
        <ele>738.216880</ele>
        <time>2021-05-26T20:31:35.024Z</time>
      </trkpt>
      <trkpt lat="42.822607" lon="13.401370">
        <ele>736.858616</ele>
        <time>2021-05-26T20:31:36.852Z</time>
      </trkpt>
      <trkpt lat="42.822255" lon="13.401420">
        <ele>733.610641</ele>
        <time>2021-05-26T20:31:41.390Z</time>
      </trkpt>
      <trkpt lat="42.822055" lon="13.401607">
        <ele>731.384973</ele>
        <time>2021-05-26T20:31:44.544Z</time>
      </trkpt>
      <trkpt lat="42.821863" lon="13.402021">
        <ele>728.087811</ele>
        <time>2021-05-26T20:31:49.070Z</time>
      </trkpt>
      <trkpt lat="42.821484" lon="13.402532">
        <ele>723.258710</ele>
        <time>2021-05-26T20:31:55.713Z</time>
      </trkpt>
      <trkpt lat="42.821459" lon="13.402665">
        <ele>722.367196</ele>
        <time>2021-05-26T20:31:57.052Z</time>
      </trkpt>
      <trkpt lat="42.821530" lon="13.402693">
        <ele>721.712883</ele>
        <time>2021-05-26T20:31:58.032Z</time>
      </trkpt>
      <trkpt lat="42.822175" lon="13.402456">
        <ele>715.799113</ele>
        <time>2021-05-26T20:32:06.844Z</time>
      </trkpt>
      <trkpt lat="42.822391" lon="13.402486">
        <ele>713.877020</ele>
        <time>2021-05-26T20:32:09.670Z</time>
      </trkpt>
      <trkpt lat="42.822546" lon="13.402780">
        <ele>711.526035</ele>
        <time>2021-05-26T20:32:13.126Z</time>
      </trkpt>
      <trkpt lat="42.823117" lon="13.402957">
        <ele>706.547233</ele>
        <time>2021-05-26T20:32:20.676Z</time>
      </trkpt>
      <trkpt lat="42.823209" lon="13.403066">
        <ele>705.550055</ele>
        <time>2021-05-26T20:32:22.251Z</time>
      </trkpt>
      <trkpt lat="42.823231" lon="13.403412">
        <ele>703.466019</ele>
        <time>2021-05-26T20:32:25.539Z</time>
      </trkpt>
      <trkpt lat="42.823302" lon="13.403624">
        <ele>702.067522</ele>
        <time>2021-05-26T20:32:27.759Z</time>
      </trkpt>
      <trkpt lat="42.823669" lon="13.403896">
        <ele>698.649981</ele>
        <time>2021-05-26T20:32:33.247Z</time>
      </trkpt>
      <trkpt lat="42.823748" lon="13.404165">
        <ele>696.911209</ele>
        <time>2021-05-26T20:32:36.070Z</time>
      </trkpt>
      <trkpt lat="42.823723" lon="13.404319">
        <ele>695.964742</ele>
        <time>2021-05-26T20:32:37.619Z</time>
      </trkpt>
      <trkpt lat="42.823383" lon="13.404971">
        <ele>692.572293</ele>
        <time>2021-05-26T20:32:45.478Z</time>
      </trkpt>
      <trkpt lat="42.823461" lon="13.405392">
        <ele>691.124968</ele>
        <time>2021-05-26T20:32:49.861Z</time>
      </trkpt>
      <trkpt lat="42.823368" lon="13.405843">
        <ele>689.563445</ele>
        <time>2021-05-26T20:32:54.711Z</time>
      </trkpt>
      <trkpt lat="42.823419" lon="13.405932">
        <ele>689.186993</ele>
        <time>2021-05-26T20:32:55.886Z</time>
      </trkpt>
      <trkpt lat="42.824048" lon="13.406395">
        <ele>686.178744</ele>
        <time>2021-05-26T20:33:07.369Z</time>
      </trkpt>
      <trkpt lat="42.824568" lon="13.406255">
        <ele>686.408142</ele>
        <time>2021-05-26T20:33:17.657Z</time>
      </trkpt>
      <trkpt lat="42.824777" lon="13.406493">
        <ele>686.525995</ele>
        <time>2021-05-26T20:33:22.980Z</time>
      </trkpt>
      <trkpt lat="42.825077" lon="13.406601">
        <ele>686.660282</ele>
        <time>2021-05-26T20:33:29.530Z</time>
      </trkpt>
      <trkpt lat="42.825336" lon="13.407051">
        <ele>686.841854</ele>
        <time>2021-05-26T20:33:40.372Z</time>
      </trkpt>
      <trkpt lat="42.825294" lon="13.407388">
        <ele>687.126149</ele>
        <time>2021-05-26T20:33:48.286Z</time>
      </trkpt>
      <trkpt lat="42.825824" lon="13.407889">
        <ele>690.894894</ele>
        <time>2021-05-26T20:34:14.560Z</time>
      </trkpt>
      <trkpt lat="42.825926" lon="13.408074">
        <ele>691.886855</ele>
        <time>2021-05-26T20:34:22.842Z</time>
      </trkpt>
      <trkpt lat="42.825944" lon="13.408266">
        <ele>692.716453</ele>
        <time>2021-05-26T20:34:29.876Z</time>
      </trkpt>
      <trkpt lat="42.825665" lon="13.409011">
        <ele>696.301667</ele>
        <time>2021-05-26T20:35:03.254Z</time>
      </trkpt>
      <trkpt lat="42.825934" lon="13.409294">
        <ele>699.057243</ele>
        <time>2021-05-26T20:35:25.354Z</time>
      </trkpt>
      <trkpt lat="42.825995" lon="13.409683">
        <ele>702.325055</ele>
        <time>2021-05-26T20:35:46.871Z</time>
      </trkpt>
      <trkpt lat="42.826138" lon="13.409842">
        <ele>704.391822</ele>
        <time>2021-05-26T20:36:01.138Z</time>
      </trkpt>
      <trkpt lat="42.826180" lon="13.410043">
        <ele>706.108714</ele>
        <time>2021-05-26T20:36:13.379Z</time>
      </trkpt>
      <trkpt lat="42.826175" lon="13.410362">
        <ele>708.729848</ele>
        <time>2021-05-26T20:36:32.363Z</time>
      </trkpt>
      <trkpt lat="42.825904" lon="13.410686">
        <ele>712.766910</ele>
        <time>2021-05-26T20:37:02.152Z</time>
      </trkpt>
      <trkpt lat="42.825941" lon="13.411209">
        <ele>717.083234</ele>
        <time>2021-05-26T20:37:34.277Z</time>
      </trkpt>
      <trkpt lat="42.825850" lon="13.411500">
        <ele>719.229020</ele>
        <time>2021-05-26T20:37:53.003Z</time>
      </trkpt>
      <trkpt lat="42.825561" lon="13.411844">
        <ele>722.594124</ele>
        <time>2021-05-26T20:38:21.880Z</time>
      </trkpt>
      <trkpt lat="42.825228" lon="13.412536">
        <ele>727.918723</ele>
        <time>2021-05-26T20:39:02.876Z</time>
      </trkpt>
      <trkpt lat="42.824975" lon="13.412837">
        <ele>730.864028</ele>
        <time>2021-05-26T20:39:21.562Z</time>
      </trkpt>
      <trkpt lat="42.824761" lon="13.412693">
        <ele>732.957318</ele>
        <time>2021-05-26T20:39:32.855Z</time>
      </trkpt>
      <trkpt lat="42.824666" lon="13.412715">
        <ele>733.455359</ele>
        <time>2021-05-26T20:39:37.251Z</time>
      </trkpt>
      <trkpt lat="42.824590" lon="13.412851">
        <ele>733.671676</ele>
        <time>2021-05-26T20:39:42.381Z</time>
      </trkpt>
      <trkpt lat="42.824531" lon="13.413150">
        <ele>734.063415</ele>
        <time>2021-05-26T20:39:51.527Z</time>
      </trkpt>
      <trkpt lat="42.824023" lon="13.414272">
        <ele>735.731639</ele>
        <time>2021-05-26T20:40:20.166Z</time>
      </trkpt>
      <trkpt lat="42.822904" lon="13.415153">
        <ele>733.521315</ele>
        <time>2021-05-26T20:40:41.724Z</time>
      </trkpt>
      <trkpt lat="42.822593" lon="13.415676">
        <ele>731.831069</ele>
        <time>2021-05-26T20:40:48.948Z</time>
      </trkpt>
      <trkpt lat="42.822470" lon="13.416050">
        <ele>730.802102</ele>
        <time>2021-05-26T20:40:53.296Z</time>
      </trkpt>
      <trkpt lat="42.822458" lon="13.416166">
        <ele>730.508009</ele>
        <time>2021-05-26T20:40:54.438Z</time>
      </trkpt>
      <trkpt lat="42.822403" lon="13.416201">
        <ele>730.281477</ele>
        <time>2021-05-26T20:40:55.314Z</time>
      </trkpt>
      <trkpt lat="42.822321" lon="13.416097">
        <ele>729.461796</ele>
        <time>2021-05-26T20:40:57.880Z</time>
      </trkpt>
      <trkpt lat="42.822024" lon="13.415905">
        <ele>727.056083</ele>
        <time>2021-05-26T20:41:05.427Z</time>
      </trkpt>
      <trkpt lat="42.821119" lon="13.415780">
        <ele>720.398516</ele>
        <time>2021-05-26T20:41:25.590Z</time>
      </trkpt>
      <trkpt lat="42.820949" lon="13.415821">
        <ele>719.134975</ele>
        <time>2021-05-26T20:41:29.331Z</time>
      </trkpt>
      <trkpt lat="42.820580" lon="13.416709">
        <ele>714.870180</ele>
        <time>2021-05-26T20:41:46.509Z</time>
      </trkpt>
      <trkpt lat="42.820426" lon="13.417393">
        <ele>712.362912</ele>
        <time>2021-05-26T20:41:58.986Z</time>
      </trkpt>
      <trkpt lat="42.820242" lon="13.417674">
        <ele>711.042928</ele>
        <time>2021-05-26T20:42:05.745Z</time>
      </trkpt>
      <trkpt lat="42.819925" lon="13.417937">
        <ele>709.270082</ele>
        <time>2021-05-26T20:42:15.295Z</time>
      </trkpt>
      <trkpt lat="42.819524" lon="13.418456">
        <ele>708.373827</ele>
        <time>2021-05-26T20:42:31.036Z</time>
      </trkpt>
      <trkpt lat="42.818912" lon="13.419747">
        <ele>707.855734</ele>
        <time>2021-05-26T20:43:11.106Z</time>
      </trkpt>
      <trkpt lat="42.818174" lon="13.420649">
        <ele>705.151198</ele>
        <time>2021-05-26T20:43:39.704Z</time>
      </trkpt>
      <trkpt lat="42.818043" lon="13.421253">
        <ele>703.504119</ele>
        <time>2021-05-26T20:43:50.896Z</time>
      </trkpt>
      <trkpt lat="42.817832" lon="13.421807">
        <ele>701.871735</ele>
        <time>2021-05-26T20:44:01.887Z</time>
      </trkpt>
      <trkpt lat="42.817612" lon="13.422365">
        <ele>699.634382</ele>
        <time>2021-05-26T20:44:12.741Z</time>
      </trkpt>
      <trkpt lat="42.817603" lon="13.422385">
        <ele>699.540796</ele>
        <time>2021-05-26T20:44:13.127Z</time>
      </trkpt>
      <trkpt lat="42.817614" lon="13.422461">
        <ele>699.231821</ele>
        <time>2021-05-26T20:44:13.820Z</time>
      </trkpt>
      <trkpt lat="42.817594" lon="13.422555">
        <ele>698.841444</ele>
        <time>2021-05-26T20:44:14.869Z</time>
      </trkpt>
      <trkpt lat="42.817452" lon="13.422601">
        <ele>698.047814</ele>
        <time>2021-05-26T20:44:16.925Z</time>
      </trkpt>
      <trkpt lat="42.817349" lon="13.422955">
        <ele>696.528841</ele>
        <time>2021-05-26T20:44:20.699Z</time>
      </trkpt>
      <trkpt lat="42.817201" lon="13.422625">
        <ele>694.986087</ele>
        <time>2021-05-26T20:44:24.572Z</time>
      </trkpt>
      <trkpt lat="42.816771" lon="13.422187">
        <ele>692.067367</ele>
        <time>2021-05-26T20:44:32.241Z</time>
      </trkpt>
      <trkpt lat="42.816591" lon="13.422072">
        <ele>691.251264</ele>
        <time>2021-05-26T20:44:35.091Z</time>
      </trkpt>
      <trkpt lat="42.816491" lon="13.422009">
        <ele>690.938507</ele>
        <time>2021-05-26T20:44:36.958Z</time>
      </trkpt>
      <trkpt lat="42.816024" lon="13.421854">
        <ele>689.573933</ele>
        <time>2021-05-26T20:44:45.084Z</time>
      </trkpt>
      <trkpt lat="42.815818" lon="13.421876">
        <ele>688.987293</ele>
        <time>2021-05-26T20:44:48.642Z</time>
      </trkpt>
      <trkpt lat="42.815530" lon="13.422001">
        <ele>688.129200</ele>
        <time>2021-05-26T20:44:56.782Z</time>
      </trkpt>
      <trkpt lat="42.814390" lon="13.422333">
        <ele>684.045895</ele>
        <time>2021-05-26T20:45:26.627Z</time>
      </trkpt>
      <trkpt lat="42.813434" lon="13.423009">
        <ele>679.523004</ele>
        <time>2021-05-26T20:45:52.773Z</time>
      </trkpt>
      <trkpt lat="42.813192" lon="13.423267">
        <ele>678.446471</ele>
        <time>2021-05-26T20:46:00.254Z</time>
      </trkpt>
      <trkpt lat="42.812567" lon="13.423665">
        <ele>676.505356</ele>
        <time>2021-05-26T20:46:17.512Z</time>
      </trkpt>
      <trkpt lat="42.812490" lon="13.423812">
        <ele>676.132499</ele>
        <time>2021-05-26T20:46:20.987Z</time>
      </trkpt>
      <trkpt lat="42.812272" lon="13.424641">
        <ele>674.314629</ele>
        <time>2021-05-26T20:46:38.932Z</time>
      </trkpt>
      <trkpt lat="42.811933" lon="13.424894">
        <ele>673.889615</ele>
        <time>2021-05-26T20:46:50.289Z</time>
      </trkpt>
      <trkpt lat="42.811837" lon="13.425033">
        <ele>673.936491</ele>
        <time>2021-05-26T20:46:54.533Z</time>
      </trkpt>
      <trkpt lat="42.811792" lon="13.425216">
        <ele>673.983883</ele>
        <time>2021-05-26T20:46:58.836Z</time>
      </trkpt>
      <trkpt lat="42.811848" lon="13.425929">
        <ele>674.159957</ele>
        <time>2021-05-26T20:47:15.871Z</time>
      </trkpt>
      <trkpt lat="42.811794" lon="13.426139">
        <ele>674.214598</ele>
        <time>2021-05-26T20:47:21.673Z</time>
      </trkpt>
      <trkpt lat="42.811153" lon="13.426842">
        <ele>674.628525</ele>
        <time>2021-05-26T20:47:53.936Z</time>
      </trkpt>
      <trkpt lat="42.810937" lon="13.427326">
        <ele>675.047989</ele>
        <time>2021-05-26T20:48:11.732Z</time>
      </trkpt>
      <trkpt lat="42.810829" lon="13.427471">
        <ele>675.200986</ele>
        <time>2021-05-26T20:48:17.638Z</time>
      </trkpt>
      <trkpt lat="42.810088" lon="13.427973">
        <ele>676.036144</ele>
        <time>2021-05-26T20:48:45.898Z</time>
      </trkpt>
      <trkpt lat="42.809731" lon="13.428210">
        <ele>676.329855</ele>
        <time>2021-05-26T20:48:59.434Z</time>
      </trkpt>
      <trkpt lat="42.809621" lon="13.428249">
        <ele>676.383264</ele>
        <time>2021-05-26T20:49:03.020Z</time>
      </trkpt>
      <trkpt lat="42.809420" lon="13.428258">
        <ele>676.477766</ele>
        <time>2021-05-26T20:49:09.760Z</time>
      </trkpt>
      <trkpt lat="42.809055" lon="13.428220">
        <ele>676.649779</ele>
        <time>2021-05-26T20:49:21.699Z</time>
      </trkpt>
      <trkpt lat="42.808558" lon="13.428309">
        <ele>676.885327</ele>
        <time>2021-05-26T20:49:37.986Z</time>
      </trkpt>
      <trkpt lat="42.808147" lon="13.428124">
        <ele>677.127805</ele>
        <time>2021-05-26T20:49:53.186Z</time>
      </trkpt>
      <trkpt lat="42.807678" lon="13.428077">
        <ele>678.592216</ele>
        <time>2021-05-26T20:50:10.418Z</time>
      </trkpt>
      <trkpt lat="42.807397" lon="13.427956">
        <ele>679.509877</ele>
        <time>2021-05-26T20:50:24.897Z</time>
      </trkpt>
      <trkpt lat="42.807230" lon="13.427884">
        <ele>680.055310</ele>
        <time>2021-05-26T20:50:34.311Z</time>
      </trkpt>
      <trkpt lat="42.807045" lon="13.427871">
        <ele>680.632166</ele>
        <time>2021-05-26T20:50:44.073Z</time>
      </trkpt>
      <trkpt lat="42.806610" lon="13.427993">
        <ele>682.015136</ele>
        <time>2021-05-26T20:51:08.549Z</time>
      </trkpt>
      <trkpt lat="42.806464" lon="13.428119">
        <ele>682.553248</ele>
        <time>2021-05-26T20:51:15.846Z</time>
      </trkpt>
      <trkpt lat="42.806431" lon="13.428262">
        <ele>682.859775</ele>
        <time>2021-05-26T20:51:22.459Z</time>
      </trkpt>
      <trkpt lat="42.806464" lon="13.428119">
        <ele>683.144441</ele>
        <time>2021-05-26T20:51:28.804Z</time>
      </trkpt>
      <trkpt lat="42.806610" lon="13.427993">
        <ele>683.591715</ele>
        <time>2021-05-26T20:51:36.178Z</time>
      </trkpt>
      <trkpt lat="42.806527" lon="13.427892">
        <ele>683.879703</ele>
        <time>2021-05-26T20:51:44.059Z</time>
      </trkpt>
      <trkpt lat="42.805783" lon="13.427635">
        <ele>685.866302</ele>
        <time>2021-05-26T20:52:21.707Z</time>
      </trkpt>
      <trkpt lat="42.805515" lon="13.427694">
        <ele>686.568965</ele>
        <time>2021-05-26T20:52:31.586Z</time>
      </trkpt>
      <trkpt lat="42.805200" lon="13.427849">
        <ele>687.185682</ele>
        <time>2021-05-26T20:52:44.673Z</time>
      </trkpt>
      <trkpt lat="42.804775" lon="13.428139">
        <ele>685.261743</ele>
        <time>2021-05-26T20:52:58.086Z</time>
      </trkpt>
      <trkpt lat="42.804697" lon="13.428289">
        <ele>684.715711</ele>
        <time>2021-05-26T20:53:01.272Z</time>
      </trkpt>
      <trkpt lat="42.804716" lon="13.428429">
        <ele>684.292871</ele>
        <time>2021-05-26T20:53:04.086Z</time>
      </trkpt>
      <trkpt lat="42.804850" lon="13.428976">
        <ele>682.580170</ele>
        <time>2021-05-26T20:53:14.570Z</time>
      </trkpt>
      <trkpt lat="42.805019" lon="13.429378">
        <ele>681.204162</ele>
        <time>2021-05-26T20:53:22.547Z</time>
      </trkpt>
      <trkpt lat="42.805043" lon="13.429645">
        <ele>680.405273</ele>
        <time>2021-05-26T20:53:27.187Z</time>
      </trkpt>
      <trkpt lat="42.805043" lon="13.429645">
        <ele>680.405273</ele>
        <time>2021-05-26T20:53:27.351Z</time>
      </trkpt>
      <trkpt lat="42.805043" lon="13.429645">
        <ele>680.405273</ele>
        <time>2021-05-26T20:53:27.368Z</time>
      </trkpt>
      <trkpt lat="42.805075" lon="13.429640">
        <ele>680.274889</ele>
        <time>2021-05-26T20:53:28.748Z</time>
      </trkpt>
      <trkpt lat="42.805061" lon="13.429842">
        <ele>679.104282</ele>
        <time>2021-05-26T20:53:35.139Z</time>
      </trkpt>
      <trkpt lat="42.805041" lon="13.429969">
        <ele>678.149448</ele>
        <time>2021-05-26T20:53:39.231Z</time>
      </trkpt>
      <trkpt lat="42.804956" lon="13.430115">
        <ele>676.779358</ele>
        <time>2021-05-26T20:53:45.121Z</time>
      </trkpt>
      <trkpt lat="42.804887" lon="13.430248">
        <ele>675.581943</ele>
        <time>2021-05-26T20:53:50.249Z</time>
      </trkpt>
      <trkpt lat="42.804814" lon="13.430361">
        <ele>674.475161</ele>
        <time>2021-05-26T20:53:54.989Z</time>
      </trkpt>
      <trkpt lat="42.804719" lon="13.430466">
        <ele>673.249697</ele>
        <time>2021-05-26T20:54:00.261Z</time>
      </trkpt>
      <trkpt lat="42.804634" lon="13.430582">
        <ele>672.044529</ele>
        <time>2021-05-26T20:54:05.423Z</time>
      </trkpt>
      <trkpt lat="42.804532" lon="13.430695">
        <ele>670.727547</ele>
        <time>2021-05-26T20:54:11.064Z</time>
      </trkpt>
      <trkpt lat="42.804470" lon="13.430794">
        <ele>669.770722</ele>
        <time>2021-05-26T20:54:15.194Z</time>
      </trkpt>
      <trkpt lat="42.804410" lon="13.430895">
        <ele>668.815403</ele>
        <time>2021-05-26T20:54:19.291Z</time>
      </trkpt>
      <trkpt lat="42.804390" lon="13.431036">
        <ele>667.759716</ele>
        <time>2021-05-26T20:54:23.822Z</time>
      </trkpt>
      <trkpt lat="42.804442" lon="13.431189">
        <ele>666.520195</ele>
        <time>2021-05-26T20:54:29.170Z</time>
      </trkpt>
      <trkpt lat="42.804489" lon="13.431341">
        <ele>665.307662</ele>
        <time>2021-05-26T20:54:34.380Z</time>
      </trkpt>
      <trkpt lat="42.804527" lon="13.431457">
        <ele>664.373806</ele>
        <time>2021-05-26T20:54:38.390Z</time>
      </trkpt>
      <trkpt lat="42.804623" lon="13.431836">
        <ele>661.242357</ele>
        <time>2021-05-26T20:54:51.067Z</time>
      </trkpt>
      <trkpt lat="42.804654" lon="13.432110">
        <ele>658.589060</ele>
        <time>2021-05-26T20:54:59.838Z</time>
      </trkpt>
      <trkpt lat="42.804614" lon="13.432274">
        <ele>656.935050</ele>
        <time>2021-05-26T20:55:05.306Z</time>
      </trkpt>
      <trkpt lat="42.804528" lon="13.432384">
        <ele>655.396614</ele>
        <time>2021-05-26T20:55:10.381Z</time>
      </trkpt>
      <trkpt lat="42.804459" lon="13.432476">
        <ele>654.137496</ele>
        <time>2021-05-26T20:55:14.541Z</time>
      </trkpt>
      <trkpt lat="42.804387" lon="13.432601">
        <ele>652.616554</ele>
        <time>2021-05-26T20:55:19.567Z</time>
      </trkpt>
      <trkpt lat="42.804309" lon="13.432674">
        <ele>651.382310</ele>
        <time>2021-05-26T20:55:23.639Z</time>
      </trkpt>
      <trkpt lat="42.804240" lon="13.432801">
        <ele>649.869876</ele>
        <time>2021-05-26T20:55:28.639Z</time>
      </trkpt>
      <trkpt lat="42.804138" lon="13.433217">
        <ele>645.672097</ele>
        <time>2021-05-26T20:55:42.532Z</time>
      </trkpt>
      <trkpt lat="42.804074" lon="13.433306">
        <ele>644.479412</ele>
        <time>2021-05-26T20:55:46.476Z</time>
      </trkpt>
      <trkpt lat="42.804006" lon="13.433394">
        <ele>643.256248</ele>
        <time>2021-05-26T20:55:50.520Z</time>
      </trkpt>
      <trkpt lat="42.803895" lon="13.433454">
        <ele>641.698595</ele>
        <time>2021-05-26T20:55:55.664Z</time>
      </trkpt>
      <trkpt lat="42.803719" lon="13.433591">
        <ele>639.054729</ele>
        <time>2021-05-26T20:56:04.403Z</time>
      </trkpt>
      <trkpt lat="42.803593" lon="13.433681">
        <ele>636.895588</ele>
        <time>2021-05-26T20:56:10.536Z</time>
      </trkpt>
      <trkpt lat="42.803486" lon="13.433677">
        <ele>635.190976</ele>
        <time>2021-05-26T20:56:15.151Z</time>
      </trkpt>
      <trkpt lat="42.803381" lon="13.433635">
        <ele>633.448333</ele>
        <time>2021-05-26T20:56:19.869Z</time>
      </trkpt>
      <trkpt lat="42.803276" lon="13.433607">
        <ele>631.744508</ele>
        <time>2021-05-26T20:56:24.482Z</time>
      </trkpt>
      <trkpt lat="42.803170" lon="13.433575">
        <ele>630.015551</ele>
        <time>2021-05-26T20:56:29.168Z</time>
      </trkpt>
      <trkpt lat="42.803073" lon="13.433537">
        <ele>628.408287</ele>
        <time>2021-05-26T20:56:33.522Z</time>
      </trkpt>
      <trkpt lat="42.802940" lon="13.433542">
        <ele>626.289461</ele>
        <time>2021-05-26T20:56:39.262Z</time>
      </trkpt>
      <trkpt lat="42.802837" lon="13.433510">
        <ele>624.607116</ele>
        <time>2021-05-26T20:56:43.824Z</time>
      </trkpt>
      <trkpt lat="42.802719" lon="13.433522">
        <ele>622.722746</ele>
        <time>2021-05-26T20:56:48.932Z</time>
      </trkpt>
      <trkpt lat="42.802631" lon="13.433553">
        <ele>621.275298</ele>
        <time>2021-05-26T20:56:52.855Z</time>
      </trkpt>
      <trkpt lat="42.802504" lon="13.433602">
        <ele>619.173353</ele>
        <time>2021-05-26T20:56:58.559Z</time>
      </trkpt>
      <trkpt lat="42.802403" lon="13.433666">
        <ele>617.399599</ele>
        <time>2021-05-26T20:57:03.375Z</time>
      </trkpt>
      <trkpt lat="42.802298" lon="13.433708">
        <ele>615.656953</ele>
        <time>2021-05-26T20:57:08.098Z</time>
      </trkpt>
      <trkpt lat="42.802185" lon="13.433769">
        <ele>613.721425</ele>
        <time>2021-05-26T20:57:13.356Z</time>
      </trkpt>
      <trkpt lat="42.802096" lon="13.433833">
        <ele>612.118930</ele>
        <time>2021-05-26T20:57:17.714Z</time>
      </trkpt>
      <trkpt lat="42.802012" lon="13.433934">
        <ele>610.335089</ele>
        <time>2021-05-26T20:57:22.556Z</time>
      </trkpt>
      <trkpt lat="42.801933" lon="13.434041">
        <ele>608.369944</ele>
        <time>2021-05-26T20:57:27.381Z</time>
      </trkpt>
      <trkpt lat="42.801860" lon="13.434125">
        <ele>606.635643</ele>
        <time>2021-05-26T20:57:31.534Z</time>
      </trkpt>
      <trkpt lat="42.801783" lon="13.434205">
        <ele>604.878045</ele>
        <time>2021-05-26T20:57:35.721Z</time>
      </trkpt>
      <trkpt lat="42.801641" lon="13.434427">
        <ele>600.955342</ele>
        <time>2021-05-26T20:57:45.091Z</time>
      </trkpt>
      <trkpt lat="42.801560" lon="13.434498">
        <ele>599.207103</ele>
        <time>2021-05-26T20:57:49.273Z</time>
      </trkpt>
      <trkpt lat="42.801469" lon="13.434565">
        <ele>597.329547</ele>
        <time>2021-05-26T20:57:53.737Z</time>
      </trkpt>
      <trkpt lat="42.801365" lon="13.434626">
        <ele>595.274226</ele>
        <time>2021-05-26T20:57:58.635Z</time>
      </trkpt>
      <trkpt lat="42.801270" lon="13.434567">
        <ele>593.379081</ele>
        <time>2021-05-26T20:58:03.188Z</time>
      </trkpt>
      <trkpt lat="42.801291" lon="13.434446">
        <ele>591.722988</ele>
        <time>2021-05-26T20:58:07.140Z</time>
      </trkpt>
      <trkpt lat="42.801179" lon="13.434434">
        <ele>589.683572</ele>
        <time>2021-05-26T20:58:11.984Z</time>
      </trkpt>
      <trkpt lat="42.801075" lon="13.434551">
        <ele>587.235575</ele>
        <time>2021-05-26T20:58:17.868Z</time>
      </trkpt>
      <trkpt lat="42.800984" lon="13.434616">
        <ele>585.370530</ele>
        <time>2021-05-26T20:58:22.309Z</time>
      </trkpt>
      <trkpt lat="42.800883" lon="13.434744">
        <ele>582.866905</ele>
        <time>2021-05-26T20:58:28.265Z</time>
      </trkpt>
      <trkpt lat="42.800788" lon="13.434840">
        <ele>580.720049</ele>
        <time>2021-05-26T20:58:33.526Z</time>
      </trkpt>
      <trkpt lat="42.800721" lon="13.434929">
        <ele>579.021670</ele>
        <time>2021-05-26T20:58:37.568Z</time>
      </trkpt>
      <trkpt lat="42.800649" lon="13.434848">
        <ele>577.326899</ele>
        <time>2021-05-26T20:58:41.588Z</time>
      </trkpt>
      <trkpt lat="42.800660" lon="13.434724">
        <ele>575.842081</ele>
        <time>2021-05-26T20:58:45.561Z</time>
      </trkpt>
      <trkpt lat="42.800524" lon="13.434728">
        <ele>573.645908</ele>
        <time>2021-05-26T20:58:51.544Z</time>
      </trkpt>
      <trkpt lat="42.800389" lon="13.434736">
        <ele>571.464331</ele>
        <time>2021-05-26T20:58:57.347Z</time>
      </trkpt>
      <trkpt lat="42.800351" lon="13.434849">
        <ele>569.991876</ele>
        <time>2021-05-26T20:59:01.292Z</time>
      </trkpt>
      <trkpt lat="42.800278" lon="13.434960">
        <ele>568.226124</ele>
        <time>2021-05-26T20:59:06.127Z</time>
      </trkpt>
      <trkpt lat="42.800220" lon="13.435056">
        <ele>566.753028</ele>
        <time>2021-05-26T20:59:10.053Z</time>
      </trkpt>
      <trkpt lat="42.800144" lon="13.435137">
        <ele>565.195419</ele>
        <time>2021-05-26T20:59:14.199Z</time>
      </trkpt>
      <trkpt lat="42.800054" lon="13.435116">
        <ele>563.721266</ele>
        <time>2021-05-26T20:59:18.241Z</time>
      </trkpt>
      <trkpt lat="42.799981" lon="13.435015">
        <ele>562.041858</ele>
        <time>2021-05-26T20:59:22.728Z</time>
      </trkpt>
      <trkpt lat="42.799910" lon="13.434852">
        <ele>559.796386</ele>
        <time>2021-05-26T20:59:28.706Z</time>
      </trkpt>
      <trkpt lat="42.799897" lon="13.434729">
        <ele>558.324318</ele>
        <time>2021-05-26T20:59:32.642Z</time>
      </trkpt>
      <trkpt lat="42.799884" lon="13.434728">
        <ele>558.114104</ele>
        <time>2021-05-26T20:59:33.430Z</time>
      </trkpt>
      <trkpt lat="42.799883" lon="13.434582">
        <ele>556.384545</ele>
        <time>2021-05-26T20:59:38.970Z</time>
      </trkpt>
      <trkpt lat="42.800126" lon="13.433961">
        <ele>548.102748</ele>
        <time>2021-05-26T21:00:05.907Z</time>
      </trkpt>
      <trkpt lat="42.800273" lon="13.433780">
        <ele>545.816533</ele>
        <time>2021-05-26T21:00:15.697Z</time>
      </trkpt>
      <trkpt lat="42.800427" lon="13.433376">
        <ele>541.961576</ele>
        <time>2021-05-26T21:00:32.958Z</time>
      </trkpt>
      <trkpt lat="42.800733" lon="13.432990">
        <ele>537.149820</ele>
        <time>2021-05-26T21:00:54.859Z</time>
      </trkpt>
      <trkpt lat="42.801079" lon="13.432313">
        <ele>530.163815</ele>
        <time>2021-05-26T21:01:27.632Z</time>
      </trkpt>
      <trkpt lat="42.801368" lon="13.431607">
        <ele>523.438583</ele>
        <time>2021-05-26T21:01:59.342Z</time>
      </trkpt>
      <trkpt lat="42.801670" lon="13.431417">
        <ele>519.710703</ele>
        <time>2021-05-26T21:02:16.905Z</time>
      </trkpt>
      <trkpt lat="42.801823" lon="13.430150">
        <ele>509.151903</ele>
        <time>2021-05-26T21:03:06.253Z</time>
      </trkpt>
      <trkpt lat="42.801916" lon="13.429873">
        <ele>506.665204</ele>
        <time>2021-05-26T21:03:17.969Z</time>
      </trkpt>
      <trkpt lat="42.801898" lon="13.429606">
        <ele>504.519641</ele>
        <time>2021-05-26T21:03:28.322Z</time>
      </trkpt>
      <trkpt lat="42.802102" lon="13.428985">
        <ele>499.074996</ele>
        <time>2021-05-26T21:03:55.085Z</time>
      </trkpt>
      <trkpt lat="42.801990" lon="13.428443">
        <ele>494.569131</ele>
        <time>2021-05-26T21:04:17.565Z</time>
      </trkpt>
      <trkpt lat="42.802041" lon="13.427980">
        <ele>490.822642</ele>
        <time>2021-05-26T21:04:35.656Z</time>
      </trkpt>
      <trkpt lat="42.802024" lon="13.427741">
        <ele>488.901176</ele>
        <time>2021-05-26T21:04:45.357Z</time>
      </trkpt>
      <trkpt lat="42.801853" lon="13.427424">
        <ele>487.708952</ele>
        <time>2021-05-26T21:05:00.113Z</time>
      </trkpt>
      <trkpt lat="42.801542" lon="13.427198">
        <ele>487.708952</ele>
        <time>2021-05-26T21:05:18.164Z</time>
      </trkpt>
      <trkpt lat="42.801449" lon="13.427036">
        <ele>487.708952</ele>
        <time>2021-05-26T21:05:26.097Z</time>
      </trkpt>
      <trkpt lat="42.801208" lon="13.426805">
        <ele>487.708952</ele>
        <time>2021-05-26T21:05:41.220Z</time>
      </trkpt>
      <trkpt lat="42.801176" lon="13.426663">
        <ele>487.708952</ele>
        <time>2021-05-26T21:05:47.964Z</time>
      </trkpt>
      <trkpt lat="42.801176" lon="13.426663">
        <ele>487.708952</ele>
        <time>2021-05-26T21:05:48.430Z</time>
      </trkpt>
      <trkpt lat="42.801176" lon="13.426663">
        <ele>487.708952</ele>
        <time>2021-05-26T21:05:48.430Z</time>
      </trkpt>
      <trkpt lat="42.801195" lon="13.426655">
        <ele>487.708952</ele>
        <time>2021-05-26T21:05:49.281Z</time>
      </trkpt>
      <trkpt lat="42.801139" lon="13.426759">
        <ele>487.708952</ele>
        <time>2021-05-26T21:05:53.335Z</time>
      </trkpt>
      <trkpt lat="42.801060" lon="13.426824">
        <ele>487.708952</ele>
        <time>2021-05-26T21:05:57.313Z</time>
      </trkpt>
      <trkpt lat="42.800992" lon="13.426736">
        <ele>487.708952</ele>
        <time>2021-05-26T21:06:01.333Z</time>
      </trkpt>
      <trkpt lat="42.800977" lon="13.426858">
        <ele>487.708952</ele>
        <time>2021-05-26T21:06:05.265Z</time>
      </trkpt>
      <trkpt lat="42.800907" lon="13.426955">
        <ele>487.708952</ele>
        <time>2021-05-26T21:06:09.539Z</time>
      </trkpt>
      <trkpt lat="42.800970" lon="13.426840">
        <ele>487.708952</ele>
        <time>2021-05-26T21:06:14.091Z</time>
      </trkpt>
    </trkseg>
  </trk>
</gpx>